Wetterdaten: Mittwoch, 12.07.2017
Datum Zeit Temp. A. Pool Temp. Feuchte A. Luftdruck Regen Wind Richtung Richtung Sonnenschein ET UV Solar Taupunkt Windchill Windben Empfang
12.07.2017 00:00 20,1 C 26,1 C 76 % 1013,3 hPa 0,0 l/m 6,5 km/h (2 Bft) SW 229 0 min 0,000 mm 0,0 UV-I 0 W/m 15,7 C 20,1 C 8,0 km/h (2 Bft) 96,30 %
12.07.2017 00:02 20,1 C 26,1 C 76 % 1013,3 hPa 0,0 l/m 5,6 km/h (1 Bft) SW 229 0 min 0,000 mm 0,0 UV-I 0 W/m 15,7 C 20,1 C 8,0 km/h (2 Bft) 94,59 %
12.07.2017 00:04 20,0 C 26,1 C 76 % 1013,3 hPa 0,0 l/m 5,9 km/h (2 Bft) SW 227 0 min 0,000 mm 0,0 UV-I 0 W/m 15,6 C 20,0 C 8,0 km/h (2 Bft) 92,45 %
12.07.2017 00:06 19,9 C 26,1 C 76 % 1013,3 hPa 0,0 l/m 6,2 km/h (2 Bft) SW 229 0 min 0,000 mm 0,0 UV-I 0 W/m 15,5 C 19,9 C 9,7 km/h (2 Bft) 95,12 %
12.07.2017 00:08 19,9 C 26,1 C 76 % 1013,3 hPa 0,0 l/m 6,3 km/h (2 Bft) SW 225 0 min 0,000 mm 0,0 UV-I 0 W/m 15,5 C 19,9 C 8,0 km/h (2 Bft) 100,00 %
12.07.2017 00:10 19,9 C 26,1 C 76 % 1013,3 hPa 0,0 l/m 5,2 km/h (1 Bft) W-SW 238 0 min 0,000 mm 0,0 UV-I 0 W/m 15,5 C 19,9 C 8,0 km/h (2 Bft) 95,74 %
12.07.2017 00:12 19,8 C 26,1 C 77 % 1013,3 hPa 0,0 l/m 4,9 km/h (1 Bft) SW 235 0 min 0,000 mm 0,0 UV-I 0 W/m 15,6 C 19,8 C 9,7 km/h (2 Bft) 97,87 %
12.07.2017 00:14 19,8 C 26,1 C 77 % 1013,3 hPa 0,0 l/m 6,5 km/h (2 Bft) W-SW 240 0 min 0,000 mm 0,0 UV-I 0 W/m 15,6 C 19,8 C 11,3 km/h (2 Bft) 98,00 %
12.07.2017 00:16 19,8 C 26,1 C 76 % 1013,4 hPa 0,0 l/m 6,8 km/h (2 Bft) SW 226 0 min 0,000 mm 0,0 UV-I 0 W/m 15,4 C 19,6 C 9,7 km/h (2 Bft) 98,11 %
12.07.2017 00:18 19,8 C 26,1 C 76 % 1013,4 hPa 0,0 l/m 6,4 km/h (2 Bft) SW 217 0 min 0,000 mm 0,0 UV-I 0 W/m 15,4 C 19,8 C 9,7 km/h (2 Bft) 97,56 %
12.07.2017 00:20 19,8 C 26,1 C 76 % 1013,4 hPa 0,0 l/m 7,4 km/h (2 Bft) S-SW 202 0 min 0,000 mm 0,0 UV-I 0 W/m 15,4 C 19,4 C 12,9 km/h (3 Bft) 98,00 %
12.07.2017 00:22 19,8 C 26,1 C 77 % 1013,4 hPa 0,0 l/m 8,1 km/h (2 Bft) SW 223 0 min 0,000 mm 0,0 UV-I 0 W/m 15,6 C 19,1 C 12,9 km/h (3 Bft) 97,44 %
12.07.2017 00:24 19,8 C 26,1 C 77 % 1013,4 hPa 0,0 l/m 9,1 km/h (2 Bft) SW 236 0 min 0,000 mm 0,0 UV-I 0 W/m 15,6 C 18,7 C 14,5 km/h (3 Bft) 97,87 %
12.07.2017 00:26 19,8 C 26,1 C 77 % 1013,3 hPa 0,0 l/m 10,0 km/h (2 Bft) SW 219 0 min 0,000 mm 0,0 UV-I 0 W/m 15,6 C 18,4 C 14,5 km/h (3 Bft) 97,87 %
12.07.2017 00:28 19,8 C 26,1 C 77 % 1013,3 hPa 0,0 l/m 9,4 km/h (2 Bft) SW 225 0 min 0,000 mm 0,0 UV-I 0 W/m 15,6 C 18,6 C 16,1 km/h (3 Bft) 96,00 %
12.07.2017 00:30 19,8 C 26,1 C 76 % 1013,3 hPa 0,0 l/m 8,6 km/h (2 Bft) SW 216 0 min 0,000 mm 0,0 UV-I 0 W/m 15,4 C 18,9 C 12,9 km/h (3 Bft) 96,23 %
12.07.2017 00:32 19,8 C 26,1 C 76 % 1013,3 hPa 0,0 l/m 8,3 km/h (2 Bft) W 266 0 min 0,000 mm 0,0 UV-I 0 W/m 15,4 C 19,0 C 12,9 km/h (3 Bft) 95,74 %
12.07.2017 00:34 19,8 C 26,1 C 76 % 1013,4 hPa 0,0 l/m 8,6 km/h (2 Bft) W 263 0 min 0,000 mm 0,0 UV-I 0 W/m 15,4 C 18,9 C 14,5 km/h (3 Bft) 95,45 %
12.07.2017 00:36 19,9 C 25,6 C 76 % 1013,4 hPa 0,0 l/m 9,7 km/h (2 Bft) SW 226 0 min 0,000 mm 0,0 UV-I 0 W/m 15,5 C 18,6 C 12,9 km/h (3 Bft) 97,37 %
12.07.2017 00:38 19,9 C 25,6 C 76 % 1013,4 hPa 0,0 l/m 8,4 km/h (2 Bft) SW 221 0 min 0,000 mm 0,0 UV-I 0 W/m 15,5 C 19,1 C 12,9 km/h (3 Bft) 96,00 %
12.07.2017 00:40 19,9 C 25,6 C 76 % 1013,4 hPa 0,0 l/m 9,3 km/h (2 Bft) SW 221 0 min 0,000 mm 0,0 UV-I 0 W/m 15,5 C 18,8 C 14,5 km/h (3 Bft) 98,00 %
12.07.2017 00:42 20,0 C 25,6 C 75 % 1013,4 hPa 0,0 l/m 7,4 km/h (2 Bft) SW 236 0 min 0,000 mm 0,0 UV-I 0 W/m 15,4 C 19,6 C 11,3 km/h (2 Bft) 98,00 %
12.07.2017 00:44 20,0 C 25,6 C 76 % 1013,4 hPa 0,0 l/m 6,9 km/h (2 Bft) W-SW 238 0 min 0,000 mm 0,0 UV-I 0 W/m 15,6 C 19,8 C 12,9 km/h (3 Bft) 100,00 %
12.07.2017 00:46 20,0 C 25,6 C 76 % 1013,4 hPa 0,0 l/m 8,3 km/h (2 Bft) W-SW 240 0 min 0,000 mm 0,0 UV-I 0 W/m 15,6 C 19,2 C 11,3 km/h (2 Bft) 97,62 %
12.07.2017 00:48 20,0 C 25,6 C 76 % 1013,4 hPa 0,0 l/m 6,6 km/h (2 Bft) SW 225 0 min 0,000 mm 0,0 UV-I 0 W/m 15,6 C 19,9 C 9,7 km/h (2 Bft) 98,28 %
12.07.2017 00:50 19,9 C 25,6 C 76 % 1013,4 hPa 0,0 l/m 7,6 km/h (2 Bft) SW 225 0 min 0,000 mm 0,0 UV-I 0 W/m 15,5 C 19,4 C 12,9 km/h (3 Bft) 97,62 %
12.07.2017 00:52 19,9 C 25,6 C 77 % 1013,3 hPa 0,0 l/m 7,5 km/h (2 Bft) SW 234 0 min 0,000 mm 0,0 UV-I 0 W/m 15,7 C 19,4 C 14,5 km/h (3 Bft) 96,00 %
12.07.2017 00:54 19,9 C 25,6 C 77 % 1013,3 hPa 0,0 l/m 6,3 km/h (2 Bft) SW 225 0 min 0,000 mm 0,0 UV-I 0 W/m 15,7 C 19,9 C 8,0 km/h (2 Bft) 95,83 %
12.07.2017 00:56 19,8 C 25,6 C 77 % 1013,3 hPa 0,0 l/m 7,5 km/h (2 Bft) W-SW 240 0 min 0,000 mm 0,0 UV-I 0 W/m 15,6 C 19,3 C 11,3 km/h (2 Bft) 100,00 %
12.07.2017 00:58 19,8 C 25,6 C 77 % 1013,3 hPa 0,0 l/m 7,0 km/h (2 Bft) W-SW 242 0 min 0,000 mm 0,0 UV-I 0 W/m 15,6 C 19,6 C 9,7 km/h (2 Bft) 93,18 %
12.07.2017 01:00 19,8 C 25,6 C 77 % 1013,2 hPa 0,0 l/m 4,6 km/h (1 Bft) SW 229 0 min 0,025 mm 0,0 UV-I 0 W/m 15,6 C 19,8 C 6,4 km/h (2 Bft) 94,34 %
12.07.2017 01:02 19,8 C 25,6 C 77 % 1013,3 hPa 0,0 l/m 6,7 km/h (2 Bft) SW 225 0 min 0,000 mm 0,0 UV-I 0 W/m 15,6 C 19,7 C 12,9 km/h (3 Bft) 96,23 %
12.07.2017 01:04 19,8 C 25,6 C 77 % 1013,3 hPa 0,0 l/m 9,8 km/h (2 Bft) W-SW 240 0 min 0,000 mm 0,0 UV-I 0 W/m 15,6 C 18,5 C 14,5 km/h (3 Bft) 95,45 %
12.07.2017 01:06 19,8 C 25,6 C 77 % 1013,3 hPa 0,0 l/m 7,1 km/h (2 Bft) SW 229 0 min 0,000 mm 0,0 UV-I 0 W/m 15,6 C 19,5 C 12,9 km/h (3 Bft) 96,00 %
12.07.2017 01:08 19,8 C 25,6 C 77 % 1013,2 hPa 0,0 l/m 7,8 km/h (2 Bft) W-SW 239 0 min 0,000 mm 0,0 UV-I 0 W/m 15,6 C 19,2 C 12,9 km/h (3 Bft) 97,14 %
12.07.2017 01:10 19,8 C 25,6 C 77 % 1013,3 hPa 0,0 l/m 7,7 km/h (2 Bft) SW 219 0 min 0,000 mm 0,0 UV-I 0 W/m 15,6 C 19,3 C 12,9 km/h (3 Bft) 96,43 %
12.07.2017 01:12 19,7 C 25,6 C 77 % 1013,3 hPa 0,0 l/m 8,0 km/h (2 Bft) SW 229 0 min 0,000 mm 0,0 UV-I 0 W/m 15,5 C 19,0 C 12,9 km/h (3 Bft) 94,00 %
12.07.2017 01:14 19,7 C 25,6 C 78 % 1013,2 hPa 0,0 l/m 8,3 km/h (2 Bft) SW 236 0 min 0,000 mm 0,0 UV-I 0 W/m 15,8 C 18,9 C 11,3 km/h (2 Bft) 97,37 %
12.07.2017 01:16 19,7 C 25,6 C 78 % 1013,2 hPa 0,0 l/m 7,6 km/h (2 Bft) SW 221 0 min 0,000 mm 0,0 UV-I 0 W/m 15,8 C 19,2 C 11,3 km/h (2 Bft) 94,34 %
12.07.2017 01:18 19,6 C 25,6 C 78 % 1013,2 hPa 0,0 l/m 7,9 km/h (2 Bft) SW 230 0 min 0,000 mm 0,0 UV-I 0 W/m 15,7 C 19,0 C 11,3 km/h (2 Bft) 97,56 %
12.07.2017 01:20 19,6 C 25,6 C 78 % 1013,2 hPa 0,0 l/m 6,1 km/h (2 Bft) SW 214 0 min 0,000 mm 0,0 UV-I 0 W/m 15,7 C 19,6 C 9,7 km/h (2 Bft) 92,00 %
12.07.2017 01:22 19,6 C 25,6 C 78 % 1013,1 hPa 0,0 l/m 6,3 km/h (2 Bft) W-SW 240 0 min 0,000 mm 0,0 UV-I 0 W/m 15,7 C 19,6 C 9,7 km/h (2 Bft) 94,00 %
12.07.2017 01:24 19,5 C 25,6 C 79 % 1013,1 hPa 0,0 l/m 4,8 km/h (1 Bft) SW 232 0 min 0,000 mm 0,0 UV-I 0 W/m 15,8 C 19,5 C 9,7 km/h (2 Bft) 94,74 %
12.07.2017 01:26 19,5 C 25,6 C 79 % 1013,1 hPa 0,0 l/m 5,8 km/h (2 Bft) SW 231 0 min 0,000 mm 0,0 UV-I 0 W/m 15,8 C 19,5 C 8,0 km/h (2 Bft) 94,00 %
12.07.2017 01:28 19,4 C 25,6 C 79 % 1013,1 hPa 0,0 l/m 5,7 km/h (1 Bft) SW 231 0 min 0,000 mm 0,0 UV-I 0 W/m 15,7 C 19,4 C 6,4 km/h (2 Bft) 95,24 %
12.07.2017 01:30 19,4 C 25,6 C 80 % 1013,1 hPa 0,0 l/m 6,0 km/h (2 Bft) SW 229 0 min 0,000 mm 0,0 UV-I 0 W/m 15,9 C 19,4 C 8,0 km/h (2 Bft) 98,00 %
12.07.2017 01:32 19,4 C 25,6 C 80 % 1013,1 hPa 0,0 l/m 5,7 km/h (1 Bft) SW 227 0 min 0,000 mm 0,0 UV-I 0 W/m 15,9 C 19,4 C 8,0 km/h (2 Bft) 92,86 %
12.07.2017 01:34 19,3 C 25,6 C 80 % 1013,1 hPa 0,0 l/m 5,2 km/h (1 Bft) SW 227 0 min 0,000 mm 0,0 UV-I 0 W/m 15,8 C 19,3 C 8,0 km/h (2 Bft) 97,37 %
12.07.2017 01:36 19,3 C 25,6 C 80 % 1013,1 hPa 0,0 l/m 5,7 km/h (1 Bft) SW 227 0 min 0,000 mm 0,0 UV-I 0 W/m 15,8 C 19,3 C 8,0 km/h (2 Bft) 98,00 %
12.07.2017 01:38 19,3 C 25,6 C 80 % 1013,1 hPa 0,0 l/m 5,9 km/h (2 Bft) SW 229 0 min 0,000 mm 0,0 UV-I 0 W/m 15,8 C 19,3 C 8,0 km/h (2 Bft) 98,00 %
12.07.2017 01:40 19,3 C 25,6 C 81 % 1013,1 hPa 0,0 l/m 6,4 km/h (2 Bft) SW 234 0 min 0,000 mm 0,0 UV-I 0 W/m 16,0 C 19,3 C 8,0 km/h (2 Bft) 98,00 %
12.07.2017 01:42 19,2 C 25,6 C 81 % 1013,1 hPa 0,0 l/m 5,8 km/h (2 Bft) SW 227 0 min 0,000 mm 0,0 UV-I 0 W/m 15,9 C 19,2 C 8,0 km/h (2 Bft) 97,56 %
12.07.2017 01:44 19,2 C 25,6 C 81 % 1013,0 hPa 0,0 l/m 6,2 km/h (2 Bft) SW 221 0 min 0,000 mm 0,0 UV-I 0 W/m 15,9 C 19,2 C 8,0 km/h (2 Bft) 94,00 %
12.07.2017 01:46 19,2 C 25,6 C 81 % 1013,1 hPa 0,0 l/m 5,7 km/h (1 Bft) SW 233 0 min 0,000 mm 0,0 UV-I 0 W/m 15,9 C 19,2 C 8,0 km/h (2 Bft) 97,73 %
12.07.2017 01:48 19,1 C 25,6 C 81 % 1013,1 hPa 0,0 l/m 5,6 km/h (1 Bft) SW 227 0 min 0,000 mm 0,0 UV-I 0 W/m 15,8 C 19,1 C 8,0 km/h (2 Bft) 98,00 %
12.07.2017 01:50 19,1 C 25,6 C 81 % 1013,0 hPa 0,0 l/m 5,8 km/h (2 Bft) SW 221 0 min 0,000 mm 0,0 UV-I 0 W/m 15,8 C 19,1 C 8,0 km/h (2 Bft) 100,00 %
12.07.2017 01:52 19,1 C 25,6 C 81 % 1013,0 hPa 0,0 l/m 4,7 km/h (1 Bft) SW 232 0 min 0,000 mm 0,0 UV-I 0 W/m 15,8 C 19,1 C 9,7 km/h (2 Bft) 98,11 %
12.07.2017 01:54 19,0 C 25,6 C 81 % 1013,1 hPa 0,0 l/m 6,9 km/h (2 Bft) SW 225 0 min 0,000 mm 0,0 UV-I 0 W/m 15,7 C 18,8 C 9,7 km/h (2 Bft) 97,87 %
12.07.2017 01:56 18,9 C 25,6 C 81 % 1013,1 hPa 0,0 l/m 6,8 km/h (2 Bft) SW 230 0 min 0,000 mm 0,0 UV-I 0 W/m 15,6 C 18,7 C 9,7 km/h (2 Bft) 97,56 %
12.07.2017 01:58 18,9 C 25,6 C 81 % 1013,0 hPa 0,0 l/m 6,8 km/h (2 Bft) W-SW 241 0 min 0,000 mm 0,0 UV-I 0 W/m 15,6 C 18,7 C 9,7 km/h (2 Bft) 96,00 %
12.07.2017 02:00 18,9 C 25,6 C 82 % 1013,0 hPa 0,0 l/m 6,1 km/h (2 Bft) SW 233 0 min 0,026 mm 0,0 UV-I 0 W/m 15,8 C 18,9 C 9,7 km/h (2 Bft) 97,73 %
12.07.2017 02:02 18,9 C 25,6 C 82 % 1013,0 hPa 0,0 l/m 8,5 km/h (2 Bft) SW 219 0 min 0,000 mm 0,0 UV-I 0 W/m 15,8 C 18,0 C 12,9 km/h (3 Bft) 97,56 %
12.07.2017 02:04 18,9 C 25,6 C 82 % 1013,0 hPa 0,0 l/m 8,0 km/h (2 Bft) SW 219 0 min 0,000 mm 0,0 UV-I 0 W/m 15,8 C 18,2 C 12,9 km/h (3 Bft) 96,61 %
12.07.2017 02:06 18,9 C 25,6 C 82 % 1013,1 hPa 0,0 l/m 6,5 km/h (2 Bft) SW 236 0 min 0,000 mm 0,0 UV-I 0 W/m 15,8 C 18,9 C 9,7 km/h (2 Bft) 100,00 %
12.07.2017 02:08 18,8 C 25,6 C 82 % 1013,1 hPa 0,0 l/m 6,8 km/h (2 Bft) SW 223 0 min 0,000 mm 0,0 UV-I 0 W/m 15,7 C 18,6 C 9,7 km/h (2 Bft) 94,29 %
12.07.2017 02:10 18,8 C 25,6 C 82 % 1013,1 hPa 0,0 l/m 6,2 km/h (2 Bft) W-SW 256 0 min 0,000 mm 0,0 UV-I 0 W/m 15,7 C 18,8 C 11,3 km/h (2 Bft) 98,46 %
12.07.2017 02:12 18,8 C 25,6 C 82 % 1013,1 hPa 0,0 l/m 8,5 km/h (2 Bft) W-SW 244 0 min 0,000 mm 0,0 UV-I 0 W/m 15,7 C 17,9 C 12,9 km/h (3 Bft) 100,00 %
12.07.2017 02:14 18,8 C 25,6 C 81 % 1013,1 hPa 0,0 l/m 9,1 km/h (2 Bft) SW 230 0 min 0,000 mm 0,0 UV-I 0 W/m 15,5 C 17,6 C 12,9 km/h (3 Bft) 98,11 %
12.07.2017 02:16 18,9 C 25,6 C 81 % 1013,1 hPa 0,0 l/m 8,3 km/h (2 Bft) W 262 0 min 0,000 mm 0,0 UV-I 0 W/m 15,6 C 18,1 C 12,9 km/h (3 Bft) 98,00 %
12.07.2017 02:18 18,9 C 25,6 C 81 % 1013,2 hPa 0,0 l/m 8,1 km/h (2 Bft) W-SW 254 0 min 0,000 mm 0,0 UV-I 0 W/m 15,6 C 18,2 C 11,3 km/h (2 Bft) 97,14 %
12.07.2017 02:20 19,0 C 25,6 C 81 % 1013,2 hPa 0,0 l/m 8,3 km/h (2 Bft) W-SW 250 0 min 0,000 mm 0,0 UV-I 0 W/m 15,7 C 18,2 C 12,9 km/h (3 Bft) 100,00 %
12.07.2017 02:22 19,0 C 25,6 C 81 % 1013,3 hPa 0,0 l/m 7,9 km/h (2 Bft) W 269 0 min 0,000 mm 0,0 UV-I 0 W/m 15,7 C 18,3 C 11,3 km/h (2 Bft) 95,65 %
12.07.2017 02:24 19,1 C 25,6 C 81 % 1013,3 hPa 0,0 l/m 6,0 km/h (2 Bft) W-SW 256 0 min 0,000 mm 0,0 UV-I 0 W/m 15,8 C 19,1 C 11,3 km/h (2 Bft) 95,38 %
12.07.2017 02:26 19,1 C 25,6 C 81 % 1013,3 hPa 0,0 l/m 6,1 km/h (2 Bft) W 275 0 min 0,000 mm 0,0 UV-I 0 W/m 15,8 C 19,1 C 9,7 km/h (2 Bft) 97,87 %
12.07.2017 02:28 19,1 C 25,6 C 81 % 1013,3 hPa 0,0 l/m 5,8 km/h (2 Bft) W-SW 237 0 min 0,000 mm 0,0 UV-I 0 W/m 15,8 C 19,1 C 11,3 km/h (2 Bft) 98,11 %
12.07.2017 02:30 19,1 C 25,6 C 81 % 1013,3 hPa 0,0 l/m 6,5 km/h (2 Bft) W 263 0 min 0,000 mm 0,0 UV-I 0 W/m 15,8 C 19,1 C 11,3 km/h (2 Bft) 100,00 %
12.07.2017 02:32 19,1 C 25,6 C 81 % 1013,3 hPa 0,0 l/m 5,2 km/h (1 Bft) W-SW 257 0 min 0,000 mm 0,0 UV-I 0 W/m 15,8 C 19,1 C 6,4 km/h (2 Bft) 96,23 %
12.07.2017 02:34 19,1 C 25,6 C 80 % 1013,3 hPa 0,0 l/m 5,7 km/h (1 Bft) W-SW 244 0 min 0,000 mm 0,0 UV-I 0 W/m 15,6 C 19,1 C 8,0 km/h (2 Bft) 98,00 %
12.07.2017 02:36 19,1 C 25,6 C 81 % 1013,4 hPa 0,0 l/m 6,1 km/h (2 Bft) SW 232 0 min 0,000 mm 0,0 UV-I 0 W/m 15,8 C 19,1 C 9,7 km/h (2 Bft) 97,87 %
12.07.2017 02:38 19,1 C 25,6 C 81 % 1013,3 hPa 0,0 l/m 6,9 km/h (2 Bft) SW 231 0 min 0,000 mm 0,0 UV-I 0 W/m 15,8 C 18,9 C 12,9 km/h (3 Bft) 98,00 %
12.07.2017 02:40 19,1 C 25,6 C 80 % 1013,3 hPa 0,0 l/m 5,9 km/h (2 Bft) W-SW 254 0 min 0,000 mm 0,0 UV-I 0 W/m 15,6 C 19,1 C 11,3 km/h (2 Bft) 97,14 %
12.07.2017 02:42 19,1 C 25,6 C 80 % 1013,3 hPa 0,0 l/m 7,6 km/h (2 Bft) W-SW 250 0 min 0,000 mm 0,0 UV-I 0 W/m 15,6 C 18,6 C 11,3 km/h (2 Bft) 94,92 %
12.07.2017 02:44 19,1 C 25,6 C 80 % 1013,3 hPa 0,0 l/m 9,9 km/h (2 Bft) W-SW 244 0 min 0,000 mm 0,0 UV-I 0 W/m 15,6 C 17,7 C 20,9 km/h (4 Bft) 97,56 %
12.07.2017 02:46 19,1 C 25,6 C 79 % 1013,2 hPa 0,0 l/m 9,1 km/h (2 Bft) SW 223 0 min 0,000 mm 0,0 UV-I 0 W/m 15,4 C 18,0 C 16,1 km/h (3 Bft) 97,62 %
12.07.2017 02:48 19,1 C 25,6 C 79 % 1013,1 hPa 0,0 l/m 6,2 km/h (2 Bft) W-SW 247 0 min 0,000 mm 0,0 UV-I 0 W/m 15,4 C 19,1 C 11,3 km/h (2 Bft) 89,36 %
12.07.2017 02:50 19,1 C 25,6 C 79 % 1013,1 hPa 0,0 l/m 3,0 km/h (1 Bft) W 261 0 min 0,000 mm 0,0 UV-I 0 W/m 15,4 C 19,1 C 6,4 km/h (2 Bft) 96,00 %
12.07.2017 02:52 19,1 C 25,6 C 78 % 1013,0 hPa 0,0 l/m 4,3 km/h (1 Bft) SW 232 0 min 0,000 mm 0,0 UV-I 0 W/m 15,2 C 19,1 C 12,9 km/h (3 Bft) 95,74 %
12.07.2017 02:54 19,1 C 25,6 C 78 % 1012,9 hPa 0,0 l/m 5,7 km/h (1 Bft) SW 223 0 min 0,000 mm 0,0 UV-I 0 W/m 15,2 C 19,1 C 8,0 km/h (2 Bft) 95,45 %
12.07.2017 02:56 19,1 C 25,6 C 78 % 1012,9 hPa 0,0 l/m 4,6 km/h (1 Bft) SW 221 0 min 0,000 mm 0,0 UV-I 0 W/m 15,2 C 19,1 C 6,4 km/h (2 Bft) 93,62 %
12.07.2017 02:58 19,0 C 25,6 C 79 % 1012,9 hPa 0,0 l/m 4,7 km/h (1 Bft) S 189 0 min 0,000 mm 0,0 UV-I 0 W/m 15,3 C 19,0 C 8,0 km/h (2 Bft) 94,00 %
12.07.2017 03:00 18,9 C 25,6 C 79 % 1012,9 hPa 0,0 l/m 4,2 km/h (1 Bft) S-SW 211 0 min 0,000 mm 0,0 UV-I 0 W/m 15,2 C 18,9 C 8,0 km/h (2 Bft) 95,12 %
12.07.2017 03:02 18,8 C 25,6 C 79 % 1012,9 hPa 0,0 l/m 5,5 km/h (1 Bft) SW 230 0 min 0,025 mm 0,0 UV-I 0 W/m 15,1 C 18,8 C 11,3 km/h (2 Bft) 93,18 %
12.07.2017 03:04 18,8 C 25,6 C 79 % 1013,0 hPa 0,0 l/m 8,5 km/h (2 Bft) S-SW 210 0 min 0,000 mm 0,0 UV-I 0 W/m 15,1 C 17,9 C 11,3 km/h (2 Bft) 93,55 %
12.07.2017 03:06 18,8 C 25,6 C 79 % 1012,9 hPa 0,0 l/m 6,5 km/h (2 Bft) S-SW 212 0 min 0,000 mm 0,0 UV-I 0 W/m 15,1 C 18,8 C 9,7 km/h (2 Bft) 91,49 %
12.07.2017 03:08 18,7 C 25,6 C 80 % 1012,9 hPa 0,0 l/m 5,6 km/h (1 Bft) SW 232 0 min 0,000 mm 0,0 UV-I 0 W/m 15,2 C 18,7 C 8,0 km/h (2 Bft) 94,74 %
12.07.2017 03:10 18,7 C 25,6 C 80 % 1013,0 hPa 0,0 l/m 5,1 km/h (1 Bft) W-SW 238 0 min 0,000 mm 0,0 UV-I 0 W/m 15,2 C 18,7 C 8,0 km/h (2 Bft) 91,49 %
12.07.2017 03:12 18,6 C 25,6 C 80 % 1012,9 hPa 0,0 l/m 6,0 km/h (2 Bft) SW 231 0 min 0,000 mm 0,0 UV-I 0 W/m 15,1 C 18,6 C 9,7 km/h (2 Bft) 94,00 %
12.07.2017 03:14 18,6 C 25,6 C 80 % 1012,9 hPa 0,0 l/m 5,2 km/h (1 Bft) SW 236 0 min 0,000 mm 0,0 UV-I 0 W/m 15,1 C 18,6 C 8,0 km/h (2 Bft) 89,47 %
12.07.2017 03:16 18,5 C 25,6 C 81 % 1012,8 hPa 0,0 l/m 5,2 km/h (1 Bft) SW 217 0 min 0,000 mm 0,0 UV-I 0 W/m 15,2 C 18,5 C 8,0 km/h (2 Bft) 92,45 %
12.07.2017 03:18 18,3 C 25,6 C 81 % 1012,8 hPa 0,0 l/m 4,7 km/h (1 Bft) SW 219 0 min 0,000 mm 0,0 UV-I 0 W/m 15,0 C 18,3 C 8,0 km/h (2 Bft) 94,34 %
12.07.2017 03:20 18,2 C 25,6 C 82 % 1012,8 hPa 0,0 l/m 5,0 km/h (1 Bft) SW 218 0 min 0,000 mm 0,0 UV-I 0 W/m 15,1 C 18,2 C 6,4 km/h (2 Bft) 95,74 %
12.07.2017 03:22 18,1 C 25,6 C 82 % 1012,8 hPa 0,0 l/m 6,8 km/h (2 Bft) SW 221 0 min 0,000 mm 0,0 UV-I 0 W/m 15,0 C 17,9 C 9,7 km/h (2 Bft) 95,12 %
12.07.2017 03:24 18,1 C 25,6 C 82 % 1012,8 hPa 0,0 l/m 6,1 km/h (2 Bft) S-SW 195 0 min 0,000 mm 0,0 UV-I 0 W/m 15,0 C 18,1 C 9,7 km/h (2 Bft) 96,23 %
12.07.2017 03:26 17,9 C 25,6 C 83 % 1012,8 hPa 0,0 l/m 5,0 km/h (1 Bft) S-SW 195 0 min 0,000 mm 0,0 UV-I 0 W/m 15,0 C 17,9 C 6,4 km/h (2 Bft) 89,74 %
12.07.2017 03:28 17,9 C 25,6 C 83 % 1012,8 hPa 0,0 l/m 3,9 km/h (1 Bft) S-SW 195 0 min 0,000 mm 0,0 UV-I 0 W/m 15,0 C 17,9 C 6,4 km/h (2 Bft) 93,62 %
12.07.2017 03:30 17,8 C 25,6 C 83 % 1012,7 hPa 0,0 l/m 3,8 km/h (1 Bft) S-SW 195 0 min 0,000 mm 0,0 UV-I 0 W/m 14,9 C 17,8 C 6,4 km/h (2 Bft) 93,18 %
12.07.2017 03:32 17,8 C 25,6 C 82 % 1012,8 hPa 0,0 l/m 4,9 km/h (1 Bft) S-SW 195 0 min 0,000 mm 0,0 UV-I 0 W/m 14,7 C 17,8 C 6,4 km/h (2 Bft) 90,57 %
12.07.2017 03:34 17,8 C 25,6 C 82 % 1012,7 hPa 0,0 l/m 5,2 km/h (1 Bft) S-SW 201 0 min 0,000 mm 0,0 UV-I 0 W/m 14,7 C 17,8 C 6,4 km/h (2 Bft) 98,00 %
12.07.2017 03:36 17,8 C 25,6 C 82 % 1012,7 hPa 0,0 l/m 4,9 km/h (1 Bft) S-SW 212 0 min 0,000 mm 0,0 UV-I 0 W/m 14,7 C 17,8 C 6,4 km/h (2 Bft) 95,12 %
12.07.2017 03:38 17,8 C 25,6 C 82 % 1012,7 hPa 0,0 l/m 3,7 km/h (1 Bft) S-SW 212 0 min 0,000 mm 0,0 UV-I 0 W/m 14,7 C 17,8 C 4,8 km/h (1 Bft) 96,00 %
12.07.2017 03:40 17,8 C 25,6 C 83 % 1012,7 hPa 0,0 l/m 4,3 km/h (1 Bft) S-SW 212 0 min 0,000 mm 0,0 UV-I 0 W/m 14,9 C 17,8 C 6,4 km/h (2 Bft) 92,68 %
12.07.2017 03:42 17,7 C 25,6 C 83 % 1012,7 hPa 0,0 l/m 4,1 km/h (1 Bft) S-SW 212 0 min 0,000 mm 0,0 UV-I 0 W/m 14,8 C 17,7 C 6,4 km/h (2 Bft) 94,34 %
12.07.2017 03:44 17,7 C 25,6 C 83 % 1012,7 hPa 0,0 l/m 4,4 km/h (1 Bft) S-SW 212 0 min 0,000 mm 0,0 UV-I 0 W/m 14,8 C 17,7 C 6,4 km/h (2 Bft) 98,00 %
12.07.2017 03:46 17,7 C 25,6 C 83 % 1012,7 hPa 0,0 l/m 3,2 km/h (1 Bft) S-SW 212 0 min 0,000 mm 0,0 UV-I 0 W/m 14,8 C 17,7 C 4,8 km/h (1 Bft) 95,12 %
12.07.2017 03:48 17,7 C 25,6 C 83 % 1012,7 hPa 0,0 l/m 3,4 km/h (1 Bft) S-SW 212 0 min 0,000 mm 0,0 UV-I 0 W/m 14,8 C 17,7 C 4,8 km/h (1 Bft) 96,00 %
12.07.2017 03:50 17,7 C 25,6 C 84 % 1012,6 hPa 0,0 l/m 2,8 km/h (1 Bft) S-SW 212 0 min 0,000 mm 0,0 UV-I 0 W/m 15,0 C 17,7 C 6,4 km/h (2 Bft) 97,87 %
12.07.2017 03:52 17,7 C 25,6 C 84 % 1012,6 hPa 0,0 l/m 3,5 km/h (1 Bft) S-SW 212 0 min 0,000 mm 0,0 UV-I 0 W/m 15,0 C 17,7 C 4,8 km/h (1 Bft) 94,00 %
12.07.2017 03:54 17,7 C 25,6 C 84 % 1012,6 hPa 0,0 l/m 3,1 km/h (1 Bft) S-SW 212 0 min 0,000 mm 0,0 UV-I 0 W/m 15,0 C 17,7 C 4,8 km/h (1 Bft) 95,74 %
12.07.2017 03:56 17,6 C 25,6 C 84 % 1012,6 hPa 0,0 l/m 3,0 km/h (1 Bft) S-SW 212 0 min 0,000 mm 0,0 UV-I 0 W/m 14,9 C 17,6 C 4,8 km/h (1 Bft) 100,00 %
12.07.2017 03:58 17,6 C 25,6 C 84 % 1012,6 hPa 0,0 l/m 1,2 km/h (1 Bft) S-SW 212 0 min 0,000 mm 0,0 UV-I 0 W/m 14,9 C 17,6 C 3,2 km/h (1 Bft) 94,74 %
12.07.2017 04:00 17,6 C 25,6 C 84 % 1012,6 hPa 0,0 l/m 3,4 km/h (1 Bft) S-SW 212 0 min 0,026 mm 0,0 UV-I 0 W/m 14,9 C 17,6 C 4,8 km/h (1 Bft) 100,00 %
12.07.2017 04:02 17,5 C 25,6 C 84 % 1012,6 hPa 0,0 l/m 2,9 km/h (1 Bft) S-SW 212 0 min 0,000 mm 0,0 UV-I 0 W/m 14,8 C 17,5 C 3,2 km/h (1 Bft) 95,12 %
12.07.2017 04:04 17,5 C 25,6 C 84 % 1012,6 hPa 0,0 l/m 0,6 km/h (0 Bft) S-SW 212 0 min 0,000 mm 0,0 UV-I 0 W/m 14,8 C 17,5 C 3,2 km/h (1 Bft) 97,44 %
12.07.2017 04:06 17,4 C 25,6 C 85 % 1012,7 hPa 0,0 l/m 1,2 km/h (1 Bft) S-SW 212 0 min 0,000 mm 0,0 UV-I 0 W/m 14,8 C 17,4 C 3,2 km/h (1 Bft) 97,87 %
12.07.2017 04:08 17,4 C 25,6 C 85 % 1012,7 hPa 0,0 l/m 1,4 km/h (1 Bft) S-SW 212 0 min 0,000 mm 0,0 UV-I 0 W/m 14,8 C 17,4 C 3,2 km/h (1 Bft) 96,15 %
12.07.2017 04:10 17,3 C 25,6 C 85 % 1012,7 hPa 0,0 l/m 0,1 km/h (0 Bft) S-SW 212 0 min 0,000 mm 0,0 UV-I 0 W/m 14,8 C 17,3 C 1,6 km/h (1 Bft) 95,83 %
12.07.2017 04:12 17,0 C 25,6 C 85 % 1012,7 hPa 0,0 l/m 0,3 km/h (0 Bft) S-SW 212 0 min 0,000 mm 0,0 UV-I 0 W/m 14,5 C 17,0 C 3,2 km/h (1 Bft) 94,74 %
12.07.2017 04:14 16,8 C 25,6 C 86 % 1012,7 hPa 0,0 l/m 4,0 km/h (1 Bft) S-SW 212 0 min 0,000 mm 0,0 UV-I 0 W/m 14,4 C 16,8 C 4,8 km/h (1 Bft) 98,11 %
12.07.2017 04:16 16,6 C 25,0 C 87 % 1012,8 hPa 0,0 l/m 3,5 km/h (1 Bft) S-SW 212 0 min 0,000 mm 0,0 UV-I 0 W/m 14,4 C 16,6 C 4,8 km/h (1 Bft) 97,56 %
12.07.2017 04:18 16,4 C 25,0 C 87 % 1012,8 hPa 0,0 l/m 1,9 km/h (1 Bft) S-SW 212 0 min 0,000 mm 0,0 UV-I 0 W/m 14,2 C 16,4 C 3,2 km/h (1 Bft) 98,00 %
12.07.2017 04:20 16,3 C 25,0 C 88 % 1012,8 hPa 0,0 l/m 3,7 km/h (1 Bft) S-SW 212 0 min 0,000 mm 0,0 UV-I 0 W/m 14,3 C 16,3 C 4,8 km/h (1 Bft) 94,34 %
12.07.2017 04:22 16,3 C 25,0 C 88 % 1012,8 hPa 0,0 l/m 6,1 km/h (2 Bft) N-NO 33 0 min 0,000 mm 0,0 UV-I 0 W/m 14,3 C 16,3 C 8,0 km/h (2 Bft) 97,37 %
12.07.2017 04:24 16,3 C 25,0 C 88 % 1012,8 hPa 0,0 l/m 5,4 km/h (1 Bft) NO 36 0 min 0,000 mm 0,0 UV-I 0 W/m 14,3 C 16,3 C 6,4 km/h (2 Bft) 98,00 %
12.07.2017 04:26 16,4 C 25,0 C 88 % 1012,9 hPa 0,0 l/m 5,1 km/h (1 Bft) NO 37 0 min 0,000 mm 0,0 UV-I 0 W/m 14,4 C 16,4 C 6,4 km/h (2 Bft) 96,00 %
12.07.2017 04:28 16,4 C 25,0 C 89 % 1012,9 hPa 0,0 l/m 5,0 km/h (1 Bft) NO 40 0 min 0,000 mm 0,0 UV-I 0 W/m 14,6 C 16,4 C 6,4 km/h (2 Bft) 98,00 %
12.07.2017 04:30 16,4 C 25,0 C 88 % 1012,9 hPa 0,0 l/m 5,2 km/h (1 Bft) NO 40 0 min 0,000 mm 0,0 UV-I 0 W/m 14,4 C 16,4 C 6,4 km/h (2 Bft) 97,37 %
12.07.2017 04:32 16,5 C 25,0 C 88 % 1012,9 hPa 0,0 l/m 4,8 km/h (1 Bft) NO 40 0 min 0,000 mm 0,0 UV-I 0 W/m 14,5 C 16,5 C 6,4 km/h (2 Bft) 98,00 %
12.07.2017 04:34 16,6 C 25,0 C 88 % 1012,9 hPa 0,0 l/m 3,2 km/h (1 Bft) NO 40 0 min 0,000 mm 0,0 UV-I 0 W/m 14,6 C 16,6 C 4,8 km/h (1 Bft) 100,00 %
12.07.2017 04:36 16,6 C 25,0 C 88 % 1012,9 hPa 0,0 l/m 3,4 km/h (1 Bft) NO 40 0 min 0,000 mm 0,0 UV-I 0 W/m 14,6 C 16,6 C 4,8 km/h (1 Bft) 97,87 %
12.07.2017 04:38 16,6 C 25,0 C 88 % 1012,8 hPa 0,0 l/m 4,2 km/h (1 Bft) NO 40 0 min 0,000 mm 0,0 UV-I 0 W/m 14,6 C 16,6 C 6,4 km/h (2 Bft) 100,00 %
12.07.2017 04:40 16,6 C 25,0 C 88 % 1012,9 hPa 0,0 l/m 4,9 km/h (1 Bft) N-NO 15 0 min 0,000 mm 0,0 UV-I 0 W/m 14,6 C 16,6 C 6,4 km/h (2 Bft) 97,37 %
12.07.2017 04:42 16,6 C 25,0 C 89 % 1012,8 hPa 0,0 l/m 4,1 km/h (1 Bft) NO 38 0 min 0,000 mm 0,0 UV-I 0 W/m 14,8 C 16,6 C 6,4 km/h (2 Bft) 98,21 %
12.07.2017 04:44 16,6 C 25,0 C 89 % 1012,8 hPa 0,0 l/m 3,0 km/h (1 Bft) NO 38 0 min 0,000 mm 0,0 UV-I 0 W/m 14,8 C 16,6 C 4,8 km/h (1 Bft) 100,00 %
12.07.2017 04:46 16,6 C 25,0 C 89 % 1012,8 hPa 0,0 l/m 4,7 km/h (1 Bft) NO 55 0 min 0,000 mm 0,0 UV-I 0 W/m 14,8 C 16,6 C 6,4 km/h (2 Bft) 98,00 %
12.07.2017 04:48 16,6 C 25,0 C 89 % 1012,8 hPa 0,0 l/m 3,9 km/h (1 Bft) NO 56 0 min 0,000 mm 0,0 UV-I 0 W/m 14,8 C 16,6 C 6,4 km/h (2 Bft) 97,87 %
12.07.2017 04:50 16,6 C 25,0 C 89 % 1012,8 hPa 0,0 l/m 1,8 km/h (1 Bft) NO 56 0 min 0,000 mm 0,0 UV-I 0 W/m 14,8 C 16,6 C 3,2 km/h (1 Bft) 100,00 %
12.07.2017 04:52 16,7 C 25,0 C 89 % 1012,8 hPa 0,0 l/m 2,5 km/h (1 Bft) NO 56 0 min 0,000 mm 0,0 UV-I 0 W/m 14,9 C 16,7 C 4,8 km/h (1 Bft) 98,00 %
12.07.2017 04:54 16,7 C 25,0 C 89 % 1012,8 hPa 0,0 l/m 2,5 km/h (1 Bft) NO 56 0 min 0,000 mm 0,0 UV-I 0 W/m 14,9 C 16,7 C 4,8 km/h (1 Bft) 100,00 %
12.07.2017 04:56 16,7 C 25,0 C 89 % 1012,8 hPa 0,0 l/m 1,9 km/h (1 Bft) NO 56 0 min 0,000 mm 0,0 UV-I 0 W/m 14,9 C 16,7 C 4,8 km/h (1 Bft) 98,11 %
12.07.2017 04:58 16,7 C 25,0 C 89 % 1012,8 hPa 0,0 l/m 1,6 km/h (1 Bft) NO 56 0 min 0,000 mm 0,0 UV-I 0 W/m 14,9 C 16,7 C 3,2 km/h (1 Bft) 95,45 %
12.07.2017 05:00 16,7 C 25,0 C 89 % 1012,8 hPa 0,0 l/m 1,6 km/h (1 Bft) NO 56 0 min 0,000 mm 0,0 UV-I 4 W/m 14,9 C 16,7 C 3,2 km/h (1 Bft) 96,00 %
12.07.2017 05:02 16,7 C 25,0 C 89 % 1012,9 hPa 0,0 l/m 1,8 km/h (1 Bft) NO 56 0 min 0,000 mm 0,0 UV-I 5 W/m 14,9 C 16,7 C 3,2 km/h (1 Bft) 93,62 %
12.07.2017 05:04 16,6 C 25,0 C 89 % 1012,8 hPa 0,0 l/m 2,4 km/h (1 Bft) NO 56 0 min 0,000 mm 0,0 UV-I 5 W/m 14,8 C 16,6 C 4,8 km/h (1 Bft) 96,00 %
12.07.2017 05:06 16,6 C 25,0 C 89 % 1012,9 hPa 0,0 l/m 3,2 km/h (1 Bft) NO 56 0 min 0,000 mm 0,0 UV-I 5 W/m 14,8 C 16,6 C 4,8 km/h (1 Bft) 93,62 %
12.07.2017 05:08 16,6 C 25,0 C 89 % 1012,9 hPa 0,0 l/m 3,2 km/h (1 Bft) NO 53 0 min 0,000 mm 0,0 UV-I 6 W/m 14,8 C 16,6 C 4,8 km/h (1 Bft) 97,37 %
12.07.2017 05:10 16,6 C 25,0 C 89 % 1012,8 hPa 0,0 l/m 3,3 km/h (1 Bft) NO 53 0 min 0,000 mm 0,0 UV-I 7 W/m 14,8 C 16,6 C 4,8 km/h (1 Bft) 94,34 %
12.07.2017 05:12 16,6 C 25,0 C 89 % 1012,8 hPa 0,0 l/m 2,0 km/h (1 Bft) NO 53 0 min 0,000 mm 0,0 UV-I 7 W/m 14,8 C 16,6 C 4,8 km/h (1 Bft) 94,74 %
12.07.2017 05:14 16,7 C 25,0 C 89 % 1012,9 hPa 0,0 l/m 2,5 km/h (1 Bft) NO 53 0 min 0,000 mm 0,0 UV-I 7 W/m 14,9 C 16,7 C 3,2 km/h (1 Bft) 96,23 %
12.07.2017 05:16 16,7 C 25,0 C 89 % 1012,9 hPa 0,0 l/m 2,3 km/h (1 Bft) NO 53 0 min 0,000 mm 0,0 UV-I 7 W/m 14,9 C 16,7 C 3,2 km/h (1 Bft) 94,00 %
12.07.2017 05:18 16,6 C 25,0 C 88 % 1012,8 hPa 0,0 l/m 4,1 km/h (1 Bft) NO 53 0 min 0,000 mm 0,0 UV-I 9 W/m 14,6 C 16,6 C 4,8 km/h (1 Bft) 93,62 %
12.07.2017 05:20 16,6 C 25,0 C 89 % 1012,8 hPa 0,0 l/m 3,7 km/h (1 Bft) NO 53 0 min 0,000 mm 0,0 UV-I 9 W/m 14,8 C 16,6 C 4,8 km/h (1 Bft) 97,22 %
12.07.2017 05:22 16,5 C 25,0 C 89 % 1012,8 hPa 0,0 l/m 1,8 km/h (1 Bft) NO 53 0 min 0,000 mm 0,0 UV-I 9 W/m 14,7 C 16,5 C 3,2 km/h (1 Bft) 96,36 %
12.07.2017 05:24 16,4 C 25,0 C 89 % 1012,9 hPa 0,0 l/m 1,8 km/h (1 Bft) O-NO 71 0 min 0,000 mm 0,0 UV-I 11 W/m 14,6 C 16,4 C 3,2 km/h (1 Bft) 96,00 %
12.07.2017 05:26 16,3 C 25,0 C 89 % 1012,9 hPa 0,0 l/m 1,4 km/h (1 Bft) O-NO 71 0 min 0,000 mm 0,0 UV-I 11 W/m 14,5 C 16,3 C 3,2 km/h (1 Bft) 97,44 %
12.07.2017 05:28 16,3 C 25,0 C 89 % 1012,9 hPa 0,0 l/m 2,2 km/h (1 Bft) O-NO 71 0 min 0,000 mm 0,0 UV-I 12 W/m 14,5 C 16,3 C 4,8 km/h (1 Bft) 96,00 %
12.07.2017 05:30 16,1 C 25,0 C 89 % 1012,8 hPa 0,0 l/m 1,9 km/h (1 Bft) O-NO 71 2 min 0,000 mm 0,0 UV-I 12 W/m 14,3 C 16,1 C 3,2 km/h (1 Bft) 95,74 %
12.07.2017 05:32 16,0 C 25,0 C 89 % 1012,9 hPa 0,0 l/m 0,6 km/h (0 Bft) O-NO 71 0 min 0,000 mm 0,0 UV-I 12 W/m 14,2 C 16,0 C 1,6 km/h (1 Bft) 96,00 %
12.07.2017 05:34 15,9 C 25,0 C 90 % 1012,9 hPa 0,0 l/m 0,1 km/h (0 Bft) O-NO 71 0 min 0,000 mm 0,0 UV-I 13 W/m 14,3 C 15,9 C 1,6 km/h (1 Bft) 95,74 %
12.07.2017 05:36 15,9 C 25,0 C 91 % 1013,0 hPa 0,0 l/m 0,9 km/h (0 Bft) O-NO 71 0 min 0,000 mm 0,0 UV-I 14 W/m 14,4 C 15,9 C 3,2 km/h (1 Bft) 95,12 %
12.07.2017 05:38 15,9 C 25,0 C 91 % 1012,9 hPa 0,0 l/m 1,7 km/h (1 Bft) O-NO 71 0 min 0,000 mm 0,0 UV-I 14 W/m 14,4 C 15,9 C 3,2 km/h (1 Bft) 93,62 %
12.07.2017 05:40 15,9 C 25,0 C 91 % 1013,0 hPa 0,0 l/m 1,0 km/h (0 Bft) O-NO 71 0 min 0,000 mm 0,0 UV-I 15 W/m 14,4 C 15,9 C 3,2 km/h (1 Bft) 98,11 %
12.07.2017 05:42 15,9 C 25,0 C 91 % 1013,0 hPa 0,0 l/m 0,2 km/h (0 Bft) O-NO 71 0 min 0,000 mm 0,0 UV-I 16 W/m 14,4 C 15,9 C 1,6 km/h (1 Bft) 94,74 %
12.07.2017 05:44 15,8 C 25,0 C 91 % 1012,9 hPa 0,0 l/m 2,0 km/h (1 Bft) O-NO 71 0 min 0,000 mm 0,0 UV-I 18 W/m 14,3 C 15,8 C 4,8 km/h (1 Bft) 98,00 %
12.07.2017 05:46 15,8 C 25,0 C 91 % 1013,0 hPa 0,0 l/m 2,4 km/h (1 Bft) O-NO 71 0 min 0,000 mm 0,0 UV-I 23 W/m 14,3 C 15,8 C 3,2 km/h (1 Bft) 96,00 %
12.07.2017 05:48 15,8 C 25,0 C 91 % 1012,9 hPa 0,0 l/m 1,3 km/h (1 Bft) O-NO 71 2 min 0,000 mm 0,0 UV-I 43 W/m 14,3 C 15,8 C 3,2 km/h (1 Bft) 95,74 %
12.07.2017 05:50 15,8 C 25,0 C 91 % 1012,9 hPa 0,0 l/m 1,4 km/h (1 Bft) O-NO 71 2 min 0,000 mm 0,0 UV-I 50 W/m 14,3 C 15,8 C 3,2 km/h (1 Bft) 95,74 %
12.07.2017 05:52 15,7 C 25,0 C 91 % 1012,9 hPa 0,0 l/m 0,8 km/h (0 Bft) O-NO 71 2 min 0,000 mm 0,0 UV-I 53 W/m 14,2 C 15,7 C 4,8 km/h (1 Bft) 97,62 %
12.07.2017 05:54 15,7 C 25,0 C 91 % 1012,8 hPa 0,0 l/m 0,1 km/h (0 Bft) O-NO 71 2 min 0,000 mm 0,0 UV-I 53 W/m 14,2 C 15,7 C 1,6 km/h (1 Bft) 96,00 %
12.07.2017 05:56 15,7 C 25,0 C 91 % 1012,8 hPa 0,0 l/m 2,6 km/h (1 Bft) O-NO 71 2 min 0,000 mm 0,0 UV-I 57 W/m 14,2 C 15,7 C 4,8 km/h (1 Bft) 98,00 %
12.07.2017 05:58 15,8 C 25,0 C 92 % 1012,8 hPa 0,0 l/m 1,7 km/h (1 Bft) O-NO 71 2 min 0,000 mm 0,0 UV-I 62 W/m 14,5 C 15,8 C 3,2 km/h (1 Bft) 93,62 %
12.07.2017 06:00 15,8 C 25,0 C 92 % 1012,8 hPa 0,0 l/m 0,4 km/h (0 Bft) O-NO 71 2 min 0,025 mm 0,0 UV-I 65 W/m 14,5 C 15,8 C 1,6 km/h (1 Bft) 95,74 %
12.07.2017 06:02 15,8 C 25,0 C 91 % 1012,7 hPa 0,0 l/m 1,0 km/h (0 Bft) O-NO 71 2 min 0,000 mm 0,0 UV-I 67 W/m 14,3 C 15,8 C 1,6 km/h (1 Bft) 97,22 %
12.07.2017 06:04 15,8 C 25,0 C 91 % 1012,7 hPa 0,0 l/m 0,0 km/h (0 Bft) O-NO 71 2 min 0,000 mm 0,0 UV-I 69 W/m 14,3 C 15,8 C 0,0 km/h (0 Bft) 98,00 %
12.07.2017 06:06 15,8 C 25,0 C 92 % 1012,7 hPa 0,0 l/m 0,0 km/h (0 Bft) O-NO 71 2 min 0,000 mm 0,0 UV-I 72 W/m 14,5 C 15,8 C 0,0 km/h (0 Bft) 100,00 %
12.07.2017 06:08 15,9 C 25,0 C 92 % 1012,8 hPa 0,0 l/m 0,0 km/h (0 Bft) O-NO 71 2 min 0,000 mm 0,0 UV-I 77 W/m 14,6 C 15,9 C 1,6 km/h (1 Bft) 96,00 %
12.07.2017 06:10 16,0 C 25,0 C 92 % 1012,8 hPa 0,0 l/m 0,6 km/h (0 Bft) O-NO 71 2 min 0,000 mm 0,0 UV-I 79 W/m 14,7 C 16,0 C 3,2 km/h (1 Bft) 100,00 %
12.07.2017 06:12 16,1 C 25,0 C 92 % 1012,7 hPa 0,0 l/m 1,5 km/h (1 Bft) O-NO 71 2 min 0,000 mm 0,0 UV-I 83 W/m 14,8 C 16,1 C 3,2 km/h (1 Bft) 98,00 %
12.07.2017 06:14 16,2 C 25,0 C 91 % 1012,7 hPa 0,0 l/m 1,0 km/h (0 Bft) O 97 2 min 0,000 mm 0,0 UV-I 88 W/m 14,7 C 16,2 C 4,8 km/h (1 Bft) 95,74 %
12.07.2017 06:16 16,3 C 25,0 C 91 % 1012,7 hPa 0,0 l/m 2,3 km/h (1 Bft) O-SO 109 2 min 0,000 mm 0,0 UV-I 92 W/m 14,8 C 16,3 C 4,8 km/h (1 Bft) 100,00 %
12.07.2017 06:18 16,4 C 25,0 C 91 % 1012,7 hPa 0,0 l/m 2,5 km/h (1 Bft) SO 133 2 min 0,000 mm 0,0 UV-I 97 W/m 14,9 C 16,4 C 6,4 km/h (2 Bft) 98,00 %
12.07.2017 06:20 16,4 C 25,0 C 91 % 1012,7 hPa 0,0 l/m 2,7 km/h (1 Bft) SO 134 2 min 0,000 mm 0,0 UV-I 103 W/m 14,9 C 16,4 C 4,8 km/h (1 Bft) 98,00 %
12.07.2017 06:22 16,6 C 25,0 C 91 % 1012,7 hPa 0,0 l/m 1,4 km/h (1 Bft) SO 134 2 min 0,000 mm 0,0 UV-I 105 W/m 15,1 C 16,6 C 3,2 km/h (1 Bft) 97,73 %
12.07.2017 06:24 16,7 C 25,0 C 91 % 1012,7 hPa 0,0 l/m 0,8 km/h (0 Bft) SO 134 2 min 0,000 mm 0,0 UV-I 90 W/m 15,2 C 16,7 C 3,2 km/h (1 Bft) 97,87 %
12.07.2017 06:26 16,7 C 25,0 C 91 % 1012,7 hPa 0,0 l/m 0,4 km/h (0 Bft) SO 134 0 min 0,000 mm 0,0 UV-I 58 W/m 15,2 C 16,7 C 3,2 km/h (1 Bft) 95,12 %
12.07.2017 06:28 16,8 C 25,0 C 90 % 1012,7 hPa 0,0 l/m 0,0 km/h (0 Bft) SO 134 0 min 0,000 mm 0,0 UV-I 45 W/m 15,1 C 16,8 C 1,6 km/h (1 Bft) 91,49 %
12.07.2017 06:30 16,9 C 25,0 C 90 % 1012,7 hPa 0,0 l/m 1,0 km/h (0 Bft) SO 134 0 min 0,000 mm 0,0 UV-I 46 W/m 15,2 C 16,9 C 1,6 km/h (1 Bft) 94,00 %
12.07.2017 06:32 17,1 C 25,0 C 90 % 1012,6 hPa 0,0 l/m 3,0 km/h (1 Bft) SO 134 0 min 0,000 mm 0,0 UV-I 47 W/m 15,4 C 17,1 C 4,8 km/h (1 Bft) 97,87 %
12.07.2017 06:34 17,1 C 25,0 C 89 % 1012,6 hPa 0,0 l/m 2,0 km/h (1 Bft) SO 134 0 min 0,000 mm 0,0 UV-I 55 W/m 15,3 C 17,1 C 4,8 km/h (1 Bft) 95,45 %
12.07.2017 06:36 17,2 C 25,0 C 89 % 1012,6 hPa 0,0 l/m 1,7 km/h (1 Bft) SO 134 2 min 0,000 mm 0,0 UV-I 127 W/m 15,4 C 17,2 C 4,8 km/h (1 Bft) 95,74 %
12.07.2017 06:38 17,3 C 25,0 C 89 % 1012,7 hPa 0,0 l/m 2,7 km/h (1 Bft) O-SO 121 2 min 0,000 mm 0,0 UV-I 149 W/m 15,5 C 17,3 C 4,8 km/h (1 Bft) 98,00 %
12.07.2017 06:40 17,3 C 25,0 C 88 % 1012,7 hPa 0,0 l/m 3,4 km/h (1 Bft) SO 128 2 min 0,000 mm 0,0 UV-I 153 W/m 15,3 C 17,3 C 4,8 km/h (1 Bft) 96,00 %
12.07.2017 06:42 17,4 C 25,0 C 88 % 1012,7 hPa 0,0 l/m 2,0 km/h (1 Bft) SO 144 2 min 0,000 mm 0,0 UV-I 156 W/m 15,4 C 17,4 C 6,4 km/h (2 Bft) 93,62 %
12.07.2017 06:44 17,5 C 25,0 C 87 % 1012,7 hPa 0,0 l/m 1,5 km/h (1 Bft) SO 144 2 min 0,000 mm 0,0 UV-I 159 W/m 15,3 C 17,5 C 4,8 km/h (1 Bft) 95,83 %
12.07.2017 06:46 17,6 C 25,0 C 87 % 1012,7 hPa 0,0 l/m 2,3 km/h (1 Bft) S-SO 149 2 min 0,000 mm 0,0 UV-I 166 W/m 15,4 C 17,6 C 4,8 km/h (1 Bft) 97,14 %
12.07.2017 06:48 17,6 C 25,0 C 87 % 1012,7 hPa 0,0 l/m 1,3 km/h (1 Bft) S-SO 149 2 min 0,000 mm 0,0 UV-I 165 W/m 15,4 C 17,6 C 4,8 km/h (1 Bft) 96,23 %
12.07.2017 06:50 17,7 C 25,0 C 87 % 1012,7 hPa 0,0 l/m 0,4 km/h (0 Bft) S-SO 149 2 min 0,000 mm 0,0 UV-I 181 W/m 15,5 C 17,7 C 1,6 km/h (1 Bft) 98,11 %
12.07.2017 06:52 17,8 C 25,0 C 86 % 1012,7 hPa 0,0 l/m 0,7 km/h (0 Bft) S-SO 149 2 min 0,000 mm 0,0 UV-I 187 W/m 15,4 C 17,8 C 3,2 km/h (1 Bft) 90,24 %
12.07.2017 06:54 17,8 C 25,0 C 86 % 1012,7 hPa 0,0 l/m 2,1 km/h (1 Bft) S-SO 149 2 min 0,000 mm 0,0 UV-I 198 W/m 15,4 C 17,8 C 4,8 km/h (1 Bft) 96,23 %
12.07.2017 06:56 17,9 C 25,0 C 86 % 1012,7 hPa 0,0 l/m 0,6 km/h (0 Bft) S-SO 149 2 min 0,000 mm 0,0 UV-I 215 W/m 15,5 C 17,9 C 3,2 km/h (1 Bft) 95,74 %
12.07.2017 06:58 18,1 C 25,0 C 85 % 1012,7 hPa 0,0 l/m 1,6 km/h (1 Bft) S-SO 149 2 min 0,000 mm 0,0 UV-I 241 W/m 15,5 C 18,1 C 3,2 km/h (1 Bft) 97,37 %
12.07.2017 07:00 18,2 C 25,0 C 85 % 1012,7 hPa 0,0 l/m 1,1 km/h (1 Bft) S-SO 149 2 min 0,076 mm 0,0 UV-I 271 W/m 15,6 C 18,2 C 3,2 km/h (1 Bft) 98,00 %
12.07.2017 07:02 18,3 C 25,0 C 84 % 1012,6 hPa 0,0 l/m 1,0 km/h (0 Bft) S-SO 149 2 min 0,000 mm 0,0 UV-I 293 W/m 15,5 C 18,3 C 3,2 km/h (1 Bft) 92,45 %
12.07.2017 07:04 18,7 C 25,0 C 84 % 1012,6 hPa 0,0 l/m 0,5 km/h (0 Bft) S-SO 149 2 min 0,000 mm 0,0 UV-I 306 W/m 15,9 C 18,7 C 1,6 km/h (1 Bft) 95,12 %
12.07.2017 07:06 18,7 C 25,0 C 82 % 1012,6 hPa 0,0 l/m 1,9 km/h (1 Bft) S-SO 149 2 min 0,000 mm 0,0 UV-I 310 W/m 15,6 C 18,7 C 3,2 km/h (1 Bft) 90,57 %
12.07.2017 07:08 18,9 C 25,0 C 84 % 1012,6 hPa 0,0 l/m 0,9 km/h (0 Bft) S-SO 149 2 min 0,000 mm 0,0 UV-I 308 W/m 16,1 C 18,9 C 3,2 km/h (1 Bft) 94,29 %
12.07.2017 07:10 19,2 C 25,0 C 82 % 1012,6 hPa 0,0 l/m 1,5 km/h (1 Bft) S-SO 148 2 min 0,000 mm 0,0 UV-I 295 W/m 16,0 C 19,2 C 4,8 km/h (1 Bft) 94,64 %
12.07.2017 07:12 19,3 C 25,0 C 81 % 1012,5 hPa 0,0 l/m 3,5 km/h (1 Bft) SO 124 2 min 0,000 mm 0,0 UV-I 212 W/m 16,0 C 19,3 C 8,0 km/h (2 Bft) 91,49 %
12.07.2017 07:14 19,3 C 25,0 C 79 % 1012,5 hPa 0,0 l/m 6,0 km/h (2 Bft) O-SO 121 2 min 0,000 mm 0,0 UV-I 177 W/m 15,6 C 19,3 C 11,3 km/h (2 Bft) 90,24 %
12.07.2017 07:16 19,3 C 25,0 C 80 % 1012,5 hPa 0,0 l/m 2,9 km/h (1 Bft) O-SO 121 2 min 0,000 mm 0,0 UV-I 167 W/m 15,8 C 19,3 C 6,4 km/h (2 Bft) 95,74 %
12.07.2017 07:18 19,4 C 25,0 C 80 % 1012,5 hPa 0,0 l/m 3,0 km/h (1 Bft) O-SO 122 2 min 0,000 mm 0,5 UV-I 278 W/m 15,9 C 19,4 C 6,4 km/h (2 Bft) 88,00 %
12.07.2017 07:20 19,5 C 25,0 C 80 % 1012,5 hPa 0,0 l/m 3,5 km/h (1 Bft) SO 128 2 min 0,000 mm 0,4 UV-I 336 W/m 16,0 C 19,5 C 4,8 km/h (1 Bft) 95,74 %
12.07.2017 07:22 19,6 C 25,0 C 80 % 1012,5 hPa 0,0 l/m 4,3 km/h (1 Bft) SO 126 2 min 0,000 mm 0,4 UV-I 334 W/m 16,1 C 19,6 C 8,0 km/h (2 Bft) 89,74 %
12.07.2017 07:24 19,6 C 25,0 C 79 % 1012,5 hPa 0,0 l/m 4,0 km/h (1 Bft) SO 134 2 min 0,000 mm 0,0 UV-I 230 W/m 15,9 C 19,6 C 6,4 km/h (2 Bft) 97,73 %
12.07.2017 07:26 19,6 C 25,0 C 79 % 1012,5 hPa 0,0 l/m 2,3 km/h (1 Bft) SO 134 0 min 0,000 mm 0,5 UV-I 149 W/m 15,9 C 19,6 C 4,8 km/h (1 Bft) 92,45 %
12.07.2017 07:28 19,4 C 25,0 C 80 % 1012,5 hPa 0,0 l/m 2,8 km/h (1 Bft) SO 136 0 min 0,000 mm 0,5 UV-I 150 W/m 15,9 C 19,4 C 4,8 km/h (1 Bft) 96,23 %
12.07.2017 07:30 19,4 C 25,0 C 80 % 1012,5 hPa 0,0 l/m 2,7 km/h (1 Bft) SO 136 0 min 0,000 mm 0,6 UV-I 160 W/m 15,9 C 19,4 C 4,8 km/h (1 Bft) 97,87 %
12.07.2017 07:32 19,3 C 25,0 C 80 % 1012,5 hPa 0,0 l/m 3,1 km/h (1 Bft) SO 137 0 min 0,000 mm 0,6 UV-I 181 W/m 15,8 C 19,3 C 4,8 km/h (1 Bft) 98,00 %
12.07.2017 07:34 19,3 C 25,0 C 80 % 1012,5 hPa 0,0 l/m 3,1 km/h (1 Bft) SO 137 0 min 0,000 mm 0,6 UV-I 157 W/m 15,8 C 19,3 C 4,8 km/h (1 Bft) 89,47 %
12.07.2017 07:36 19,4 C 25,0 C 80 % 1012,5 hPa 0,0 l/m 3,0 km/h (1 Bft) SO 137 2 min 0,000 mm 0,6 UV-I 206 W/m 15,9 C 19,4 C 4,8 km/h (1 Bft) 93,62 %
12.07.2017 07:38 19,5 C 25,0 C 81 % 1012,5 hPa 0,0 l/m 2,6 km/h (1 Bft) SO 137 2 min 0,000 mm 0,7 UV-I 367 W/m 16,1 C 19,5 C 4,8 km/h (1 Bft) 91,07 %
12.07.2017 07:40 19,6 C 25,0 C 80 % 1012,5 hPa 0,0 l/m 3,2 km/h (1 Bft) SO 138 2 min 0,000 mm 0,7 UV-I 366 W/m 16,1 C 19,6 C 4,8 km/h (1 Bft) 95,12 %
12.07.2017 07:42 19,6 C 25,0 C 79 % 1012,5 hPa 0,0 l/m 4,1 km/h (1 Bft) SO 133 0 min 0,000 mm 0,7 UV-I 157 W/m 15,9 C 19,6 C 8,0 km/h (2 Bft) 91,49 %
12.07.2017 07:44 19,6 C 25,0 C 79 % 1012,5 hPa 0,0 l/m 4,4 km/h (1 Bft) SO 133 0 min 0,000 mm 0,7 UV-I 163 W/m 15,9 C 19,6 C 6,4 km/h (2 Bft) 95,12 %
12.07.2017 07:46 19,6 C 25,0 C 79 % 1012,5 hPa 0,0 l/m 4,1 km/h (1 Bft) SO 133 0 min 0,000 mm 0,7 UV-I 122 W/m 15,9 C 19,6 C 4,8 km/h (1 Bft) 95,74 %
12.07.2017 07:48 19,5 C 25,0 C 79 % 1012,5 hPa 0,0 l/m 4,1 km/h (1 Bft) SO 133 0 min 0,000 mm 0,7 UV-I 125 W/m 15,8 C 19,5 C 4,8 km/h (1 Bft) 93,62 %
12.07.2017 07:50 19,5 C 25,0 C 81 % 1012,5 hPa 0,0 l/m 2,8 km/h (1 Bft) SO 133 0 min 0,000 mm 0,8 UV-I 178 W/m 16,1 C 19,5 C 3,2 km/h (1 Bft) 98,21 %
12.07.2017 07:52 19,6 C 25,0 C 80 % 1012,4 hPa 0,0 l/m 1,3 km/h (1 Bft) SO 133 0 min 0,000 mm 0,8 UV-I 125 W/m 16,1 C 19,6 C 4,8 km/h (1 Bft) 94,74 %
12.07.2017 07:54 19,7 C 25,0 C 80 % 1012,4 hPa 0,0 l/m 1,9 km/h (1 Bft) SO 133 2 min 0,000 mm 1,0 UV-I 370 W/m 16,1 C 19,7 C 3,2 km/h (1 Bft) 100,00 %
12.07.2017 07:56 19,9 C 25,0 C 79 % 1012,4 hPa 0,0 l/m 2,4 km/h (1 Bft) SO 133 2 min 0,000 mm 1,0 UV-I 373 W/m 16,1 C 19,9 C 4,8 km/h (1 Bft) 98,00 %
12.07.2017 07:58 20,2 C 25,0 C 79 % 1012,4 hPa 0,0 l/m 1,2 km/h (1 Bft) SO 133 2 min 0,000 mm 1,0 UV-I 387 W/m 16,4 C 20,2 C 3,2 km/h (1 Bft) 94,87 %
12.07.2017 08:00 20,3 C 25,0 C 78 % 1012,4 hPa 0,0 l/m 1,3 km/h (1 Bft) SO 133 2 min 0,153 mm 1,0 UV-I 388 W/m 16,3 C 20,3 C 3,2 km/h (1 Bft) 98,28 %
12.07.2017 08:02 20,3 C 25,0 C 77 % 1012,4 hPa 0,0 l/m 1,7 km/h (1 Bft) SO 133 2 min 0,000 mm 1,1 UV-I 392 W/m 16,1 C 20,3 C 3,2 km/h (1 Bft) 93,62 %
12.07.2017 08:04 20,4 C 25,0 C 77 % 1012,4 hPa 0,0 l/m 0,6 km/h (0 Bft) SO 133 2 min 0,000 mm 1,1 UV-I 380 W/m 16,2 C 20,4 C 3,2 km/h (1 Bft) 97,62 %
12.07.2017 08:06 20,4 C 25,0 C 75 % 1012,4 hPa 0,0 l/m 0,4 km/h (0 Bft) SO 133 2 min 0,000 mm 1,1 UV-I 393 W/m 15,8 C 20,4 C 4,8 km/h (1 Bft) 95,74 %
12.07.2017 08:08 20,6 C 25,0 C 77 % 1012,5 hPa 0,0 l/m 2,4 km/h (1 Bft) SO 130 2 min 0,000 mm 1,2 UV-I 405 W/m 16,4 C 20,6 C 4,8 km/h (1 Bft) 96,23 %
12.07.2017 08:10 20,7 C 25,0 C 76 % 1012,5 hPa 0,0 l/m 1,4 km/h (1 Bft) SO 130 2 min 0,000 mm 1,2 UV-I 416 W/m 16,3 C 20,7 C 4,8 km/h (1 Bft) 97,87 %
12.07.2017 08:12 20,7 C 25,0 C 76 % 1012,5 hPa 0,0 l/m 0,0 km/h (0 Bft) SO 130 2 min 0,000 mm 1,3 UV-I 430 W/m 16,3 C 20,7 C 1,6 km/h (1 Bft) 97,14 %
12.07.2017 08:14 20,7 C 25,0 C 75 % 1012,5 hPa 0,0 l/m 2,1 km/h (1 Bft) SO 130 2 min 0,000 mm 1,3 UV-I 445 W/m 16,1 C 20,7 C 4,8 km/h (1 Bft) 100,00 %
12.07.2017 08:16 20,6 C 25,0 C 75 % 1012,4 hPa 0,0 l/m 2,6 km/h (1 Bft) SO 130 2 min 0,000 mm 1,4 UV-I 464 W/m 16,0 C 20,6 C 4,8 km/h (1 Bft) 97,87 %
12.07.2017 08:18 20,6 C 25,0 C 75 % 1012,4 hPa 0,0 l/m 0,4 km/h (0 Bft) SO 130 2 min 0,000 mm 1,4 UV-I 483 W/m 16,0 C 20,6 C 1,6 km/h (1 Bft) 98,00 %
12.07.2017 08:20 20,7 C 25,0 C 76 % 1012,3 hPa 0,0 l/m 0,4 km/h (0 Bft) SO 130 2 min 0,000 mm 1,5 UV-I 508 W/m 16,3 C 20,7 C 1,6 km/h (1 Bft) 100,00 %
12.07.2017 08:22 20,9 C 25,0 C 76 % 1012,3 hPa 0,0 l/m 2,6 km/h (1 Bft) O-SO 109 2 min 0,000 mm 1,6 UV-I 534 W/m 16,5 C 20,9 C 6,4 km/h (2 Bft) 100,00 %
12.07.2017 08:24 21,2 C 25,0 C 76 % 1012,3 hPa 0,0 l/m 1,8 km/h (1 Bft) O-SO 109 2 min 0,000 mm 1,6 UV-I 557 W/m 16,8 C 21,2 C 3,2 km/h (1 Bft) 98,11 %
12.07.2017 08:26 21,4 C 25,0 C 73 % 1012,2 hPa 0,0 l/m 3,3 km/h (1 Bft) O-SO 109 2 min 0,000 mm 1,6 UV-I 568 W/m 16,4 C 21,4 C 4,8 km/h (1 Bft) 100,00 %
12.07.2017 08:28 21,4 C 25,0 C 71 % 1012,2 hPa 0,0 l/m 2,0 km/h (1 Bft) O-SO 111 2 min 0,000 mm 1,7 UV-I 597 W/m 15,9 C 21,4 C 6,4 km/h (2 Bft) 95,74 %
12.07.2017 08:30 21,4 C 25,0 C 70 % 1012,1 hPa 0,0 l/m 1,4 km/h (1 Bft) O-SO 111 2 min 0,000 mm 1,8 UV-I 544 W/m 15,7 C 21,4 C 4,8 km/h (1 Bft) 100,00 %
12.07.2017 08:32 21,6 C 25,0 C 71 % 1012,2 hPa 0,0 l/m 2,1 km/h (1 Bft) O-SO 123 2 min 0,000 mm 1,8 UV-I 461 W/m 16,1 C 21,6 C 9,7 km/h (2 Bft) 96,00 %
12.07.2017 08:34 21,8 C 25,0 C 71 % 1012,2 hPa 0,0 l/m 4,1 km/h (1 Bft) SO 127 2 min 0,000 mm 1,7 UV-I 446 W/m 16,3 C 21,8 C 11,3 km/h (2 Bft) 98,00 %
12.07.2017 08:36 21,6 C 25,0 C 68 % 1012,2 hPa 0,0 l/m 2,9 km/h (1 Bft) O-SO 114 2 min 0,000 mm 1,7 UV-I 442 W/m 15,4 C 21,6 C 6,4 km/h (2 Bft) 97,56 %
12.07.2017 08:38 21,7 C 25,0 C 71 % 1012,2 hPa 0,0 l/m 4,0 km/h (1 Bft) SO 141 2 min 0,000 mm 1,7 UV-I 418 W/m 16,2 C 21,7 C 9,7 km/h (2 Bft) 96,15 %
12.07.2017 08:40 21,7 C 25,0 C 69 % 1012,1 hPa 0,0 l/m 3,2 km/h (1 Bft) S 180 2 min 0,000 mm 1,8 UV-I 423 W/m 15,8 C 21,7 C 8,0 km/h (2 Bft) 97,44 %
12.07.2017 08:42 21,8 C 25,0 C 70 % 1012,1 hPa 0,0 l/m 2,8 km/h (1 Bft) SO 146 2 min 0,000 mm 1,7 UV-I 463 W/m 16,1 C 21,8 C 4,8 km/h (1 Bft) 98,00 %
12.07.2017 08:44 21,8 C 25,0 C 69 % 1012,1 hPa 0,0 l/m 7,5 km/h (2 Bft) O 92 2 min 0,000 mm 1,6 UV-I 359 W/m 15,9 C 21,4 C 12,9 km/h (3 Bft) 92,11 %
12.07.2017 08:46 21,7 C 25,0 C 68 % 1012,0 hPa 0,0 l/m 9,3 km/h (2 Bft) O-NO 75 0 min 0,000 mm 1,4 UV-I 282 W/m 15,5 C 20,7 C 12,9 km/h (3 Bft) 96,36 %
12.07.2017 08:48 21,6 C 25,0 C 68 % 1012,0 hPa 0,0 l/m 5,0 km/h (1 Bft) O 79 0 min 0,000 mm 1,4 UV-I 245 W/m 15,4 C 21,6 C 8,0 km/h (2 Bft) 98,00 %
12.07.2017 08:50 21,4 C 25,0 C 69 % 1012,0 hPa 0,0 l/m 4,9 km/h (1 Bft) O-NO 63 0 min 0,000 mm 1,4 UV-I 236 W/m 15,5 C 21,4 C 8,0 km/h (2 Bft) 92,00 %
12.07.2017 08:52 21,4 C 25,0 C 69 % 1012,0 hPa 0,0 l/m 3,5 km/h (1 Bft) O-NO 64 0 min 0,000 mm 1,6 UV-I 281 W/m 15,5 C 21,4 C 4,8 km/h (1 Bft) 95,45 %
12.07.2017 08:54 21,5 C 25,0 C 70 % 1012,0 hPa 0,0 l/m 7,4 km/h (2 Bft) O-SO 103 2 min 0,000 mm 1,8 UV-I 303 W/m 15,8 C 21,1 C 12,9 km/h (3 Bft) 100,00 %
12.07.2017 08:56 21,7 C 25,0 C 69 % 1012,0 hPa 0,0 l/m 7,0 km/h (2 Bft) O-SO 108 2 min 0,000 mm 1,9 UV-I 321 W/m 15,8 C 21,5 C 11,3 km/h (2 Bft) 94,29 %
12.07.2017 08:58 21,9 C 25,0 C 68 % 1012,0 hPa 0,0 l/m 4,5 km/h (1 Bft) S-SO 148 2 min 0,000 mm 2,2 UV-I 500 W/m 15,7 C 21,9 C 8,0 km/h (2 Bft) 98,11 %
12.07.2017 09:00 22,0 C 25,0 C 69 % 1012,0 hPa 0,0 l/m 2,3 km/h (1 Bft) S-SO 149 2 min 0,279 mm 2,2 UV-I 639 W/m 16,0 C 22,0 C 4,8 km/h (1 Bft) 98,31 %
12.07.2017 09:02 22,2 C 25,0 C 68 % 1011,9 hPa 0,0 l/m 0,6 km/h (0 Bft) S-SO 149 2 min 0,000 mm 2,0 UV-I 613 W/m 16,0 C 22,2 C 1,6 km/h (1 Bft) 98,00 %
12.07.2017 09:04 22,3 C 25,0 C 68 % 1011,9 hPa 0,0 l/m 3,5 km/h (1 Bft) O-SO 110 2 min 0,000 mm 2,3 UV-I 616 W/m 16,1 C 22,3 C 6,4 km/h (2 Bft) 97,73 %
12.07.2017 09:06 22,6 C 25,0 C 67 % 1011,9 hPa 0,0 l/m 5,2 km/h (1 Bft) NO 38 2 min 0,000 mm 2,1 UV-I 636 W/m 16,2 C 22,6 C 8,0 km/h (2 Bft) 96,00 %
12.07.2017 09:08 22,7 C 25,0 C 66 % 1011,9 hPa 0,0 l/m 3,7 km/h (1 Bft) O-SO 118 2 min 0,000 mm 2,1 UV-I 636 W/m 16,0 C 22,7 C 9,7 km/h (2 Bft) 95,74 %
12.07.2017 09:10 22,6 C 25,0 C 67 % 1011,9 hPa 0,0 l/m 3,4 km/h (1 Bft) O 100 2 min 0,000 mm 2,5 UV-I 668 W/m 16,2 C 22,6 C 6,4 km/h (2 Bft) 93,62 %
12.07.2017 09:12 22,7 C 25,0 C 65 % 1011,9 hPa 0,0 l/m 4,2 km/h (1 Bft) SO 126 2 min 0,000 mm 2,5 UV-I 698 W/m 15,8 C 22,7 C 6,4 km/h (2 Bft) 95,12 %
12.07.2017 09:14 22,6 C 25,0 C 63 % 1011,8 hPa 0,0 l/m 1,1 km/h (1 Bft) SO 126 2 min 0,000 mm 2,1 UV-I 351 W/m 15,2 C 22,6 C 4,8 km/h (1 Bft) 98,11 %
12.07.2017 09:16 22,5 C 25,0 C 65 % 1011,8 hPa 0,0 l/m 0,9 km/h (0 Bft) O-SO 113 2 min 0,000 mm 2,3 UV-I 531 W/m 15,6 C 22,5 C 4,8 km/h (1 Bft) 92,59 %
12.07.2017 09:18 22,6 C 25,0 C 66 % 1011,8 hPa 0,0 l/m 3,6 km/h (1 Bft) O 97 2 min 0,000 mm 2,7 UV-I 533 W/m 15,9 C 22,6 C 6,4 km/h (2 Bft) 93,75 %
12.07.2017 09:20 22,7 C 25,6 C 65 % 1011,8 hPa 0,0 l/m 1,8 km/h (1 Bft) O 97 2 min 0,000 mm 3,1 UV-I 801 W/m 15,8 C 22,7 C 3,2 km/h (1 Bft) 97,44 %
12.07.2017 09:22 22,9 C 25,0 C 64 % 1011,8 hPa 0,0 l/m 2,8 km/h (1 Bft) O-NO 69 2 min 0,000 mm 2,9 UV-I 831 W/m 15,7 C 22,9 C 4,8 km/h (1 Bft) 94,64 %
12.07.2017 09:24 22,9 C 25,0 C 62 % 1011,8 hPa 0,0 l/m 2,8 km/h (1 Bft) SO 126 2 min 0,000 mm 2,2 UV-I 532 W/m 15,2 C 22,9 C 4,8 km/h (1 Bft) 97,87 %
12.07.2017 09:26 22,7 C 25,0 C 62 % 1011,8 hPa 0,0 l/m 4,3 km/h (1 Bft) SO 124 0 min 0,000 mm 1,8 UV-I 306 W/m 15,0 C 22,7 C 6,4 km/h (2 Bft) 97,56 %
12.07.2017 09:28 22,5 C 25,0 C 63 % 1011,8 hPa 0,0 l/m 1,9 km/h (1 Bft) SO 127 0 min 0,000 mm 1,7 UV-I 272 W/m 15,1 C 22,5 C 4,8 km/h (1 Bft) 98,11 %
12.07.2017 09:30 22,4 C 25,0 C 64 % 1011,8 hPa 0,0 l/m 2,4 km/h (1 Bft) W-SW 257 0 min 0,000 mm 1,6 UV-I 226 W/m 15,2 C 22,4 C 6,4 km/h (2 Bft) 95,45 %
12.07.2017 09:32 22,3 C 25,0 C 63 % 1011,8 hPa 0,0 l/m 3,3 km/h (1 Bft) W-SW 242 0 min 0,000 mm 1,6 UV-I 214 W/m 14,9 C 22,3 C 8,0 km/h (2 Bft) 98,00 %
12.07.2017 09:34 22,3 C 25,0 C 64 % 1011,7 hPa 0,0 l/m 0,9 km/h (0 Bft) W-SW 242 0 min 0,000 mm 1,8 UV-I 248 W/m 15,2 C 22,3 C 3,2 km/h (1 Bft) 95,12 %
12.07.2017 09:36 22,3 C 25,0 C 63 % 1011,7 hPa 0,0 l/m 1,1 km/h (1 Bft) W-SW 242 0 min 0,000 mm 2,1 UV-I 297 W/m 14,9 C 22,3 C 1,6 km/h (1 Bft) 96,00 %
12.07.2017 09:38 22,3 C 25,0 C 63 % 1011,7 hPa 0,0 l/m 0,1 km/h (0 Bft) W-SW 242 2 min 0,000 mm 2,3 UV-I 380 W/m 14,9 C 22,3 C 1,6 km/h (1 Bft) 96,00 %
12.07.2017 09:40 22,4 C 25,0 C 64 % 1011,6 hPa 0,0 l/m 0,1 km/h (0 Bft) W-SW 242 0 min 0,000 mm 2,2 UV-I 352 W/m 15,2 C 22,4 C 1,6 km/h (1 Bft) 100,00 %
12.07.2017 09:42 22,7 C 25,0 C 65 % 1011,6 hPa 0,0 l/m 1,9 km/h (1 Bft) W-SW 248 2 min 0,000 mm 2,3 UV-I 367 W/m 15,8 C 22,7 C 4,8 km/h (1 Bft) 98,00 %
12.07.2017 09:44 22,9 C 25,0 C 63 % 1011,5 hPa 0,0 l/m 2,0 km/h (1 Bft) NW 320 2 min 0,000 mm 2,5 UV-I 384 W/m 15,5 C 22,9 C 3,2 km/h (1 Bft) 98,00 %
12.07.2017 09:46 23,1 C 25,6 C 63 % 1011,5 hPa 0,0 l/m 2,1 km/h (1 Bft) O-SO 119 2 min 0,000 mm 3,1 UV-I 446 W/m 15,7 C 23,1 C 6,4 km/h (2 Bft) 100,00 %
12.07.2017 09:48 23,2 C 25,6 C 62 % 1011,5 hPa 0,0 l/m 3,9 km/h (1 Bft) O 95 2 min 0,000 mm 3,6 UV-I 698 W/m 15,5 C 23,2 C 6,4 km/h (2 Bft) 100,00 %
12.07.2017 09:50 23,5 C 25,6 C 60 % 1011,5 hPa 0,0 l/m 3,5 km/h (1 Bft) S 180 2 min 0,000 mm 3,8 UV-I 808 W/m 15,3 C 23,5 C 6,4 km/h (2 Bft) 100,00 %
12.07.2017 09:52 23,6 C 25,6 C 62 % 1011,5 hPa 0,0 l/m 3,7 km/h (1 Bft) S-SW 198 2 min 0,000 mm 4,0 UV-I 877 W/m 15,9 C 23,6 C 8,0 km/h (2 Bft) 100,00 %
12.07.2017 09:54 23,6 C 25,0 C 60 % 1011,5 hPa 0,0 l/m 2,1 km/h (1 Bft) S 187 2 min 0,000 mm 3,2 UV-I 921 W/m 15,4 C 23,6 C 6,4 km/h (2 Bft) 97,87 %
12.07.2017 09:56 23,6 C 25,0 C 61 % 1011,5 hPa 0,0 l/m 4,0 km/h (1 Bft) SW 216 2 min 0,000 mm 2,9 UV-I 476 W/m 15,6 C 23,6 C 6,4 km/h (2 Bft) 100,00 %
12.07.2017 09:58 23,6 C 25,0 C 59 % 1011,5 hPa 0,0 l/m 0,7 km/h (0 Bft) SW 216 2 min 0,000 mm 3,2 UV-I 494 W/m 15,1 C 23,6 C 3,2 km/h (1 Bft) 100,00 %
12.07.2017 10:00 23,4 C 25,0 C 59 % 1011,4 hPa 0,0 l/m 0,4 km/h (0 Bft) SW 216 2 min 0,000 mm 2,9 UV-I 478 W/m 14,9 C 23,4 C 3,2 km/h (1 Bft) 97,56 %
12.07.2017 10:02 23,6 C 25,0 C 60 % 1011,4 hPa 0,0 l/m 3,0 km/h (1 Bft) O-NO 61 2 min 0,305 mm 2,8 UV-I 455 W/m 15,4 C 23,6 C 4,8 km/h (1 Bft) 98,11 %
12.07.2017 10:04 23,4 C 25,0 C 59 % 1011,4 hPa 0,0 l/m 2,6 km/h (1 Bft) O-NO 70 2 min 0,000 mm 2,7 UV-I 398 W/m 14,9 C 23,4 C 4,8 km/h (1 Bft) 98,11 %
12.07.2017 10:06 23,4 C 25,6 C 60 % 1011,4 hPa 0,0 l/m 2,8 km/h (1 Bft) O 87 2 min 0,000 mm 3,1 UV-I 496 W/m 15,2 C 23,4 C 6,4 km/h (2 Bft) 94,74 %
12.07.2017 10:08 23,7 C 25,6 C 60 % 1011,3 hPa 0,0 l/m 3,2 km/h (1 Bft) SO 144 2 min 0,000 mm 3,9 UV-I 796 W/m 15,5 C 23,7 C 8,0 km/h (2 Bft) 94,74 %
12.07.2017 10:10 23,9 C 25,6 C 60 % 1011,2 hPa 0,0 l/m 1,9 km/h (1 Bft) SO 144 2 min 0,000 mm 4,3 UV-I 955 W/m 15,7 C 23,9 C 4,8 km/h (1 Bft) 96,92 %
12.07.2017 10:12 24,3 C 25,6 C 58 % 1011,3 hPa 0,0 l/m 0,9 km/h (0 Bft) O-NO 74 2 min 0,000 mm 4,7 UV-I 743 W/m 15,5 C 24,3 C 4,8 km/h (1 Bft) 97,56 %
12.07.2017 10:14 24,6 C 25,6 C 56 % 1011,3 hPa 0,0 l/m 2,5 km/h (1 Bft) N-NO 13 2 min 0,000 mm 4,7 UV-I 747 W/m 15,2 C 24,6 C 4,8 km/h (1 Bft) 94,34 %
12.07.2017 10:16 24,5 C 25,0 C 55 % 1011,3 hPa 0,0 l/m 0,9 km/h (0 Bft) W-SW 254 2 min 0,000 mm 4,3 UV-I 897 W/m 14,9 C 24,5 C 4,8 km/h (1 Bft) 97,37 %
12.07.2017 10:18 24,4 C 25,0 C 55 % 1011,2 hPa 0,0 l/m 4,7 km/h (1 Bft) W 264 2 min 0,000 mm 2,6 UV-I 403 W/m 14,8 C 24,4 C 9,7 km/h (2 Bft) 92,68 %
12.07.2017 10:20 24,3 C 25,0 C 57 % 1011,2 hPa 0,0 l/m 1,6 km/h (1 Bft) W 267 2 min 0,000 mm 2,6 UV-I 399 W/m 15,2 C 24,3 C 4,8 km/h (1 Bft) 96,00 %
12.07.2017 10:22 24,1 C 25,0 C 54 % 1011,2 hPa 0,0 l/m 2,8 km/h (1 Bft) SW 221 0 min 0,000 mm 2,3 UV-I 360 W/m 14,2 C 24,1 C 8,0 km/h (2 Bft) 92,86 %
12.07.2017 10:24 23,9 C 25,0 C 57 % 1011,2 hPa 0,0 l/m 2,8 km/h (1 Bft) W-NW 284 0 min 0,000 mm 2,2 UV-I 331 W/m 14,9 C 23,9 C 9,7 km/h (2 Bft) 95,12 %
12.07.2017 10:26 23,8 C 25,0 C 54 % 1011,2 hPa 0,0 l/m 3,3 km/h (1 Bft) W 275 0 min 0,000 mm 2,1 UV-I 301 W/m 13,9 C 23,8 C 6,4 km/h (2 Bft) 97,87 %
12.07.2017 10:28 23,7 C 25,0 C 55 % 1011,2 hPa 0,0 l/m 4,1 km/h (1 Bft) W-SW 254 0 min 0,000 mm 2,0 UV-I 294 W/m 14,1 C 23,7 C 6,4 km/h (2 Bft) 94,87 %
12.07.2017 10:30 23,6 C 25,0 C 55 % 1011,2 hPa 0,0 l/m 1,1 km/h (1 Bft) W-SW 254 0 min 0,000 mm 2,1 UV-I 307 W/m 14,0 C 23,6 C 1,6 km/h (1 Bft) 94,23 %
12.07.2017 10:32 23,6 C 25,0 C 55 % 1011,2 hPa 0,0 l/m 0,8 km/h (0 Bft) W-SW 254 0 min 0,000 mm 2,3 UV-I 330 W/m 14,0 C 23,6 C 4,8 km/h (1 Bft) 95,74 %
12.07.2017 10:34 23,7 C 25,6 C 57 % 1011,2 hPa 0,0 l/m 3,0 km/h (1 Bft) W 262 0 min 0,000 mm 2,7 UV-I 389 W/m 14,7 C 23,7 C 6,4 km/h (2 Bft) 93,75 %
12.07.2017 10:36 23,8 C 25,6 C 55 % 1011,2 hPa 0,0 l/m 3,1 km/h (1 Bft) W-SW 255 2 min 0,000 mm 3,1 UV-I 476 W/m 14,2 C 23,8 C 6,4 km/h (2 Bft) 98,00 %
12.07.2017 10:38 23,8 C 25,6 C 54 % 1011,2 hPa 0,0 l/m 0,1 km/h (0 Bft) W-SW 255 2 min 0,000 mm 3,1 UV-I 519 W/m 13,9 C 23,8 C 1,6 km/h (1 Bft) 94,23 %
12.07.2017 10:40 23,8 C 25,6 C 55 % 1011,1 hPa 0,0 l/m 1,5 km/h (1 Bft) W 262 0 min 0,000 mm 2,6 UV-I 416 W/m 14,2 C 23,8 C 4,8 km/h (1 Bft) 94,87 %
12.07.2017 10:42 23,9 C 25,6 C 58 % 1011,1 hPa 0,0 l/m 3,1 km/h (1 Bft) W 262 0 min 0,000 mm 2,2 UV-I 332 W/m 15,1 C 23,9 C 4,8 km/h (1 Bft) 94,00 %
12.07.2017 10:44 23,9 C 25,0 C 57 % 1011,1 hPa 0,0 l/m 1,2 km/h (1 Bft) S-SO 167 0 min 0,000 mm 1,8 UV-I 279 W/m 14,9 C 23,9 C 4,8 km/h (1 Bft) 95,12 %
12.07.2017 10:46 23,8 C 25,0 C 55 % 1011,0 hPa 0,0 l/m 1,5 km/h (1 Bft) S-SO 167 0 min 0,000 mm 1,8 UV-I 262 W/m 14,2 C 23,8 C 4,8 km/h (1 Bft) 92,86 %
12.07.2017 10:48 23,7 C 25,0 C 56 % 1011,0 hPa 0,0 l/m 0,5 km/h (0 Bft) S-SO 167 0 min 0,000 mm 1,6 UV-I 247 W/m 14,4 C 23,7 C 1,6 km/h (1 Bft) 93,18 %
12.07.2017 10:50 23,6 C 25,6 C 56 % 1011,0 hPa 0,0 l/m 1,2 km/h (1 Bft) S-SO 167 0 min 0,000 mm 1,5 UV-I 224 W/m 14,3 C 23,6 C 4,8 km/h (1 Bft) 96,00 %
12.07.2017 10:52 23,6 C 25,0 C 57 % 1011,0 hPa 0,0 l/m 2,3 km/h (1 Bft) O-SO 109 0 min 0,000 mm 1,5 UV-I 212 W/m 14,6 C 23,6 C 6,4 km/h (2 Bft) 96,55 %
12.07.2017 10:54 23,6 C 25,6 C 58 % 1011,0 hPa 0,0 l/m 2,1 km/h (1 Bft) O-SO 109 0 min 0,000 mm 1,4 UV-I 205 W/m 14,8 C 23,6 C 4,8 km/h (1 Bft) 98,21 %
12.07.2017 10:56 23,6 C 25,6 C 55 % 1010,9 hPa 0,0 l/m 3,2 km/h (1 Bft) O-SO 106 0 min 0,000 mm 1,4 UV-I 201 W/m 14,0 C 23,6 C 4,8 km/h (1 Bft) 94,34 %
12.07.2017 10:58 23,4 C 25,6 C 56 % 1010,9 hPa 0,0 l/m 1,9 km/h (1 Bft) O-SO 106 0 min 0,000 mm 1,5 UV-I 209 W/m 14,1 C 23,4 C 4,8 km/h (1 Bft) 93,10 %
12.07.2017 11:00 23,4 C 25,6 C 57 % 1010,9 hPa 0,0 l/m 2,1 km/h (1 Bft) O-SO 106 0 min 0,279 mm 1,6 UV-I 225 W/m 14,4 C 23,4 C 3,2 km/h (1 Bft) 92,65 %
12.07.2017 11:02 23,5 C 25,6 C 57 % 1010,9 hPa 0,0 l/m 1,1 km/h (1 Bft) O-SO 106 0 min 0,000 mm 1,7 UV-I 233 W/m 14,5 C 23,5 C 3,2 km/h (1 Bft) 90,91 %
12.07.2017 11:04 23,6 C 25,6 C 57 % 1010,9 hPa 0,0 l/m 1,1 km/h (1 Bft) O-SO 106 0 min 0,000 mm 1,7 UV-I 234 W/m 14,6 C 23,6 C 3,2 km/h (1 Bft) 95,12 %
12.07.2017 11:06 23,6 C 25,6 C 57 % 1011,0 hPa 0,0 l/m 1,2 km/h (1 Bft) O-SO 106 0 min 0,000 mm 1,7 UV-I 230 W/m 14,6 C 23,6 C 3,2 km/h (1 Bft) 92,00 %
12.07.2017 11:08 23,6 C 25,6 C 56 % 1011,0 hPa 0,0 l/m 1,2 km/h (1 Bft) O-SO 106 0 min 0,000 mm 1,6 UV-I 224 W/m 14,3 C 23,6 C 3,2 km/h (1 Bft) 94,34 %
12.07.2017 11:10 23,6 C 25,6 C 58 % 1011,1 hPa 0,0 l/m 1,2 km/h (1 Bft) O-SO 106 0 min 0,000 mm 1,6 UV-I 219 W/m 14,8 C 23,6 C 3,2 km/h (1 Bft) 87,80 %
12.07.2017 11:12 23,6 C 25,6 C 57 % 1011,0 hPa 0,0 l/m 2,8 km/h (1 Bft) O-SO 107 0 min 0,000 mm 1,6 UV-I 222 W/m 14,6 C 23,6 C 4,8 km/h (1 Bft) 97,62 %
12.07.2017 11:14 23,6 C 25,6 C 56 % 1011,0 hPa 0,0 l/m 2,0 km/h (1 Bft) O-SO 107 0 min 0,000 mm 2,0 UV-I 258 W/m 14,3 C 23,6 C 4,8 km/h (1 Bft) 96,15 %
12.07.2017 11:16 23,6 C 25,6 C 56 % 1011,0 hPa 0,0 l/m 1,0 km/h (0 Bft) O-SO 107 0 min 0,000 mm 2,4 UV-I 313 W/m 14,3 C 23,6 C 3,2 km/h (1 Bft) 95,56 %
12.07.2017 11:18 23,7 C 25,6 C 56 % 1011,0 hPa 0,0 l/m 1,0 km/h (0 Bft) O-SO 107 0 min 0,000 mm 2,9 UV-I 372 W/m 14,4 C 23,7 C 4,8 km/h (1 Bft) 95,74 %
12.07.2017 11:20 23,7 C 25,6 C 56 % 1011,0 hPa 0,0 l/m 2,4 km/h (1 Bft) O-SO 107 0 min 0,000 mm 3,2 UV-I 433 W/m 14,4 C 23,7 C 3,2 km/h (1 Bft) 94,00 %
12.07.2017 11:22 23,8 C 25,6 C 56 % 1011,0 hPa 0,0 l/m 0,1 km/h (0 Bft) O-SO 107 2 min 0,000 mm 3,5 UV-I 461 W/m 14,5 C 23,8 C 1,6 km/h (1 Bft) 100,00 %
12.07.2017 11:24 24,0 C 25,6 C 57 % 1010,9 hPa 0,0 l/m 0,8 km/h (0 Bft) O-SO 107 2 min 0,000 mm 3,6 UV-I 460 W/m 14,9 C 24,0 C 3,2 km/h (1 Bft) 95,16 %
12.07.2017 11:26 24,1 C 25,6 C 54 % 1010,9 hPa 0,0 l/m 0,3 km/h (0 Bft) O-SO 107 2 min 0,000 mm 3,9 UV-I 502 W/m 14,2 C 24,1 C 1,6 km/h (1 Bft) 89,47 %
12.07.2017 11:28 24,2 C 25,6 C 56 % 1010,9 hPa 0,0 l/m 0,5 km/h (0 Bft) O-SO 107 2 min 0,000 mm 4,4 UV-I 597 W/m 14,9 C 24,2 C 1,6 km/h (1 Bft) 92,45 %
12.07.2017 11:30 24,4 C 25,6 C 58 % 1010,9 hPa 0,0 l/m 1,1 km/h (1 Bft) SO 130 2 min 0,000 mm 4,2 UV-I 568 W/m 15,6 C 24,4 C 4,8 km/h (1 Bft) 100,00 %
12.07.2017 11:32 24,4 C 25,6 C 55 % 1010,9 hPa 0,0 l/m 2,4 km/h (1 Bft) S-SO 150 2 min 0,000 mm 4,0 UV-I 501 W/m 14,8 C 24,4 C 6,4 km/h (2 Bft) 94,00 %
12.07.2017 11:34 24,3 C 25,6 C 54 % 1010,9 hPa 0,0 l/m 1,8 km/h (1 Bft) S-SO 151 0 min 0,000 mm 3,6 UV-I 445 W/m 14,4 C 24,3 C 4,8 km/h (1 Bft) 97,87 %
12.07.2017 11:36 24,3 C 25,6 C 54 % 1010,9 hPa 0,0 l/m 0,7 km/h (0 Bft) S-SO 151 0 min 0,000 mm 3,4 UV-I 386 W/m 14,4 C 24,3 C 3,2 km/h (1 Bft) 100,00 %
12.07.2017 11:38 24,3 C 25,6 C 56 % 1010,9 hPa 0,0 l/m 0,5 km/h (0 Bft) S-SO 151 0 min 0,000 mm 3,5 UV-I 387 W/m 14,9 C 24,3 C 1,6 km/h (1 Bft) 100,00 %
12.07.2017 11:40 24,3 C 25,6 C 56 % 1010,9 hPa 0,0 l/m 1,4 km/h (1 Bft) S-SO 148 0 min 0,000 mm 4,0 UV-I 407 W/m 14,9 C 24,3 C 3,2 km/h (1 Bft) 96,00 %
12.07.2017 11:42 24,4 C 25,6 C 56 % 1010,9 hPa 0,0 l/m 0,6 km/h (0 Bft) S-SO 148 0 min 0,000 mm 4,9 UV-I 408 W/m 15,0 C 24,4 C 3,2 km/h (1 Bft) 97,56 %
12.07.2017 11:44 24,6 C 25,6 C 55 % 1010,9 hPa 0,0 l/m 1,1 km/h (1 Bft) SO 137 2 min 0,000 mm 5,9 UV-I 693 W/m 14,9 C 24,6 C 3,2 km/h (1 Bft) 98,11 %
12.07.2017 11:46 24,8 C 25,6 C 55 % 1010,9 hPa 0,0 l/m 5,7 km/h (1 Bft) O-NO 74 2 min 0,000 mm 5,8 UV-I 883 W/m 15,1 C 24,8 C 11,3 km/h (2 Bft) 100,00 %
12.07.2017 11:48 25,0 C 25,6 C 54 % 1010,9 hPa 0,0 l/m 5,2 km/h (1 Bft) O-NO 63 2 min 0,000 mm 5,4 UV-I 828 W/m 15,0 C 25,0 C 8,0 km/h (2 Bft) 100,00 %
12.07.2017 11:50 25,0 C 25,6 C 54 % 1010,9 hPa 0,0 l/m 4,5 km/h (1 Bft) NO 35 2 min 0,000 mm 5,6 UV-I 557 W/m 15,0 C 25,0 C 8,0 km/h (2 Bft) 98,00 %
12.07.2017 11:52 25,2 C 25,6 C 58 % 1010,9 hPa 0,0 l/m 1,8 km/h (1 Bft) NO 35 2 min 0,000 mm 5,3 UV-I 500 W/m 16,3 C 25,2 C 6,4 km/h (2 Bft) 100,00 %
12.07.2017 11:54 25,4 C 25,6 C 54 % 1010,9 hPa 0,0 l/m 3,0 km/h (1 Bft) N-NO 22 2 min 0,000 mm 6,4 UV-I 848 W/m 15,4 C 25,4 C 6,4 km/h (2 Bft) 97,87 %
12.07.2017 11:56 25,6 C 25,6 C 56 % 1010,9 hPa 0,0 l/m 1,0 km/h (0 Bft) N-NO 22 2 min 0,000 mm 6,6 UV-I 1179 W/m 16,2 C 25,6 C 3,2 km/h (1 Bft) 95,45 %
12.07.2017 11:58 25,8 C 25,6 C 52 % 1010,9 hPa 0,0 l/m 3,9 km/h (1 Bft) S-SW 196 2 min 0,000 mm 6,7 UV-I 1179 W/m 15,2 C 25,8 C 6,4 km/h (2 Bft) 91,07 %
12.07.2017 12:00 25,7 C 25,6 C 48 % 1010,8 hPa 0,0 l/m 4,4 km/h (1 Bft) S 191 2 min 0,000 mm 5,9 UV-I 1179 W/m 13,9 C 25,7 C 12,9 km/h (3 Bft) 100,00 %
12.07.2017 12:02 25,5 C 25,6 C 50 % 1010,8 hPa 0,0 l/m 4,2 km/h (1 Bft) SW 233 2 min 0,356 mm 5,9 UV-I 1179 W/m 14,3 C 25,5 C 6,4 km/h (2 Bft) 100,00 %
12.07.2017 12:04 25,6 C 25,6 C 52 % 1010,8 hPa 0,0 l/m 5,3 km/h (1 Bft) S-SW 198 2 min 0,000 mm 7,1 UV-I 1151 W/m 15,0 C 25,6 C 9,7 km/h (2 Bft) 98,00 %
12.07.2017 12:06 25,7 C 25,6 C 49 % 1010,8 hPa 0,0 l/m 4,5 km/h (1 Bft) W-SW 244 2 min 0,000 mm 7,0 UV-I 773 W/m 14,2 C 25,7 C 6,4 km/h (2 Bft) 87,23 %
12.07.2017 12:08 25,7 C 25,6 C 49 % 1010,7 hPa 0,0 l/m 5,1 km/h (1 Bft) W-SW 246 2 min 0,000 mm 7,1 UV-I 773 W/m 14,2 C 25,7 C 9,7 km/h (2 Bft) 94,00 %
12.07.2017 12:10 25,7 C 25,6 C 50 % 1010,7 hPa 0,0 l/m 2,4 km/h (1 Bft) O-SO 118 2 min 0,000 mm 7,4 UV-I 1159 W/m 14,5 C 25,7 C 9,7 km/h (2 Bft) 95,74 %
12.07.2017 12:12 25,7 C 25,6 C 49 % 1010,7 hPa 0,0 l/m 5,2 km/h (1 Bft) NO 47 2 min 0,000 mm 5,8 UV-I 833 W/m 14,2 C 25,7 C 8,0 km/h (2 Bft) 94,74 %
12.07.2017 12:14 25,6 C 25,6 C 51 % 1010,7 hPa 0,0 l/m 4,3 km/h (1 Bft) W-SW 257 2 min 0,000 mm 5,6 UV-I 689 W/m 14,7 C 25,6 C 12,9 km/h (3 Bft) 100,00 %
12.07.2017 12:16 25,5 C 25,6 C 49 % 1010,7 hPa 0,0 l/m 7,4 km/h (2 Bft) W 261 2 min 0,000 mm 4,3 UV-I 543 W/m 14,0 C 25,3 C 12,9 km/h (3 Bft) 98,00 %
12.07.2017 12:18 25,4 C 25,6 C 49 % 1010,7 hPa 0,0 l/m 4,2 km/h (1 Bft) SW 234 2 min 0,000 mm 4,0 UV-I 491 W/m 13,9 C 25,4 C 8,0 km/h (2 Bft) 100,00 %
12.07.2017 12:20 25,3 C 25,6 C 50 % 1010,7 hPa 0,0 l/m 2,4 km/h (1 Bft) W-SW 254 2 min 0,000 mm 4,3 UV-I 528 W/m 14,1 C 25,3 C 8,0 km/h (2 Bft) 97,87 %
12.07.2017 12:22 25,5 C 25,6 C 49 % 1010,7 hPa 0,0 l/m 5,6 km/h (1 Bft) W-SW 252 2 min 0,000 mm 4,2 UV-I 521 W/m 14,0 C 25,5 C 8,0 km/h (2 Bft) 90,00 %
12.07.2017 12:24 25,6 C 25,6 C 49 % 1010,7 hPa 0,0 l/m 5,1 km/h (1 Bft) W-SW 254 2 min 0,000 mm 4,6 UV-I 545 W/m 14,1 C 25,6 C 11,3 km/h (2 Bft) 100,00 %
12.07.2017 12:26 25,6 C 25,6 C 48 % 1010,6 hPa 0,0 l/m 8,0 km/h (2 Bft) W 265 2 min 0,000 mm 4,7 UV-I 593 W/m 13,8 C 25,2 C 12,9 km/h (3 Bft) 97,73 %
12.07.2017 12:28 25,6 C 25,6 C 48 % 1010,7 hPa 0,0 l/m 4,3 km/h (1 Bft) W 271 2 min 0,000 mm 4,0 UV-I 499 W/m 13,8 C 25,6 C 6,4 km/h (2 Bft) 100,00 %
12.07.2017 12:30 25,5 C 25,6 C 48 % 1010,7 hPa 0,0 l/m 5,6 km/h (1 Bft) W 261 2 min 0,000 mm 4,0 UV-I 493 W/m 13,7 C 25,5 C 9,7 km/h (2 Bft) 97,44 %
12.07.2017 12:32 25,5 C 25,6 C 47 % 1010,7 hPa 0,0 l/m 4,4 km/h (1 Bft) S-SW 209 0 min 0,000 mm 3,7 UV-I 457 W/m 13,3 C 25,5 C 8,0 km/h (2 Bft) 100,00 %
12.07.2017 12:34 25,4 C 25,6 C 48 % 1010,8 hPa 0,0 l/m 5,4 km/h (1 Bft) W 277 0 min 0,000 mm 3,3 UV-I 425 W/m 13,6 C 25,4 C 11,3 km/h (2 Bft) 97,22 %
12.07.2017 12:36 25,5 C 25,6 C 48 % 1010,7 hPa 0,0 l/m 4,1 km/h (1 Bft) W-SW 249 0 min 0,000 mm 2,7 UV-I 353 W/m 13,7 C 25,5 C 11,3 km/h (2 Bft) 92,45 %
12.07.2017 12:38 25,4 C 25,6 C 47 % 1010,7 hPa 0,0 l/m 8,7 km/h (2 Bft) W-SW 253 0 min 0,000 mm 2,4 UV-I 304 W/m 13,3 C 24,9 C 16,1 km/h (3 Bft) 96,00 %
12.07.2017 12:40 25,4 C 25,6 C 48 % 1010,7 hPa 0,0 l/m 7,3 km/h (2 Bft) W-NW 302 0 min 0,000 mm 2,3 UV-I 286 W/m 13,6 C 25,2 C 11,3 km/h (2 Bft) 94,00 %
12.07.2017 12:42 25,3 C 25,6 C 48 % 1010,7 hPa 0,0 l/m 6,8 km/h (2 Bft) W 268 0 min 0,000 mm 2,3 UV-I 292 W/m 13,5 C 25,2 C 12,9 km/h (3 Bft) 100,00 %
12.07.2017 12:44 25,2 C 25,6 C 48 % 1010,7 hPa 0,0 l/m 5,8 km/h (2 Bft) W-SW 252 0 min 0,000 mm 2,4 UV-I 302 W/m 13,4 C 25,2 C 9,7 km/h (2 Bft) 95,74 %
12.07.2017 12:46 25,2 C 25,6 C 49 % 1010,7 hPa 0,0 l/m 3,7 km/h (1 Bft) W-SW 256 0 min 0,000 mm 2,6 UV-I 316 W/m 13,7 C 25,2 C 6,4 km/h (2 Bft) 95,74 %
12.07.2017 12:48 25,2 C 25,6 C 50 % 1010,6 hPa 0,0 l/m 4,1 km/h (1 Bft) W 280 0 min 0,000 mm 2,8 UV-I 350 W/m 14,0 C 25,2 C 12,9 km/h (3 Bft) 95,74 %
12.07.2017 12:50 25,2 C 25,6 C 49 % 1010,7 hPa 0,0 l/m 4,6 km/h (1 Bft) W-SW 245 0 min 0,000 mm 3,3 UV-I 400 W/m 13,7 C 25,2 C 8,0 km/h (2 Bft) 94,00 %
12.07.2017 12:52 25,4 C 25,6 C 51 % 1010,7 hPa 0,0 l/m 4,2 km/h (1 Bft) SW 236 0 min 0,000 mm 3,4 UV-I 418 W/m 14,5 C 25,4 C 8,0 km/h (2 Bft) 96,00 %
12.07.2017 12:54 25,4 C 25,6 C 49 % 1010,7 hPa 0,0 l/m 7,2 km/h (2 Bft) SW 223 0 min 0,000 mm 3,6 UV-I 446 W/m 13,9 C 25,2 C 11,3 km/h (2 Bft) 97,37 %
12.07.2017 12:56 25,5 C 25,6 C 49 % 1010,6 hPa 0,0 l/m 5,6 km/h (1 Bft) SW 225 0 min 0,000 mm 3,8 UV-I 474 W/m 14,0 C 25,5 C 11,3 km/h (2 Bft) 92,45 %
12.07.2017 12:58 25,6 C 25,6 C 49 % 1010,6 hPa 0,0 l/m 5,0 km/h (1 Bft) SW 228 0 min 0,000 mm 3,6 UV-I 440 W/m 14,1 C 25,6 C 6,4 km/h (2 Bft) 90,00 %
12.07.2017 13:00 25,6 C 25,6 C 49 % 1010,6 hPa 0,0 l/m 5,2 km/h (1 Bft) W-NW 292 0 min 0,000 mm 3,4 UV-I 414 W/m 14,1 C 25,6 C 6,4 km/h (2 Bft) 89,47 %
12.07.2017 13:02 25,6 C 25,6 C 50 % 1010,5 hPa 0,0 l/m 4,2 km/h (1 Bft) W 263 0 min 0,381 mm 3,4 UV-I 423 W/m 14,4 C 25,6 C 14,5 km/h (3 Bft) 96,00 %
12.07.2017 13:04 25,6 C 25,6 C 50 % 1010,5 hPa 0,0 l/m 3,7 km/h (1 Bft) W 259 0 min 0,000 mm 3,7 UV-I 453 W/m 14,4 C 25,6 C 9,7 km/h (2 Bft) 90,00 %
12.07.2017 13:06 25,7 C 25,6 C 50 % 1010,5 hPa 0,0 l/m 1,5 km/h (1 Bft) S 169 2 min 0,000 mm 4,1 UV-I 535 W/m 14,5 C 25,7 C 4,8 km/h (1 Bft) 95,12 %
12.07.2017 13:08 25,8 C 25,6 C 50 % 1010,5 hPa 0,0 l/m 5,3 km/h (1 Bft) SW 229 2 min 0,000 mm 4,5 UV-I 584 W/m 14,6 C 25,8 C 11,3 km/h (2 Bft) 96,43 %
12.07.2017 13:10 26,0 C 25,6 C 49 % 1010,5 hPa 0,0 l/m 10,2 km/h (2 Bft) W 275 2 min 0,000 mm 4,2 UV-I 554 W/m 14,4 C 25,2 C 17,7 km/h (3 Bft) 97,62 %
12.07.2017 13:12 25,9 C 25,6 C 47 % 1010,5 hPa 0,0 l/m 10,0 km/h (2 Bft) W 265 2 min 0,000 mm 4,6 UV-I 528 W/m 13,7 C 25,2 C 16,1 km/h (3 Bft) 96,15 %
12.07.2017 13:14 25,9 C 25,6 C 53 % 1010,5 hPa 0,0 l/m 4,4 km/h (1 Bft) W 273 2 min 0,000 mm 5,0 UV-I 609 W/m 15,6 C 25,9 C 8,0 km/h (2 Bft) 91,49 %
12.07.2017 13:16 26,2 C 25,6 C 49 % 1010,5 hPa 0,0 l/m 4,6 km/h (1 Bft) W-SW 247 2 min 0,000 mm 5,6 UV-I 631 W/m 14,6 C 26,2 C 8,0 km/h (2 Bft) 94,87 %
12.07.2017 13:18 26,3 C 25,6 C 49 % 1010,5 hPa 0,0 l/m 8,3 km/h (2 Bft) W-SW 251 2 min 0,000 mm 5,9 UV-I 740 W/m 14,7 C 25,9 C 17,7 km/h (3 Bft) 98,11 %
12.07.2017 13:20 26,5 C 25,6 C 48 % 1010,5 hPa 0,0 l/m 9,1 km/h (2 Bft) W 275 2 min 0,000 mm 6,3 UV-I 929 W/m 14,6 C 26,0 C 17,7 km/h (3 Bft) 94,00 %
12.07.2017 13:22 26,6 C 25,6 C 48 % 1010,5 hPa 0,0 l/m 3,7 km/h (1 Bft) W-SW 242 2 min 0,000 mm 6,6 UV-I 912 W/m 14,7 C 26,6 C 6,4 km/h (2 Bft) 97,37 %
12.07.2017 13:24 26,6 C 25,6 C 48 % 1010,4 hPa 0,0 l/m 8,0 km/h (2 Bft) N-NW 346 2 min 0,000 mm 6,7 UV-I 954 W/m 14,7 C 26,3 C 14,5 km/h (3 Bft) 94,34 %
12.07.2017 13:26 26,6 C 25,6 C 48 % 1010,5 hPa 0,0 l/m 9,7 km/h (2 Bft) SW 225 2 min 0,000 mm 5,5 UV-I 954 W/m 14,7 C 26,0 C 16,1 km/h (3 Bft) 100,00 %
12.07.2017 13:28 26,3 C 25,6 C 48 % 1010,4 hPa 0,0 l/m 5,7 km/h (1 Bft) N-NO 13 2 min 0,000 mm 6,1 UV-I 872 W/m 14,4 C 26,3 C 14,5 km/h (3 Bft) 98,00 %
12.07.2017 13:30 26,4 C 25,6 C 51 % 1010,4 hPa 0,0 l/m 3,4 km/h (1 Bft) N 355 2 min 0,000 mm 7,4 UV-I 902 W/m 15,4 C 26,4 C 8,0 km/h (2 Bft) 100,00 %
12.07.2017 13:32 26,6 C 25,6 C 49 % 1010,4 hPa 0,0 l/m 6,0 km/h (2 Bft) NW 311 2 min 0,000 mm 6,8 UV-I 1030 W/m 15,0 C 26,6 C 12,9 km/h (3 Bft) 97,56 %
12.07.2017 13:34 26,6 C 26,1 C 50 % 1010,4 hPa 0,0 l/m 5,4 km/h (1 Bft) N-NW 336 2 min 0,000 mm 7,5 UV-I 1056 W/m 15,3 C 26,6 C 12,9 km/h (3 Bft) 98,21 %
12.07.2017 13:36 26,9 C 26,1 C 48 % 1010,4 hPa 0,0 l/m 4,8 km/h (1 Bft) NW 317 2 min 0,000 mm 7,4 UV-I 1130 W/m 14,9 C 26,9 C 12,9 km/h (3 Bft) 94,64 %
12.07.2017 13:38 26,8 C 26,1 C 47 % 1010,4 hPa 0,0 l/m 6,2 km/h (2 Bft) N-NW 346 2 min 0,000 mm 5,7 UV-I 774 W/m 14,5 C 26,8 C 12,9 km/h (3 Bft) 95,12 %
12.07.2017 13:40 26,6 C 26,1 C 50 % 1010,4 hPa 0,0 l/m 5,2 km/h (1 Bft) N 9 2 min 0,000 mm 5,5 UV-I 620 W/m 15,3 C 26,6 C 12,9 km/h (3 Bft) 100,00 %
12.07.2017 13:42 26,4 C 26,1 C 51 % 1010,3 hPa 0,0 l/m 5,9 km/h (2 Bft) W 267 2 min 0,000 mm 4,7 UV-I 540 W/m 15,4 C 26,4 C 19,3 km/h (3 Bft) 100,00 %
12.07.2017 13:44 26,3 C 26,1 C 49 % 1010,2 hPa 0,0 l/m 7,2 km/h (2 Bft) N-NW 329 2 min 0,000 mm 4,9 UV-I 519 W/m 14,7 C 26,1 C 14,5 km/h (3 Bft) 100,00 %
12.07.2017 13:46 26,2 C 26,1 C 50 % 1010,2 hPa 0,0 l/m 7,2 km/h (2 Bft) O 100 2 min 0,000 mm 5,2 UV-I 520 W/m 14,9 C 26,0 C 16,1 km/h (3 Bft) 97,22 %
12.07.2017 13:48 26,2 C 26,1 C 51 % 1010,2 hPa 0,0 l/m 3,3 km/h (1 Bft) W 273 2 min 0,000 mm 5,3 UV-I 520 W/m 15,2 C 26,2 C 9,7 km/h (2 Bft) 98,11 %
12.07.2017 13:50 26,1 C 26,1 C 50 % 1010,2 hPa 0,0 l/m 4,8 km/h (1 Bft) SW 217 2 min 0,000 mm 4,7 UV-I 502 W/m 14,8 C 26,1 C 12,9 km/h (3 Bft) 96,36 %
12.07.2017 13:52 26,1 C 26,1 C 51 % 1010,2 hPa 0,0 l/m 5,0 km/h (1 Bft) SW 236 2 min 0,000 mm 7,1 UV-I 1024 W/m 15,2 C 26,1 C 17,7 km/h (3 Bft) 97,62 %
12.07.2017 13:54 26,3 C 26,1 C 52 % 1010,1 hPa 0,0 l/m 10,5 km/h (2 Bft) NO 38 2 min 0,000 mm 7,4 UV-I 1195 W/m 15,6 C 25,5 C 16,1 km/h (3 Bft) 96,00 %
12.07.2017 13:56 26,6 C 26,1 C 49 % 1010,2 hPa 0,0 l/m 6,5 km/h (2 Bft) W-NW 300 2 min 0,000 mm 6,6 UV-I 1030 W/m 15,0 C 26,6 C 14,5 km/h (3 Bft) 94,00 %
12.07.2017 13:58 26,5 C 26,1 C 49 % 1010,2 hPa 0,0 l/m 5,2 km/h (1 Bft) W-NW 296 2 min 0,000 mm 5,5 UV-I 925 W/m 14,9 C 26,5 C 12,9 km/h (3 Bft) 97,37 %
12.07.2017 14:00 26,3 C 26,1 C 50 % 1010,2 hPa 0,0 l/m 6,7 km/h (2 Bft) W-NW 298 2 min 0,000 mm 6,1 UV-I 925 W/m 15,0 C 26,2 C 16,1 km/h (3 Bft) 96,00 %
12.07.2017 14:02 26,2 C 26,1 C 50 % 1010,1 hPa 0,0 l/m 7,3 km/h (2 Bft) N-NW 344 2 min 0,533 mm 6,1 UV-I 1029 W/m 14,9 C 26,0 C 14,5 km/h (3 Bft) 98,00 %
12.07.2017 14:04 26,2 C 26,1 C 51 % 1010,1 hPa 0,0 l/m 5,8 km/h (2 Bft) W-NW 282 2 min 0,000 mm 6,3 UV-I 1014 W/m 15,2 C 26,2 C 11,3 km/h (2 Bft) 95,12 %
12.07.2017 14:06 26,4 C 26,1 C 51 % 1010,1 hPa 0,0 l/m 2,5 km/h (1 Bft) NW 322 2 min 0,000 mm 5,7 UV-I 727 W/m 15,4 C 26,4 C 8,0 km/h (2 Bft) 94,34 %
12.07.2017 14:08 26,4 C 26,1 C 50 % 1010,0 hPa 0,0 l/m 8,6 km/h (2 Bft) W-SW 254 2 min 0,000 mm 5,7 UV-I 719 W/m 15,1 C 26,0 C 30,6 km/h (5 Bft) 94,00 %
12.07.2017 14:10 26,7 C 26,1 C 50 % 1010,1 hPa 0,0 l/m 10,5 km/h (2 Bft) W 265 2 min 0,000 mm 6,9 UV-I 1015 W/m 15,4 C 26,0 C 17,7 km/h (3 Bft) 92,68 %
12.07.2017 14:12 26,8 C 26,1 C 49 % 1010,1 hPa 0,0 l/m 12,1 km/h (2 Bft) W-SW 252 2 min 0,000 mm 6,7 UV-I 1020 W/m 15,2 C 25,8 C 20,9 km/h (4 Bft) 90,00 %
12.07.2017 14:14 26,8 C 26,1 C 47 % 1010,1 hPa 0,0 l/m 8,3 km/h (2 Bft) N-NO 12 2 min 0,000 mm 6,4 UV-I 951 W/m 14,5 C 26,4 C 20,9 km/h (4 Bft) 93,62 %
12.07.2017 14:16 26,6 C 26,1 C 49 % 1010,0 hPa 0,0 l/m 4,9 km/h (1 Bft) W 274 2 min 0,000 mm 5,4 UV-I 913 W/m 15,0 C 26,6 C 12,9 km/h (3 Bft) 90,24 %
12.07.2017 14:18 26,5 C 26,1 C 48 % 1010,0 hPa 0,0 l/m 6,5 km/h (2 Bft) NW 322 2 min 0,000 mm 4,8 UV-I 528 W/m 14,6 C 26,5 C 11,3 km/h (2 Bft) 98,11 %
12.07.2017 14:20 26,4 C 26,1 C 50 % 1010,1 hPa 0,0 l/m 1,9 km/h (1 Bft) N 350 2 min 0,000 mm 5,1 UV-I 590 W/m 15,1 C 26,4 C 4,8 km/h (1 Bft) 94,74 %
12.07.2017 14:22 26,3 C 26,1 C 49 % 1010,0 hPa 0,0 l/m 3,3 km/h (1 Bft) N-NO 32 2 min 0,000 mm 4,6 UV-I 571 W/m 14,7 C 26,3 C 8,0 km/h (2 Bft) 94,64 %
12.07.2017 14:24 26,4 C 26,1 C 50 % 1010,0 hPa 0,0 l/m 3,5 km/h (1 Bft) N-NO 14 2 min 0,000 mm 4,7 UV-I 552 W/m 15,1 C 26,4 C 8,0 km/h (2 Bft) 95,24 %
12.07.2017 14:26 26,3 C 26,1 C 50 % 1010,0 hPa 0,0 l/m 5,4 km/h (1 Bft) W 259 2 min 0,000 mm 4,6 UV-I 546 W/m 15,0 C 26,3 C 12,9 km/h (3 Bft) 97,96 %
12.07.2017 14:28 26,3 C 26,1 C 50 % 1009,9 hPa 0,0 l/m 8,2 km/h (2 Bft) W-SW 247 2 min 0,000 mm 4,8 UV-I 563 W/m 15,0 C 25,9 C 12,9 km/h (3 Bft) 95,83 %
12.07.2017 14:30 26,4 C 26,1 C 51 % 1009,9 hPa 0,0 l/m 6,4 km/h (2 Bft) W-SW 248 2 min 0,000 mm 4,2 UV-I 526 W/m 15,4 C 26,4 C 14,5 km/h (3 Bft) 98,59 %
12.07.2017 14:32 26,4 C 26,1 C 51 % 1009,9 hPa 0,0 l/m 6,3 km/h (2 Bft) W-NW 292 0 min 0,000 mm 3,6 UV-I 453 W/m 15,4 C 26,4 C 16,1 km/h (3 Bft) 97,56 %
12.07.2017 14:34 26,3 C 26,1 C 51 % 1009,9 hPa 0,0 l/m 8,5 km/h (2 Bft) W-NW 286 2 min 0,000 mm 4,1 UV-I 490 W/m 15,3 C 25,9 C 14,5 km/h (3 Bft) 97,73 %
12.07.2017 14:36 26,1 C 26,1 C 52 % 1009,8 hPa 0,0 l/m 1,1 km/h (1 Bft) W-NW 298 0 min 0,000 mm 3,6 UV-I 458 W/m 15,5 C 26,1 C 4,8 km/h (1 Bft) 94,92 %
12.07.2017 14:38 26,1 C 26,1 C 52 % 1009,8 hPa 0,0 l/m 3,8 km/h (1 Bft) W-NW 300 0 min 0,000 mm 3,1 UV-I 384 W/m 15,5 C 26,1 C 11,3 km/h (2 Bft) 97,14 %
12.07.2017 14:40 25,9 C 26,1 C 52 % 1009,7 hPa 0,0 l/m 4,2 km/h (1 Bft) N-NW 344 0 min 0,000 mm 3,2 UV-I 397 W/m 15,3 C 25,9 C 9,7 km/h (2 Bft) 96,43 %
12.07.2017 14:42 26,0 C 26,1 C 52 % 1009,7 hPa 0,0 l/m 2,2 km/h (1 Bft) NW 306 0 min 0,000 mm 3,4 UV-I 448 W/m 15,4 C 26,0 C 4,8 km/h (1 Bft) 94,87 %
12.07.2017 14:44 26,2 C 26,1 C 51 % 1009,8 hPa 0,0 l/m 3,9 km/h (1 Bft) NO 46 2 min 0,000 mm 3,9 UV-I 489 W/m 15,2 C 26,2 C 8,0 km/h (2 Bft) 94,34 %
12.07.2017 14:46 26,2 C 26,1 C 51 % 1009,8 hPa 0,0 l/m 6,8 km/h (2 Bft) SW 233 2 min 0,000 mm 3,5 UV-I 461 W/m 15,2 C 26,1 C 14,5 km/h (3 Bft) 92,11 %
12.07.2017 14:48 26,1 C 26,1 C 50 % 1009,8 hPa 0,0 l/m 7,4 km/h (2 Bft) SW 227 2 min 0,000 mm 3,6 UV-I 459 W/m 14,8 C 25,9 C 14,5 km/h (3 Bft) 94,34 %
12.07.2017 14:50 26,0 C 26,1 C 50 % 1009,8 hPa 0,0 l/m 5,7 km/h (1 Bft) S 188 0 min 0,000 mm 2,3 UV-I 384 W/m 14,8 C 26,0 C 9,7 km/h (2 Bft) 92,45 %
12.07.2017 14:52 25,9 C 26,1 C 51 % 1009,8 hPa 0,0 l/m 3,8 km/h (1 Bft) W 261 0 min 0,000 mm 3,0 UV-I 375 W/m 15,0 C 25,9 C 6,4 km/h (2 Bft) 92,31 %
12.07.2017 14:54 25,8 C 26,1 C 50 % 1009,7 hPa 0,0 l/m 2,3 km/h (1 Bft) W 261 0 min 0,000 mm 3,2 UV-I 404 W/m 14,6 C 25,8 C 4,8 km/h (1 Bft) 94,34 %
12.07.2017 14:56 25,8 C 26,1 C 51 % 1009,7 hPa 0,0 l/m 6,2 km/h (2 Bft) W 276 0 min 0,000 mm 3,3 UV-I 410 W/m 14,9 C 25,8 C 12,9 km/h (3 Bft) 91,49 %
12.07.2017 14:58 25,8 C 26,1 C 52 % 1009,7 hPa 0,0 l/m 5,7 km/h (1 Bft) W-SW 247 2 min 0,000 mm 3,8 UV-I 473 W/m 15,2 C 25,8 C 11,3 km/h (2 Bft) 97,56 %
12.07.2017 15:00 25,9 C 26,1 C 52 % 1009,7 hPa 0,0 l/m 4,9 km/h (1 Bft) N 351 2 min 0,000 mm 4,6 UV-I 501 W/m 15,3 C 25,9 C 11,3 km/h (2 Bft) 93,62 %
12.07.2017 15:02 26,1 C 26,1 C 50 % 1009,6 hPa 0,0 l/m 3,2 km/h (1 Bft) NW 313 2 min 0,432 mm 3,8 UV-I 494 W/m 14,8 C 26,1 C 6,4 km/h (2 Bft) 96,30 %
12.07.2017 15:04 26,1 C 26,1 C 50 % 1009,7 hPa 0,0 l/m 2,1 km/h (1 Bft) N 349 2 min 0,000 mm 3,7 UV-I 488 W/m 14,8 C 26,1 C 6,4 km/h (2 Bft) 97,37 %
12.07.2017 15:06 26,1 C 26,1 C 50 % 1009,7 hPa 0,0 l/m 4,5 km/h (1 Bft) N-NW 334 0 min 0,000 mm 3,4 UV-I 443 W/m 14,8 C 26,1 C 11,3 km/h (2 Bft) 94,34 %
12.07.2017 15:08 26,1 C 26,1 C 52 % 1009,7 hPa 0,0 l/m 4,9 km/h (1 Bft) W-NW 302 2 min 0,000 mm 3,6 UV-I 513 W/m 15,5 C 26,1 C 8,0 km/h (2 Bft) 96,00 %
12.07.2017 15:10 26,0 C 26,1 C 51 % 1009,6 hPa 0,0 l/m 5,9 km/h (2 Bft) W 267 2 min 0,000 mm 3,9 UV-I 563 W/m 15,1 C 26,0 C 14,5 km/h (3 Bft) 95,74 %
12.07.2017 15:12 25,9 C 26,1 C 50 % 1009,6 hPa 0,0 l/m 4,6 km/h (1 Bft) N-NW 344 2 min 0,000 mm 3,7 UV-I 534 W/m 14,7 C 25,9 C 9,7 km/h (2 Bft) 91,67 %
12.07.2017 15:14 25,9 C 26,1 C 51 % 1009,6 hPa 0,0 l/m 3,2 km/h (1 Bft) NW 315 2 min 0,000 mm 3,2 UV-I 456 W/m 15,0 C 25,9 C 6,4 km/h (2 Bft) 96,23 %
12.07.2017 15:16 25,9 C 26,1 C 50 % 1009,6 hPa 0,0 l/m 4,6 km/h (1 Bft) W-SW 257 2 min 0,000 mm 3,1 UV-I 440 W/m 14,7 C 25,9 C 9,7 km/h (2 Bft) 97,56 %
12.07.2017 15:18 25,9 C 26,1 C 51 % 1009,6 hPa 0,0 l/m 1,6 km/h (1 Bft) W-NW 290 0 min 0,000 mm 2,8 UV-I 399 W/m 15,0 C 25,9 C 6,4 km/h (2 Bft) 98,00 %
12.07.2017 15:20 26,0 C 26,1 C 50 % 1009,6 hPa 0,0 l/m 2,5 km/h (1 Bft) W-SW 240 0 min 0,000 mm 2,7 UV-I 378 W/m 14,8 C 26,0 C 6,4 km/h (2 Bft) 94,00 %
12.07.2017 15:22 26,1 C 26,1 C 52 % 1009,6 hPa 0,0 l/m 2,4 km/h (1 Bft) NW 305 0 min 0,000 mm 2,4 UV-I 345 W/m 15,5 C 26,1 C 11,3 km/h (2 Bft) 100,00 %
12.07.2017 15:24 26,1 C 26,1 C 51 % 1009,7 hPa 0,0 l/m 6,6 km/h (2 Bft) W-NW 283 0 min 0,000 mm 2,2 UV-I 297 W/m 15,2 C 26,1 C 11,3 km/h (2 Bft) 98,31 %
12.07.2017 15:26 25,9 C 26,1 C 50 % 1009,7 hPa 0,0 l/m 6,1 km/h (2 Bft) S-SW 205 0 min 0,000 mm 2,1 UV-I 298 W/m 14,7 C 25,9 C 8,0 km/h (2 Bft) 100,00 %
12.07.2017 15:28 25,7 C 26,1 C 50 % 1009,7 hPa 0,0 l/m 3,3 km/h (1 Bft) S-SO 158 0 min 0,000 mm 1,9 UV-I 272 W/m 14,5 C 25,7 C 6,4 km/h (2 Bft) 98,11 %
12.07.2017 15:30 25,6 C 26,1 C 51 % 1009,7 hPa 0,0 l/m 1,4 km/h (1 Bft) W-SW 242 0 min 0,000 mm 1,5 UV-I 216 W/m 14,7 C 25,6 C 4,8 km/h (1 Bft) 97,37 %
12.07.2017 15:32 25,5 C 26,1 C 52 % 1009,8 hPa 0,0 l/m 4,0 km/h (1 Bft) W-SW 240 0 min 0,000 mm 1,2 UV-I 177 W/m 14,9 C 25,5 C 6,4 km/h (2 Bft) 98,11 %
12.07.2017 15:34 25,4 C 26,1 C 53 % 1009,8 hPa 0,0 l/m 1,8 km/h (1 Bft) W 261 0 min 0,000 mm 1,1 UV-I 158 W/m 15,1 C 25,4 C 4,8 km/h (1 Bft) 95,12 %
12.07.2017 15:36 25,4 C 26,1 C 54 % 1009,8 hPa 0,0 l/m 2,3 km/h (1 Bft) W 277 0 min 0,000 mm 0,9 UV-I 148 W/m 15,4 C 25,4 C 8,0 km/h (2 Bft) 98,00 %
12.07.2017 15:38 25,3 C 26,1 C 54 % 1009,7 hPa 0,0 l/m 2,1 km/h (1 Bft) NW 317 0 min 0,000 mm 1,1 UV-I 164 W/m 15,3 C 25,3 C 6,4 km/h (2 Bft) 100,00 %
12.07.2017 15:40 25,3 C 26,1 C 54 % 1009,7 hPa 0,0 l/m 3,8 km/h (1 Bft) W-NW 284 0 min 0,000 mm 1,2 UV-I 188 W/m 15,3 C 25,3 C 9,7 km/h (2 Bft) 98,11 %
12.07.2017 15:42 25,2 C 26,1 C 54 % 1009,7 hPa 0,0 l/m 0,8 km/h (0 Bft) W-NW 291 0 min 0,000 mm 1,5 UV-I 232 W/m 15,2 C 25,2 C 3,2 km/h (1 Bft) 96,00 %
12.07.2017 15:44 25,3 C 26,1 C 54 % 1009,7 hPa 0,0 l/m 2,7 km/h (1 Bft) W-NW 302 0 min 0,000 mm 1,5 UV-I 257 W/m 15,3 C 25,3 C 8,0 km/h (2 Bft) 100,00 %
12.07.2017 15:46 25,3 C 26,1 C 53 % 1009,7 hPa 0,0 l/m 0,8 km/h (0 Bft) NW 315 0 min 0,000 mm 1,8 UV-I 303 W/m 15,0 C 25,3 C 3,2 km/h (1 Bft) 93,10 %
12.07.2017 15:48 25,5 C 26,1 C 55 % 1009,6 hPa 0,0 l/m 4,0 km/h (1 Bft) W-NW 294 0 min 0,000 mm 2,6 UV-I 383 W/m 15,8 C 25,5 C 8,0 km/h (2 Bft) 97,62 %
12.07.2017 15:50 25,6 C 26,1 C 53 % 1009,5 hPa 0,0 l/m 2,8 km/h (1 Bft) W-SW 254 2 min 0,000 mm 2,9 UV-I 456 W/m 15,3 C 25,6 C 4,8 km/h (1 Bft) 100,00 %
12.07.2017 15:52 25,8 C 26,1 C 53 % 1009,5 hPa 0,0 l/m 4,3 km/h (1 Bft) W 270 2 min 0,000 mm 3,3 UV-I 534 W/m 15,5 C 25,8 C 11,3 km/h (2 Bft) 100,00 %
12.07.2017 15:54 26,2 C 26,1 C 53 % 1009,5 hPa 0,0 l/m 2,4 km/h (1 Bft) W-SW 238 2 min 0,000 mm 3,5 UV-I 622 W/m 15,8 C 26,2 C 6,4 km/h (2 Bft) 97,87 %
12.07.2017 15:56 26,4 C 26,1 C 51 % 1009,6 hPa 0,0 l/m 8,4 km/h (2 Bft) W 259 2 min 0,000 mm 3,0 UV-I 668 W/m 15,4 C 26,0 C 12,9 km/h (3 Bft) 100,00 %
12.07.2017 15:58 26,3 C 26,1 C 50 % 1009,6 hPa 0,0 l/m 5,2 km/h (1 Bft) S 191 0 min 0,000 mm 2,2 UV-I 352 W/m 15,0 C 26,3 C 9,7 km/h (2 Bft) 94,74 %
12.07.2017 16:00 26,3 C 26,1 C 51 % 1009,6 hPa 0,0 l/m 3,8 km/h (1 Bft) W-SW 250 0 min 0,000 mm 2,0 UV-I 291 W/m 15,3 C 26,3 C 12,9 km/h (3 Bft) 100,00 %
12.07.2017 16:02 26,3 C 26,1 C 51 % 1009,6 hPa 0,0 l/m 2,1 km/h (1 Bft) SW 235 2 min 0,279 mm 3,5 UV-I 488 W/m 15,3 C 26,3 C 4,8 km/h (1 Bft) 100,00 %
12.07.2017 16:04 26,6 C 26,1 C 51 % 1009,6 hPa 0,0 l/m 8,5 km/h (2 Bft) SW 225 2 min 0,000 mm 4,0 UV-I 904 W/m 15,6 C 26,2 C 12,9 km/h (3 Bft) 97,73 %
12.07.2017 16:06 26,8 C 26,1 C 50 % 1009,6 hPa 0,0 l/m 2,1 km/h (1 Bft) W-NW 296 2 min 0,000 mm 4,1 UV-I 835 W/m 15,5 C 26,8 C 4,8 km/h (1 Bft) 100,00 %
12.07.2017 16:08 26,9 C 26,1 C 50 % 1009,5 hPa 0,0 l/m 4,3 km/h (1 Bft) SW 229 2 min 0,000 mm 4,0 UV-I 808 W/m 15,6 C 26,9 C 9,7 km/h (2 Bft) 97,37 %
12.07.2017 16:10 27,2 C 26,1 C 49 % 1009,5 hPa 0,0 l/m 5,3 km/h (1 Bft) NW 307 2 min 0,000 mm 4,0 UV-I 857 W/m 15,5 C 27,2 C 12,9 km/h (3 Bft) 98,11 %
12.07.2017 16:12 27,1 C 26,1 C 49 % 1009,4 hPa 0,0 l/m 9,4 km/h (2 Bft) SW 235 2 min 0,000 mm 2,5 UV-I 581 W/m 15,4 C 26,6 C 14,5 km/h (3 Bft) 100,00 %
12.07.2017 16:14 26,9 C 26,1 C 50 % 1009,4 hPa 0,0 l/m 7,4 km/h (2 Bft) W 260 0 min 0,000 mm 2,5 UV-I 330 W/m 15,6 C 26,7 C 11,3 km/h (2 Bft) 100,00 %
12.07.2017 16:16 26,6 C 26,1 C 49 % 1009,4 hPa 0,0 l/m 6,9 km/h (2 Bft) SW 221 0 min 0,000 mm 2,5 UV-I 354 W/m 15,0 C 26,5 C 12,9 km/h (3 Bft) 97,87 %
12.07.2017 16:18 26,4 C 26,1 C 50 % 1009,4 hPa 0,0 l/m 2,5 km/h (1 Bft) SW 220 2 min 0,000 mm 2,4 UV-I 380 W/m 15,1 C 26,4 C 4,8 km/h (1 Bft) 100,00 %
12.07.2017 16:20 26,4 C 26,1 C 51 % 1009,4 hPa 0,0 l/m 4,3 km/h (1 Bft) W-SW 242 0 min 0,000 mm 2,3 UV-I 367 W/m 15,4 C 26,4 C 12,9 km/h (3 Bft) 100,00 %
12.07.2017 16:22 26,5 C 26,1 C 52 % 1009,3 hPa 0,0 l/m 4,2 km/h (1 Bft) SW 230 0 min 0,000 mm 2,2 UV-I 344 W/m 15,8 C 26,5 C 14,5 km/h (3 Bft) 98,00 %
12.07.2017 16:24 26,4 C 26,1 C 51 % 1009,2 hPa 0,0 l/m 1,0 km/h (0 Bft) SW 230 0 min 0,000 mm 1,8 UV-I 229 W/m 15,4 C 26,4 C 4,8 km/h (1 Bft) 100,00 %
12.07.2017 16:26 26,3 C 26,1 C 53 % 1009,3 hPa 0,0 l/m 6,9 km/h (2 Bft) W-SW 243 0 min 0,000 mm 1,5 UV-I 204 W/m 15,9 C 26,2 C 11,3 km/h (2 Bft) 100,00 %
12.07.2017 16:28 26,2 C 26,1 C 52 % 1009,4 hPa 0,0 l/m 7,4 km/h (2 Bft) W 270 0 min 0,000 mm 1,5 UV-I 230 W/m 15,6 C 26,0 C 12,9 km/h (3 Bft) 100,00 %
12.07.2017 16:30 26,2 C 26,1 C 52 % 1009,4 hPa 0,0 l/m 2,8 km/h (1 Bft) W 272 0 min 0,000 mm 1,4 UV-I 237 W/m 15,6 C 26,2 C 6,4 km/h (2 Bft) 98,00 %
12.07.2017 16:32 26,1 C 26,1 C 52 % 1009,4 hPa 0,0 l/m 4,8 km/h (1 Bft) W-SW 258 0 min 0,000 mm 1,4 UV-I 252 W/m 15,5 C 26,1 C 6,4 km/h (2 Bft) 100,00 %
12.07.2017 16:34 25,9 C 26,1 C 52 % 1009,4 hPa 0,0 l/m 3,9 km/h (1 Bft) SW 230 0 min 0,000 mm 1,6 UV-I 283 W/m 15,3 C 25,9 C 8,0 km/h (2 Bft) 100,00 %
12.07.2017 16:36 25,9 C 26,1 C 54 % 1009,3 hPa 0,0 l/m 4,5 km/h (1 Bft) W 268 0 min 0,000 mm 1,4 UV-I 225 W/m 15,9 C 25,9 C 9,7 km/h (2 Bft) 96,23 %
12.07.2017 16:38 25,9 C 26,1 C 54 % 1009,3 hPa 0,0 l/m 4,2 km/h (1 Bft) SW 218 0 min 0,000 mm 1,2 UV-I 195 W/m 15,9 C 25,9 C 9,7 km/h (2 Bft) 97,14 %
12.07.2017 16:40 25,9 C 26,1 C 52 % 1009,3 hPa 0,0 l/m 4,2 km/h (1 Bft) SW 235 0 min 0,000 mm 1,1 UV-I 194 W/m 15,3 C 25,9 C 9,7 km/h (2 Bft) 96,43 %
12.07.2017 16:42 25,8 C 26,1 C 52 % 1009,3 hPa 0,0 l/m 3,4 km/h (1 Bft) W-SW 241 0 min 0,000 mm 1,1 UV-I 191 W/m 15,2 C 25,8 C 4,8 km/h (1 Bft) 96,23 %
12.07.2017 16:44 25,8 C 26,1 C 53 % 1009,3 hPa 0,0 l/m 3,0 km/h (1 Bft) W-SW 243 0 min 0,000 mm 1,0 UV-I 171 W/m 15,5 C 25,8 C 4,8 km/h (1 Bft) 94,29 %
12.07.2017 16:46 25,8 C 26,1 C 55 % 1009,3 hPa 0,0 l/m 2,3 km/h (1 Bft) W-SW 242 0 min 0,000 mm 1,2 UV-I 213 W/m 16,1 C 25,8 C 4,8 km/h (1 Bft) 94,64 %
12.07.2017 16:48 25,9 C 26,1 C 53 % 1009,2 hPa 0,0 l/m 6,3 km/h (2 Bft) W-NW 290 0 min 0,000 mm 1,4 UV-I 278 W/m 15,6 C 25,9 C 12,9 km/h (3 Bft) 92,59 %
12.07.2017 16:50 26,0 C 26,1 C 53 % 1009,2 hPa 0,0 l/m 4,5 km/h (1 Bft) W-NW 289 0 min 0,000 mm 1,5 UV-I 255 W/m 15,7 C 26,0 C 8,0 km/h (2 Bft) 95,52 %
12.07.2017 16:52 26,0 C 26,1 C 52 % 1009,2 hPa 0,0 l/m 4,2 km/h (1 Bft) NW 321 0 min 0,000 mm 1,6 UV-I 259 W/m 15,4 C 26,0 C 9,7 km/h (2 Bft) 93,62 %
12.07.2017 16:54 26,0 C 26,1 C 53 % 1009,2 hPa 0,0 l/m 5,2 km/h (1 Bft) W-SW 255 0 min 0,000 mm 1,6 UV-I 261 W/m 15,7 C 26,0 C 11,3 km/h (2 Bft) 98,00 %
12.07.2017 16:56 26,0 C 26,1 C 52 % 1009,2 hPa 0,0 l/m 9,1 km/h (2 Bft) W-SW 248 0 min 0,000 mm 1,7 UV-I 323 W/m 15,4 C 25,4 C 14,5 km/h (3 Bft) 92,68 %
12.07.2017 16:58 26,1 C 26,1 C 52 % 1009,1 hPa 0,0 l/m 8,2 km/h (2 Bft) W-SW 249 2 min 0,000 mm 2,1 UV-I 373 W/m 15,5 C 25,7 C 12,9 km/h (3 Bft) 97,73 %
12.07.2017 17:00 26,1 C 26,1 C 53 % 1009,1 hPa 0,0 l/m 7,6 km/h (2 Bft) W-SW 248 0 min 0,000 mm 1,7 UV-I 279 W/m 15,8 C 25,8 C 14,5 km/h (3 Bft) 94,00 %
12.07.2017 17:02 26,1 C 26,1 C 52 % 1009,1 hPa 0,0 l/m 7,0 km/h (2 Bft) W-NW 288 0 min 0,280 mm 1,7 UV-I 242 W/m 15,5 C 26,0 C 11,3 km/h (2 Bft) 97,87 %
12.07.2017 17:04 26,1 C 26,1 C 53 % 1009,1 hPa 0,0 l/m 4,5 km/h (1 Bft) S-SO 165 0 min 0,000 mm 1,5 UV-I 244 W/m 15,8 C 26,1 C 9,7 km/h (2 Bft) 97,44 %
12.07.2017 17:06 26,1 C 26,1 C 52 % 1009,1 hPa 0,0 l/m 2,7 km/h (1 Bft) S 189 2 min 0,000 mm 1,8 UV-I 346 W/m 15,5 C 26,1 C 8,0 km/h (2 Bft) 92,45 %
12.07.2017 17:08 26,2 C 26,1 C 52 % 1009,0 hPa 0,0 l/m 4,8 km/h (1 Bft) S-SO 157 2 min 0,000 mm 2,0 UV-I 371 W/m 15,6 C 26,2 C 11,3 km/h (2 Bft) 97,87 %
12.07.2017 17:10 26,4 C 26,1 C 53 % 1009,0 hPa 0,0 l/m 7,5 km/h (2 Bft) S-SW 213 2 min 0,000 mm 2,2 UV-I 371 W/m 16,0 C 26,2 C 14,5 km/h (3 Bft) 95,74 %
12.07.2017 17:13 26,4 C 26,1 C 51 % 1008,9 hPa 0,0 l/m 5,9 km/h (2 Bft) S 172 3 min 0,000 mm 1,7 UV-I 319 W/m 15,4 C 26,4 C 14,5 km/h (3 Bft) 100,00 %
12.07.2017 17:14 26,3 C 26,1 C 52 % 1008,9 hPa 0,0 l/m 8,5 km/h (2 Bft) S-SO 163 0 min 0,000 mm 1,3 UV-I 130 W/m 15,6 C 25,9 C 14,5 km/h (3 Bft) 100,00 %
12.07.2017 17:16 26,0 C 26,1 C 52 % 1008,8 hPa 0,0 l/m 9,2 km/h (2 Bft) S-SO 167 0 min 0,000 mm 1,4 UV-I 144 W/m 15,4 C 25,4 C 16,1 km/h (3 Bft) 96,43 %
12.07.2017 17:18 25,7 C 26,1 C 53 % 1008,9 hPa 0,0 l/m 8,5 km/h (2 Bft) SW 229 0 min 0,000 mm 1,6 UV-I 231 W/m 15,4 C 25,2 C 14,5 km/h (3 Bft) 97,56 %
12.07.2017 17:20 25,7 C 26,1 C 53 % 1008,9 hPa 0,0 l/m 7,3 km/h (2 Bft) S 190 2 min 0,000 mm 2,1 UV-I 566 W/m 15,4 C 25,5 C 16,1 km/h (3 Bft) 100,00 %
12.07.2017 17:22 25,8 C 26,1 C 54 % 1008,9 hPa 0,0 l/m 8,4 km/h (2 Bft) S-SW 201 2 min 0,000 mm 1,5 UV-I 326 W/m 15,8 C 25,4 C 12,9 km/h (3 Bft) 97,87 %
12.07.2017 17:24 25,8 C 26,1 C 54 % 1008,9 hPa 0,0 l/m 6,4 km/h (2 Bft) S-SO 165 0 min 0,000 mm 1,6 UV-I 142 W/m 15,8 C 25,8 C 11,3 km/h (2 Bft) 95,12 %
12.07.2017 17:26 25,8 C 26,1 C 53 % 1008,9 hPa 0,0 l/m 7,4 km/h (2 Bft) S-SW 208 0 min 0,000 mm 1,4 UV-I 157 W/m 15,5 C 25,6 C 14,5 km/h (3 Bft) 100,00 %
12.07.2017 17:28 25,7 C 26,1 C 54 % 1008,8 hPa 0,0 l/m 8,9 km/h (2 Bft) S-SO 168 0 min 0,000 mm 1,1 UV-I 160 W/m 15,7 C 25,1 C 14,5 km/h (3 Bft) 100,00 %
12.07.2017 17:30 25,7 C 26,1 C 53 % 1008,8 hPa 0,0 l/m 8,0 km/h (2 Bft) S 186 0 min 0,000 mm 1,4 UV-I 179 W/m 15,4 C 25,3 C 16,1 km/h (3 Bft) 100,00 %
12.07.2017 17:33 25,8 C 26,1 C 54 % 1008,8 hPa 0,0 l/m 7,9 km/h (2 Bft) S-SW 203 0 min 0,000 mm 1,3 UV-I 268 W/m 15,8 C 25,5 C 19,3 km/h (3 Bft) 97,59 %
12.07.2017 17:34 25,9 C 26,1 C 54 % 1008,8 hPa 0,0 l/m 11,6 km/h (2 Bft) S-SO 150 1 min 0,000 mm 1,6 UV-I 579 W/m 15,9 C 24,9 C 17,7 km/h (3 Bft) 100,00 %
12.07.2017 17:36 26,1 C 26,1 C 54 % 1008,7 hPa 0,0 l/m 10,9 km/h (2 Bft) S 182 2 min 0,000 mm 1,7 UV-I 557 W/m 16,0 C 25,2 C 22,5 km/h (4 Bft) 95,74 %
12.07.2017 17:38 26,1 C 26,1 C 55 % 1008,7 hPa 0,0 l/m 8,6 km/h (2 Bft) S-SO 161 2 min 0,000 mm 1,7 UV-I 524 W/m 16,3 C 25,6 C 14,5 km/h (3 Bft) 97,56 %
12.07.2017 17:40 26,2 C 26,1 C 54 % 1008,6 hPa 0,0 l/m 6,3 km/h (2 Bft) S-SO 152 2 min 0,000 mm 1,6 UV-I 492 W/m 16,1 C 26,2 C 11,3 km/h (2 Bft) 100,00 %
12.07.2017 17:42 26,2 C 26,1 C 54 % 1008,6 hPa 0,0 l/m 10,0 km/h (2 Bft) S-SW 200 2 min 0,000 mm 1,5 UV-I 455 W/m 16,1 C 25,5 C 16,1 km/h (3 Bft) 93,10 %
12.07.2017 17:44 26,1 C 26,1 C 54 % 1008,5 hPa 0,0 l/m 10,2 km/h (2 Bft) S 174 2 min 0,000 mm 1,4 UV-I 440 W/m 16,0 C 25,3 C 16,1 km/h (3 Bft) 97,22 %
12.07.2017 17:46 26,1 C 26,1 C 55 % 1008,6 hPa 0,0 l/m 11,8 km/h (2 Bft) SW 225 2 min 0,000 mm 1,2 UV-I 444 W/m 16,3 C 25,1 C 20,9 km/h (4 Bft) 93,22 %
12.07.2017 17:48 25,9 C 26,1 C 55 % 1008,5 hPa 0,0 l/m 11,4 km/h (2 Bft) S-SO 159 2 min 0,000 mm 0,9 UV-I 324 W/m 16,2 C 24,9 C 20,9 km/h (4 Bft) 95,12 %
12.07.2017 17:50 25,6 C 26,1 C 55 % 1008,5 hPa 0,0 l/m 10,1 km/h (2 Bft) S-SO 163 0 min 0,000 mm 0,9 UV-I 108 W/m 15,9 C 24,8 C 17,7 km/h (3 Bft) 94,34 %
12.07.2017 17:52 25,4 C 26,1 C 56 % 1008,5 hPa 0,0 l/m 5,1 km/h (1 Bft) S-SO 161 0 min 0,000 mm 1,0 UV-I 150 W/m 16,0 C 25,4 C 11,3 km/h (2 Bft) 86,21 %
12.07.2017 17:54 25,3 C 26,1 C 56 % 1008,5 hPa 0,0 l/m 8,4 km/h (2 Bft) S 186 0 min 0,000 mm 1,0 UV-I 127 W/m 15,9 C 24,8 C 11,3 km/h (2 Bft) 96,92 %
12.07.2017 17:56 25,2 C 26,1 C 56 % 1008,5 hPa 0,0 l/m 6,2 km/h (2 Bft) S-SW 198 0 min 0,000 mm 0,9 UV-I 104 W/m 15,8 C 25,2 C 11,3 km/h (2 Bft) 97,56 %
12.07.2017 17:58 25,1 C 26,1 C 57 % 1008,6 hPa 0,0 l/m 3,9 km/h (1 Bft) S-SW 206 0 min 0,000 mm 0,9 UV-I 132 W/m 16,0 C 25,1 C 6,4 km/h (2 Bft) 93,18 %
12.07.2017 18:00 25,1 C 26,1 C 58 % 1008,6 hPa 0,0 l/m 7,8 km/h (2 Bft) S 182 0 min 0,000 mm 0,9 UV-I 132 W/m 16,2 C 24,8 C 14,5 km/h (3 Bft) 94,34 %
12.07.2017 18:03 25,0 C 26,1 C 58 % 1008,5 hPa 0,0 l/m 5,2 km/h (1 Bft) S-SO 165 0 min 0,254 mm 0,8 UV-I 130 W/m 16,1 C 25,0 C 9,7 km/h (2 Bft) 93,85 %
12.07.2017 18:04 25,0 C 26,1 C 58 % 1008,5 hPa 0,0 l/m 6,2 km/h (2 Bft) S-SO 164 0 min 0,000 mm 0,8 UV-I 141 W/m 16,1 C 25,0 C 9,7 km/h (2 Bft) 100,00 %
12.07.2017 18:06 25,0 C 26,1 C 59 % 1008,5 hPa 0,0 l/m 5,6 km/h (1 Bft) S 189 0 min 0,000 mm 0,9 UV-I 148 W/m 16,4 C 25,0 C 9,7 km/h (2 Bft) 90,00 %
12.07.2017 18:08 25,1 C 26,1 C 59 % 1008,5 hPa 0,0 l/m 5,5 km/h (1 Bft) S-SO 150 0 min 0,000 mm 0,8 UV-I 136 W/m 16,5 C 25,1 C 12,9 km/h (3 Bft) 85,11 %
12.07.2017 18:10 25,1 C 26,1 C 58 % 1008,4 hPa 0,0 l/m 7,0 km/h (2 Bft) S-SO 163 0 min 0,000 mm 0,8 UV-I 145 W/m 16,2 C 25,0 C 12,9 km/h (3 Bft) 97,37 %
12.07.2017 18:12 25,1 C 26,1 C 59 % 1008,5 hPa 0,0 l/m 6,3 km/h (2 Bft) S-SW 193 0 min 0,000 mm 0,8 UV-I 157 W/m 16,5 C 25,1 C 9,7 km/h (2 Bft) 96,23 %
12.07.2017 18:14 25,1 C 26,1 C 58 % 1008,4 hPa 0,0 l/m 7,3 km/h (2 Bft) S-SO 161 0 min 0,000 mm 0,7 UV-I 102 W/m 16,2 C 24,9 C 16,1 km/h (3 Bft) 97,56 %
12.07.2017 18:16 25,1 C 26,1 C 59 % 1008,4 hPa 0,0 l/m 5,2 km/h (1 Bft) S-SO 153 0 min 0,000 mm 0,4 UV-I 95 W/m 16,5 C 25,1 C 9,7 km/h (2 Bft) 90,57 %
12.07.2017 18:18 25,1 C 26,1 C 59 % 1008,4 hPa 0,0 l/m 6,0 km/h (2 Bft) S-SW 197 0 min 0,000 mm 0,0 UV-I 91 W/m 16,5 C 25,1 C 11,3 km/h (2 Bft) 96,00 %
12.07.2017 18:20 25,1 C 26,1 C 60 % 1008,4 hPa 0,0 l/m 4,7 km/h (1 Bft) S-SO 167 0 min 0,000 mm 0,0 UV-I 102 W/m 16,8 C 25,1 C 8,0 km/h (2 Bft) 97,87 %
12.07.2017 18:22 25,1 C 26,1 C 60 % 1008,4 hPa 0,0 l/m 5,9 km/h (2 Bft) S-SO 163 0 min 0,000 mm 0,0 UV-I 114 W/m 16,8 C 25,1 C 11,3 km/h (2 Bft) 91,49 %
12.07.2017 18:24 25,0 C 26,1 C 60 % 1008,4 hPa 0,0 l/m 5,3 km/h (1 Bft) S-SO 165 0 min 0,000 mm 0,0 UV-I 115 W/m 16,7 C 25,0 C 9,7 km/h (2 Bft) 90,48 %
12.07.2017 18:26 25,0 C 26,1 C 60 % 1008,4 hPa 0,0 l/m 8,8 km/h (2 Bft) S 181 0 min 0,000 mm 0,0 UV-I 123 W/m 16,7 C 24,4 C 16,1 km/h (3 Bft) 96,00 %
12.07.2017 18:28 25,1 C 26,1 C 60 % 1008,3 hPa 0,0 l/m 5,8 km/h (2 Bft) S-SW 194 0 min 0,000 mm 0,3 UV-I 125 W/m 16,8 C 25,1 C 11,3 km/h (2 Bft) 94,34 %
12.07.2017 18:30 25,1 C 26,1 C 59 % 1008,3 hPa 0,0 l/m 7,3 km/h (2 Bft) W-SW 242 0 min 0,000 mm 0,1 UV-I 107 W/m 16,5 C 24,9 C 14,5 km/h (3 Bft) 92,11 %
12.07.2017 18:32 25,2 C 26,1 C 60 % 1008,3 hPa 0,0 l/m 8,5 km/h (2 Bft) SW 234 0 min 0,000 mm 0,5 UV-I 88 W/m 16,9 C 24,7 C 11,3 km/h (2 Bft) 86,79 %
12.07.2017 18:34 25,2 C 26,1 C 58 % 1008,3 hPa 0,0 l/m 8,5 km/h (2 Bft) SW 229 0 min 0,000 mm 0,2 UV-I 73 W/m 16,3 C 24,7 C 12,9 km/h (3 Bft) 93,62 %
12.07.2017 18:36 25,1 C 26,1 C 59 % 1008,3 hPa 0,0 l/m 7,6 km/h (2 Bft) SW 218 0 min 0,000 mm 0,0 UV-I 68 W/m 16,5 C 24,8 C 12,9 km/h (3 Bft) 94,74 %
12.07.2017 18:38 25,1 C 26,1 C 59 % 1008,4 hPa 0,0 l/m 7,1 km/h (2 Bft) SW 219 0 min 0,000 mm 0,0 UV-I 72 W/m 16,5 C 24,9 C 9,7 km/h (2 Bft) 94,34 %
12.07.2017 18:40 25,2 C 26,1 C 60 % 1008,5 hPa 0,0 l/m 4,5 km/h (1 Bft) W-SW 242 0 min 0,000 mm 0,0 UV-I 72 W/m 16,9 C 25,2 C 8,0 km/h (2 Bft) 84,21 %
12.07.2017 18:42 25,2 C 26,1 C 59 % 1008,3 hPa 0,0 l/m 4,1 km/h (1 Bft) S-SO 162 0 min 0,000 mm 0,0 UV-I 83 W/m 16,6 C 25,2 C 8,0 km/h (2 Bft) 86,00 %
12.07.2017 18:44 25,2 C 26,1 C 59 % 1008,3 hPa 0,0 l/m 5,3 km/h (1 Bft) S-SW 199 0 min 0,000 mm 0,0 UV-I 76 W/m 16,6 C 25,2 C 8,0 km/h (2 Bft) 96,00 %
12.07.2017 18:46 25,2 C 26,1 C 59 % 1008,2 hPa 0,0 l/m 6,4 km/h (2 Bft) S 172 0 min 0,000 mm 0,0 UV-I 69 W/m 16,6 C 25,2 C 11,3 km/h (2 Bft) 96,00 %
12.07.2017 18:48 25,2 C 26,1 C 59 % 1008,2 hPa 0,0 l/m 5,0 km/h (1 Bft) S-SO 165 0 min 0,000 mm 0,0 UV-I 57 W/m 16,6 C 25,2 C 9,7 km/h (2 Bft) 90,24 %
12.07.2017 18:50 25,1 C 26,1 C 59 % 1008,1 hPa 0,0 l/m 6,4 km/h (2 Bft) S-SW 204 0 min 0,000 mm 0,0 UV-I 45 W/m 16,5 C 25,1 C 9,7 km/h (2 Bft) 90,00 %
12.07.2017 18:52 25,1 C 26,1 C 60 % 1008,4 hPa 0,0 l/m 5,2 km/h (1 Bft) SW 215 0 min 0,000 mm 0,0 UV-I 39 W/m 16,8 C 25,1 C 9,7 km/h (2 Bft) 90,00 %
12.07.2017 18:54 25,1 C 26,1 C 60 % 1008,5 hPa 0,0 l/m 5,7 km/h (1 Bft) W-SW 240 0 min 0,000 mm 0,0 UV-I 39 W/m 16,8 C 25,1 C 9,7 km/h (2 Bft) 97,56 %
12.07.2017 18:56 25,1 C 26,1 C 60 % 1008,4 hPa 0,0 l/m 7,7 km/h (2 Bft) SW 218 0 min 0,000 mm 0,0 UV-I 37 W/m 16,8 C 24,8 C 11,3 km/h (2 Bft) 94,00 %
12.07.2017 18:58 25,0 C 26,1 C 60 % 1008,4 hPa 0,0 l/m 10,9 km/h (2 Bft) S-SO 165 0 min 0,000 mm 0,0 UV-I 39 W/m 16,7 C 24,0 C 20,9 km/h (4 Bft) 88,10 %
12.07.2017 19:00 24,9 C 26,1 C 60 % 1008,3 hPa 0,0 l/m 6,8 km/h (2 Bft) S 169 0 min 0,000 mm 0,0 UV-I 40 W/m 16,6 C 24,8 C 14,5 km/h (3 Bft) 94,23 %
12.07.2017 19:02 24,8 C 26,1 C 62 % 1008,3 hPa 0,0 l/m 7,9 km/h (2 Bft) S 184 0 min 0,101 mm 0,0 UV-I 40 W/m 17,0 C 24,4 C 12,9 km/h (3 Bft) 98,00 %
12.07.2017 19:04 24,6 C 26,1 C 62 % 1008,4 hPa 0,0 l/m 9,4 km/h (2 Bft) W-SW 243 0 min 0,000 mm 0,0 UV-I 40 W/m 16,8 C 23,9 C 20,9 km/h (4 Bft) 95,24 %
12.07.2017 19:06 24,4 C 26,1 C 63 % 1008,8 hPa 0,0 l/m 16,4 km/h (3 Bft) W 261 0 min 0,000 mm 0,0 UV-I 45 W/m 16,9 C 22,4 C 24,1 km/h (4 Bft) 98,00 %
12.07.2017 19:08 24,2 C 26,1 C 64 % 1008,8 hPa 0,0 l/m 11,5 km/h (2 Bft) SW 223 0 min 0,000 mm 0,0 UV-I 61 W/m 16,9 C 23,0 C 19,3 km/h (3 Bft) 100,00 %
12.07.2017 19:10 24,1 C 26,1 C 65 % 1008,5 hPa 0,0 l/m 5,1 km/h (1 Bft) W-NW 290 0 min 0,000 mm 0,0 UV-I 70 W/m 17,1 C 24,1 C 8,0 km/h (2 Bft) 96,00 %
12.07.2017 19:12 23,9 C 26,1 C 66 % 1008,8 hPa 0,0 l/m 5,3 km/h (1 Bft) W 259 0 min 0,000 mm 0,0 UV-I 100 W/m 17,1 C 23,9 C 8,0 km/h (2 Bft) 98,11 %
12.07.2017 19:14 23,8 C 26,1 C 67 % 1008,9 hPa 0,0 l/m 7,1 km/h (2 Bft) SW 232 0 min 0,000 mm 0,0 UV-I 99 W/m 17,3 C 23,6 C 11,3 km/h (2 Bft) 97,37 %
12.07.2017 19:16 23,8 C 26,1 C 67 % 1008,9 hPa 0,0 l/m 5,3 km/h (1 Bft) W-SW 246 0 min 0,000 mm 0,0 UV-I 110 W/m 17,3 C 23,8 C 9,7 km/h (2 Bft) 100,00 %
12.07.2017 19:18 23,8 C 26,1 C 66 % 1008,8 hPa 0,0 l/m 6,1 km/h (2 Bft) W-SW 239 0 min 0,000 mm 0,0 UV-I 94 W/m 17,1 C 23,8 C 12,9 km/h (3 Bft) 97,87 %
12.07.2017 19:20 23,8 C 26,1 C 66 % 1008,9 hPa 0,0 l/m 12,1 km/h (2 Bft) SW 232 0 min 0,000 mm 0,0 UV-I 86 W/m 17,1 C 22,4 C 17,7 km/h (3 Bft) 100,00 %
12.07.2017 19:22 23,8 C 26,1 C 65 % 1008,9 hPa 0,0 l/m 5,9 km/h (2 Bft) SW 233 0 min 0,000 mm 0,0 UV-I 103 W/m 16,8 C 23,8 C 8,0 km/h (2 Bft) 100,00 %
12.07.2017 19:24 23,9 C 26,1 C 65 % 1008,8 hPa 0,0 l/m 7,4 km/h (2 Bft) W-SW 237 0 min 0,000 mm 0,0 UV-I 105 W/m 16,9 C 23,6 C 14,5 km/h (3 Bft) 98,11 %
12.07.2017 19:26 23,9 C 26,1 C 65 % 1008,8 hPa 0,0 l/m 9,2 km/h (2 Bft) W-SW 257 0 min 0,000 mm 0,0 UV-I 75 W/m 16,9 C 23,1 C 14,5 km/h (3 Bft) 97,37 %
12.07.2017 19:28 23,9 C 26,1 C 65 % 1008,9 hPa 0,0 l/m 9,9 km/h (2 Bft) W-NW 282 0 min 0,000 mm 0,0 UV-I 68 W/m 16,9 C 23,0 C 14,5 km/h (3 Bft) 97,73 %
12.07.2017 19:30 23,9 C 26,1 C 65 % 1008,9 hPa 0,0 l/m 9,7 km/h (2 Bft) W-SW 251 0 min 0,000 mm 0,0 UV-I 58 W/m 16,9 C 23,0 C 12,9 km/h (3 Bft) 100,00 %
12.07.2017 19:32 23,9 C 26,1 C 65 % 1008,9 hPa 0,0 l/m 6,3 km/h (2 Bft) W-NW 297 0 min 0,000 mm 0,0 UV-I 52 W/m 16,9 C 23,9 C 9,7 km/h (2 Bft) 97,87 %
12.07.2017 19:34 23,8 C 26,1 C 66 % 1009,0 hPa 0,0 l/m 4,0 km/h (1 Bft) O-NO 61 0 min 0,000 mm 0,0 UV-I 47 W/m 17,1 C 23,8 C 6,4 km/h (2 Bft) 91,67 %
12.07.2017 19:36 23,7 C 26,1 C 64 % 1009,1 hPa 0,0 l/m 6,0 km/h (2 Bft) N 11 0 min 0,000 mm 0,0 UV-I 50 W/m 16,5 C 23,7 C 12,9 km/h (3 Bft) 100,00 %
12.07.2017 19:38 23,6 C 26,1 C 61 % 1009,1 hPa 0,0 l/m 12,7 km/h (3 Bft) NO 38 0 min 0,000 mm 0,0 UV-I 49 W/m 15,6 C 22,0 C 27,4 km/h (4 Bft) 98,00 %
12.07.2017 19:40 23,4 C 26,1 C 61 % 1009,1 hPa 0,0 l/m 6,5 km/h (2 Bft) W-NW 301 0 min 0,000 mm 0,0 UV-I 45 W/m 15,4 C 23,4 C 9,7 km/h (2 Bft) 97,62 %
12.07.2017 19:42 23,2 C 26,1 C 61 % 1009,0 hPa 0,0 l/m 10,3 km/h (2 Bft) N-NW 333 0 min 0,000 mm 0,0 UV-I 41 W/m 15,3 C 22,1 C 20,9 km/h (4 Bft) 94,55 %
12.07.2017 19:44 23,0 C 26,1 C 61 % 1008,9 hPa 0,0 l/m 6,5 km/h (2 Bft) NW 319 0 min 0,000 mm 0,0 UV-I 43 W/m 15,1 C 23,0 C 12,9 km/h (3 Bft) 97,22 %
12.07.2017 19:46 22,8 C 26,1 C 61 % 1009,0 hPa 0,0 l/m 8,9 km/h (2 Bft) W-NW 298 0 min 0,000 mm 0,0 UV-I 42 W/m 14,9 C 22,0 C 17,7 km/h (3 Bft) 98,11 %
12.07.2017 19:48 22,7 C 26,1 C 62 % 1009,2 hPa 0,0 l/m 10,5 km/h (2 Bft) W-NW 297 0 min 0,000 mm 0,0 UV-I 40 W/m 15,0 C 21,5 C 22,5 km/h (4 Bft) 98,11 %
12.07.2017 19:50 22,5 C 26,1 C 62 % 1009,3 hPa 0,0 l/m 4,5 km/h (1 Bft) W-SW 244 0 min 0,000 mm 0,0 UV-I 69 W/m 14,8 C 22,5 C 9,7 km/h (2 Bft) 95,12 %
12.07.2017 19:52 22,4 C 26,1 C 62 % 1009,3 hPa 0,0 l/m 5,3 km/h (1 Bft) W-NW 289 2 min 0,000 mm 0,0 UV-I 169 W/m 14,8 C 22,4 C 16,1 km/h (3 Bft) 97,14 %
12.07.2017 19:54 22,4 C 26,1 C 62 % 1009,1 hPa 0,0 l/m 8,2 km/h (2 Bft) NW 324 2 min 0,000 mm 0,0 UV-I 189 W/m 14,8 C 21,8 C 19,3 km/h (3 Bft) 98,21 %
12.07.2017 19:56 22,6 C 26,1 C 62 % 1009,0 hPa 0,0 l/m 8,0 km/h (2 Bft) W-NW 288 2 min 0,000 mm 0,0 UV-I 194 W/m 14,9 C 22,1 C 20,9 km/h (4 Bft) 100,00 %
12.07.2017 19:58 22,6 C 26,1 C 62 % 1009,0 hPa 0,0 l/m 7,0 km/h (2 Bft) W 263 2 min 0,000 mm 0,0 UV-I 155 W/m 14,9 C 22,4 C 17,7 km/h (3 Bft) 97,56 %
12.07.2017 20:00 22,7 C 26,1 C 62 % 1009,1 hPa 0,0 l/m 9,6 km/h (2 Bft) SW 226 2 min 0,000 mm 0,0 UV-I 115 W/m 15,0 C 21,7 C 22,5 km/h (4 Bft) 100,00 %
12.07.2017 20:02 22,7 C 26,1 C 62 % 1009,0 hPa 0,0 l/m 5,0 km/h (1 Bft) N-NW 327 2 min 0,102 mm 0,0 UV-I 106 W/m 15,0 C 22,7 C 12,9 km/h (3 Bft) 97,87 %
12.07.2017 20:04 22,6 C 26,1 C 62 % 1009,2 hPa 0,0 l/m 7,8 km/h (2 Bft) N 355 2 min 0,000 mm 0,0 UV-I 86 W/m 14,9 C 22,1 C 22,5 km/h (4 Bft) 97,56 %
12.07.2017 20:06 22,6 C 26,1 C 62 % 1009,4 hPa 0,0 l/m 6,4 km/h (2 Bft) SW 218 0 min 0,000 mm 0,0 UV-I 57 W/m 14,9 C 22,6 C 14,5 km/h (3 Bft) 96,23 %
12.07.2017 20:08 22,6 C 26,1 C 62 % 1009,5 hPa 0,0 l/m 10,6 km/h (2 Bft) W-NW 284 0 min 0,000 mm 0,0 UV-I 36 W/m 14,9 C 21,4 C 14,5 km/h (3 Bft) 95,45 %
12.07.2017 20:10 22,5 C 26,1 C 62 % 1009,6 hPa 0,0 l/m 7,3 km/h (2 Bft) SW 225 0 min 0,000 mm 0,0 UV-I 32 W/m 14,8 C 22,2 C 12,9 km/h (3 Bft) 100,00 %
12.07.2017 20:12 22,4 C 26,1 C 62 % 1009,6 hPa 0,0 l/m 6,6 km/h (2 Bft) W 270 0 min 0,000 mm 0,0 UV-I 29 W/m 14,8 C 22,3 C 14,5 km/h (3 Bft) 93,22 %
12.07.2017 20:14 22,3 C 26,1 C 62 % 1009,6 hPa 0,0 l/m 5,9 km/h (2 Bft) W 263 0 min 0,000 mm 0,0 UV-I 25 W/m 14,7 C 22,3 C 14,5 km/h (3 Bft) 95,12 %
12.07.2017 20:16 22,3 C 26,1 C 63 % 1009,6 hPa 0,0 l/m 6,2 km/h (2 Bft) W 262 0 min 0,000 mm 0,0 UV-I 20 W/m 14,9 C 22,3 C 11,3 km/h (2 Bft) 95,24 %
12.07.2017 20:18 22,2 C 26,1 C 63 % 1009,6 hPa 0,0 l/m 5,4 km/h (1 Bft) W-NW 294 0 min 0,000 mm 0,0 UV-I 18 W/m 14,8 C 22,2 C 9,7 km/h (2 Bft) 97,37 %
12.07.2017 20:20 22,2 C 26,1 C 63 % 1009,6 hPa 0,0 l/m 5,4 km/h (1 Bft) NW 323 0 min 0,000 mm 0,0 UV-I 18 W/m 14,8 C 22,2 C 11,3 km/h (2 Bft) 96,00 %
12.07.2017 20:22 22,1 C 26,1 C 64 % 1009,7 hPa 0,0 l/m 5,3 km/h (1 Bft) W-SW 239 0 min 0,000 mm 0,0 UV-I 15 W/m 15,0 C 22,1 C 11,3 km/h (2 Bft) 96,00 %
12.07.2017 20:24 22,1 C 26,1 C 64 % 1009,7 hPa 0,0 l/m 5,0 km/h (1 Bft) NW 305 0 min 0,000 mm 0,0 UV-I 14 W/m 15,0 C 22,1 C 11,3 km/h (2 Bft) 94,34 %
12.07.2017 20:26 22,0 C 26,1 C 64 % 1009,7 hPa 0,0 l/m 3,9 km/h (1 Bft) W-NW 290 0 min 0,000 mm 0,0 UV-I 15 W/m 14,9 C 22,0 C 9,7 km/h (2 Bft) 96,00 %
12.07.2017 20:28 21,9 C 26,1 C 64 % 1009,8 hPa 0,0 l/m 4,6 km/h (1 Bft) W 263 0 min 0,000 mm 0,0 UV-I 14 W/m 14,8 C 21,9 C 11,3 km/h (2 Bft) 88,64 %
12.07.2017 20:30 21,9 C 26,1 C 65 % 1009,9 hPa 0,0 l/m 2,8 km/h (1 Bft) W-SW 252 0 min 0,000 mm 0,0 UV-I 14 W/m 15,0 C 21,9 C 8,0 km/h (2 Bft) 93,62 %
12.07.2017 20:32 21,8 C 26,1 C 65 % 1009,9 hPa 0,0 l/m 4,3 km/h (1 Bft) W-NW 288 0 min 0,000 mm 0,0 UV-I 14 W/m 14,9 C 21,8 C 9,7 km/h (2 Bft) 91,49 %
12.07.2017 20:34 21,8 C 26,1 C 66 % 1009,9 hPa 0,0 l/m 3,0 km/h (1 Bft) W-NW 291 0 min 0,000 mm 0,0 UV-I 15 W/m 15,2 C 21,8 C 11,3 km/h (2 Bft) 90,00 %
12.07.2017 20:36 21,8 C 26,1 C 66 % 1009,9 hPa 0,0 l/m 5,3 km/h (1 Bft) W-SW 254 0 min 0,000 mm 0,0 UV-I 15 W/m 15,2 C 21,8 C 12,9 km/h (3 Bft) 90,00 %
12.07.2017 20:38 21,7 C 26,1 C 66 % 1010,0 hPa 0,0 l/m 2,9 km/h (1 Bft) W-NW 291 0 min 0,000 mm 0,0 UV-I 13 W/m 15,1 C 21,7 C 6,4 km/h (2 Bft) 95,12 %
12.07.2017 20:40 21,7 C 26,1 C 67 % 1010,1 hPa 0,0 l/m 2,9 km/h (1 Bft) NW 317 0 min 0,000 mm 0,0 UV-I 12 W/m 15,3 C 21,7 C 6,4 km/h (2 Bft) 96,15 %
12.07.2017 20:42 21,7 C 26,1 C 67 % 1010,0 hPa 0,0 l/m 5,3 km/h (1 Bft) W 269 0 min 0,000 mm 0,0 UV-I 11 W/m 15,3 C 21,7 C 11,3 km/h (2 Bft) 94,74 %
12.07.2017 20:44 21,7 C 26,1 C 67 % 1009,9 hPa 0,0 l/m 6,2 km/h (2 Bft) SW 235 0 min 0,000 mm 0,0 UV-I 9 W/m 15,3 C 21,7 C 14,5 km/h (3 Bft) 92,86 %
12.07.2017 20:46 21,7 C 26,1 C 67 % 1009,9 hPa 0,0 l/m 5,0 km/h (1 Bft) W 259 0 min 0,000 mm 0,0 UV-I 9 W/m 15,3 C 21,7 C 11,3 km/h (2 Bft) 93,62 %
12.07.2017 20:48 21,6 C 26,1 C 67 % 1009,9 hPa 0,0 l/m 5,5 km/h (1 Bft) W-SW 253 0 min 0,000 mm 0,0 UV-I 9 W/m 15,2 C 21,6 C 12,9 km/h (3 Bft) 97,37 %
12.07.2017 20:50 21,6 C 26,1 C 68 % 1010,0 hPa 0,0 l/m 6,6 km/h (2 Bft) W 280 0 min 0,000 mm 0,0 UV-I 8 W/m 15,4 C 21,5 C 16,1 km/h (3 Bft) 96,23 %
12.07.2017 20:52 21,6 C 26,1 C 68 % 1010,1 hPa 0,0 l/m 7,1 km/h (2 Bft) W-SW 251 0 min 0,000 mm 0,0 UV-I 7 W/m 15,4 C 21,3 C 12,9 km/h (3 Bft) 92,00 %
12.07.2017 20:54 21,6 C 26,1 C 68 % 1010,2 hPa 0,0 l/m 9,0 km/h (2 Bft) NW 304 0 min 0,000 mm 0,0 UV-I 7 W/m 15,4 C 20,7 C 16,1 km/h (3 Bft) 100,00 %
12.07.2017 20:56 21,6 C 26,1 C 68 % 1010,3 hPa 0,0 l/m 9,1 km/h (2 Bft) W 277 0 min 0,000 mm 0,0 UV-I 7 W/m 15,4 C 20,7 C 16,1 km/h (3 Bft) 94,44 %
12.07.2017 20:58 21,6 C 26,1 C 68 % 1010,4 hPa 0,0 l/m 11,3 km/h (2 Bft) W-SW 242 0 min 0,000 mm 0,0 UV-I 7 W/m 15,4 C 20,1 C 19,3 km/h (3 Bft) 94,00 %
12.07.2017 21:00 21,6 C 26,1 C 68 % 1010,6 hPa 0,0 l/m 8,3 km/h (2 Bft) SW 227 0 min 0,000 mm 0,0 UV-I 7 W/m 15,4 C 20,9 C 20,9 km/h (4 Bft) 97,22 %
12.07.2017 21:02 21,6 C 26,1 C 68 % 1010,6 hPa 0,0 l/m 8,7 km/h (2 Bft) SW 224 0 min 0,051 mm 0,0 UV-I 5 W/m 15,4 C 20,8 C 14,5 km/h (3 Bft) 98,21 %
12.07.2017 21:04 21,6 C 26,1 C 68 % 1010,6 hPa 0,0 l/m 8,2 km/h (2 Bft) W 264 0 min 0,000 mm 0,0 UV-I 5 W/m 15,4 C 21,0 C 12,9 km/h (3 Bft) 97,56 %
12.07.2017 21:06 21,6 C 26,1 C 68 % 1010,7 hPa 0,0 l/m 3,5 km/h (1 Bft) NW 306 0 min 0,000 mm 0,0 UV-I 5 W/m 15,4 C 21,6 C 6,4 km/h (2 Bft) 97,96 %
12.07.2017 21:08 21,5 C 26,1 C 69 % 1010,9 hPa 0,0 l/m 8,3 km/h (2 Bft) W-NW 298 0 min 0,000 mm 0,0 UV-I 5 W/m 15,6 C 20,8 C 24,1 km/h (4 Bft) 100,00 %
12.07.2017 21:10 21,5 C 26,1 C 69 % 1011,0 hPa 0,0 l/m 7,9 km/h (2 Bft) W 263 0 min 0,000 mm 0,0 UV-I 2 W/m 15,6 C 21,0 C 16,1 km/h (3 Bft) 95,12 %
12.07.2017 21:12 21,4 C 26,1 C 70 % 1010,9 hPa 0,0 l/m 9,4 km/h (2 Bft) W 263 0 min 0,000 mm 0,0 UV-I 0 W/m 15,7 C 20,4 C 19,3 km/h (3 Bft) 96,00 %
12.07.2017 21:14 21,3 C 26,1 C 74 % 1011,1 hPa 0,2 l/m 13,1 km/h (3 Bft) W 271 0 min 0,000 mm 0,0 UV-I 0 W/m 16,5 C 19,3 C 22,5 km/h (4 Bft) 97,56 %
12.07.2017 21:16 21,0 C 26,1 C 76 % 1011,0 hPa 0,4 l/m 12,9 km/h (3 Bft) N 5 0 min 0,000 mm 0,0 UV-I 0 W/m 16,6 C 19,0 C 22,5 km/h (4 Bft) 94,34 %
12.07.2017 21:18 20,6 C 26,1 C 78 % 1010,8 hPa 0,2 l/m 11,7 km/h (2 Bft) W-NW 302 0 min 0,000 mm 0,0 UV-I 0 W/m 16,6 C 18,8 C 22,5 km/h (4 Bft) 97,56 %
12.07.2017 21:20 20,2 C 26,1 C 79 % 1010,7 hPa 0,2 l/m 12,2 km/h (2 Bft) W-NW 303 0 min 0,000 mm 0,0 UV-I 0 W/m 16,4 C 18,2 C 25,7 km/h (4 Bft) 97,73 %
12.07.2017 21:22 19,8 C 26,1 C 81 % 1010,8 hPa 0,0 l/m 10,2 km/h (2 Bft) SW 235 0 min 0,000 mm 0,0 UV-I 0 W/m 16,4 C 18,4 C 14,5 km/h (3 Bft) 98,21 %
12.07.2017 21:24 19,6 C 26,1 C 82 % 1010,9 hPa 0,2 l/m 10,9 km/h (2 Bft) W-SW 246 0 min 0,000 mm 0,0 UV-I 0 W/m 16,4 C 17,9 C 19,3 km/h (3 Bft) 100,00 %
12.07.2017 21:26 19,4 C 26,1 C 84 % 1011,0 hPa 0,0 l/m 7,1 km/h (2 Bft) W-SW 252 0 min 0,000 mm 0,0 UV-I 0 W/m 16,6 C 19,1 C 11,3 km/h (2 Bft) 96,23 %
12.07.2017 21:28 19,2 C 26,1 C 85 % 1010,9 hPa 0,0 l/m 6,4 km/h (2 Bft) W-SW 250 0 min 0,000 mm 0,0 UV-I 0 W/m 16,6 C 19,2 C 11,3 km/h (2 Bft) 96,23 %
12.07.2017 21:30 19,1 C 26,1 C 86 % 1010,9 hPa 0,0 l/m 7,2 km/h (2 Bft) SW 225 0 min 0,000 mm 0,0 UV-I 0 W/m 16,7 C 18,7 C 12,9 km/h (3 Bft) 97,87 %
12.07.2017 21:32 19,0 C 26,1 C 86 % 1010,8 hPa 0,0 l/m 7,4 km/h (2 Bft) W-SW 237 0 min 0,000 mm 0,0 UV-I 0 W/m 16,6 C 18,6 C 11,3 km/h (2 Bft) 95,74 %
12.07.2017 21:35 18,9 C 26,1 C 87 % 1010,9 hPa 0,0 l/m 7,0 km/h (2 Bft) SW 232 0 min 0,000 mm 0,0 UV-I 0 W/m 16,7 C 18,6 C 9,7 km/h (2 Bft) 97,06 %
12.07.2017 21:36 18,8 C 26,1 C 87 % 1010,9 hPa 0,0 l/m 9,0 km/h (2 Bft) SW 217 0 min 0,000 mm 0,0 UV-I 0 W/m 16,6 C 17,7 C 11,3 km/h (2 Bft) 100,00 %
12.07.2017 21:38 18,8 C 26,1 C 87 % 1011,0 hPa 0,0 l/m 6,3 km/h (2 Bft) SW 223 0 min 0,000 mm 0,0 UV-I 0 W/m 16,6 C 18,8 C 11,3 km/h (2 Bft) 96,23 %
12.07.2017 21:40 18,8 C 26,1 C 88 % 1011,1 hPa 0,0 l/m 6,5 km/h (2 Bft) W-SW 237 0 min 0,000 mm 0,0 UV-I 0 W/m 16,8 C 18,8 C 9,7 km/h (2 Bft) 94,00 %
12.07.2017 21:42 18,7 C 26,1 C 88 % 1011,2 hPa 0,0 l/m 7,3 km/h (2 Bft) SW 230 0 min 0,000 mm 0,0 UV-I 0 W/m 16,7 C 18,3 C 9,7 km/h (2 Bft) 100,00 %
12.07.2017 21:44 18,6 C 26,1 C 88 % 1011,2 hPa 0,0 l/m 7,5 km/h (2 Bft) SW 221 0 min 0,000 mm 0,0 UV-I 0 W/m 16,6 C 18,1 C 9,7 km/h (2 Bft) 94,00 %
12.07.2017 21:46 18,6 C 26,1 C 89 % 1011,3 hPa 0,0 l/m 6,4 km/h (2 Bft) W-SW 255 0 min 0,000 mm 0,0 UV-I 0 W/m 16,7 C 18,6 C 9,7 km/h (2 Bft) 95,74 %
12.07.2017 21:48 18,6 C 25,6 C 89 % 1011,3 hPa 0,0 l/m 6,2 km/h (2 Bft) SW 235 0 min 0,000 mm 0,0 UV-I 0 W/m 16,7 C 18,6 C 11,3 km/h (2 Bft) 95,74 %
12.07.2017 21:50 18,5 C 25,6 C 89 % 1011,4 hPa 0,0 l/m 4,6 km/h (1 Bft) W-SW 246 0 min 0,000 mm 0,0 UV-I 0 W/m 16,7 C 18,5 C 9,7 km/h (2 Bft) 98,11 %
12.07.2017 21:52 18,5 C 25,6 C 89 % 1011,5 hPa 0,0 l/m 5,6 km/h (1 Bft) W-SW 246 0 min 0,000 mm 0,0 UV-I 0 W/m 16,7 C 18,5 C 8,0 km/h (2 Bft) 93,62 %
12.07.2017 21:54 18,4 C 25,6 C 89 % 1011,5 hPa 0,0 l/m 4,8 km/h (1 Bft) SW 225 0 min 0,000 mm 0,0 UV-I 0 W/m 16,6 C 18,4 C 6,4 km/h (2 Bft) 92,11 %
12.07.2017 21:56 18,4 C 25,6 C 89 % 1011,5 hPa 0,0 l/m 7,1 km/h (2 Bft) SW 222 0 min 0,000 mm 0,0 UV-I 0 W/m 16,6 C 18,1 C 11,3 km/h (2 Bft) 96,23 %
12.07.2017 21:58 18,3 C 25,6 C 90 % 1011,6 hPa 0,0 l/m 6,6 km/h (2 Bft) S-SW 213 0 min 0,000 mm 0,0 UV-I 0 W/m 16,6 C 18,2 C 9,7 km/h (2 Bft) 94,29 %
12.07.2017 22:00 18,3 C 25,6 C 90 % 1011,7 hPa 0,0 l/m 6,4 km/h (2 Bft) SW 214 0 min 0,000 mm 0,0 UV-I 0 W/m 16,6 C 18,3 C 9,7 km/h (2 Bft) 96,43 %
12.07.2017 22:03 18,2 C 25,6 C 90 % 1011,7 hPa 0,0 l/m 7,8 km/h (2 Bft) S-SW 207 0 min 0,025 mm 0,0 UV-I 0 W/m 16,5 C 17,6 C 11,3 km/h (2 Bft) 94,37 %
12.07.2017 22:04 18,2 C 25,6 C 90 % 1011,7 hPa 0,0 l/m 6,1 km/h (2 Bft) S-SW 201 0 min 0,000 mm 0,0 UV-I 0 W/m 16,5 C 18,2 C 8,0 km/h (2 Bft) 92,31 %
12.07.2017 22:06 18,1 C 25,6 C 90 % 1011,8 hPa 0,0 l/m 6,9 km/h (2 Bft) S-SW 211 0 min 0,000 mm 0,0 UV-I 0 W/m 16,4 C 17,9 C 11,3 km/h (2 Bft) 95,74 %
12.07.2017 22:08 18,1 C 25,6 C 90 % 1011,9 hPa 0,0 l/m 9,2 km/h (2 Bft) S-SW 209 0 min 0,000 mm 0,0 UV-I 0 W/m 16,4 C 16,9 C 12,9 km/h (3 Bft) 95,12 %
12.07.2017 22:10 18,1 C 25,6 C 90 % 1011,9 hPa 0,0 l/m 9,1 km/h (2 Bft) S-SW 203 0 min 0,000 mm 0,0 UV-I 0 W/m 16,4 C 16,9 C 12,9 km/h (3 Bft) 96,23 %
12.07.2017 22:12 18,0 C 25,6 C 90 % 1012,0 hPa 0,0 l/m 9,9 km/h (2 Bft) S-SW 211 0 min 0,000 mm 0,0 UV-I 0 W/m 16,3 C 16,5 C 12,9 km/h (3 Bft) 95,12 %
12.07.2017 22:14 18,0 C 25,6 C 91 % 1012,0 hPa 0,0 l/m 5,8 km/h (2 Bft) SW 214 0 min 0,000 mm 0,0 UV-I 0 W/m 16,5 C 18,0 C 9,7 km/h (2 Bft) 96,00 %
12.07.2017 22:16 18,0 C 25,6 C 90 % 1012,0 hPa 0,0 l/m 6,9 km/h (2 Bft) S-SW 194 0 min 0,000 mm 0,0 UV-I 0 W/m 16,3 C 17,8 C 12,9 km/h (3 Bft) 95,35 %
12.07.2017 22:18 18,1 C 25,6 C 91 % 1012,1 hPa 0,0 l/m 6,7 km/h (2 Bft) S-SO 167 0 min 0,000 mm 0,0 UV-I 0 W/m 16,6 C 18,0 C 11,3 km/h (2 Bft) 94,00 %
12.07.2017 22:20 18,1 C 25,6 C 91 % 1012,2 hPa 0,0 l/m 6,4 km/h (2 Bft) SO 132 0 min 0,000 mm 0,0 UV-I 0 W/m 16,6 C 18,1 C 12,9 km/h (3 Bft) 94,23 %
12.07.2017 22:22 18,1 C 25,6 C 90 % 1012,2 hPa 0,0 l/m 8,4 km/h (2 Bft) S-SW 204 0 min 0,000 mm 0,0 UV-I 0 W/m 16,4 C 17,2 C 12,9 km/h (3 Bft) 92,31 %
12.07.2017 22:24 18,1 C 25,6 C 91 % 1012,1 hPa 0,0 l/m 8,8 km/h (2 Bft) S-SW 192 0 min 0,000 mm 0,0 UV-I 0 W/m 16,6 C 17,0 C 14,5 km/h (3 Bft) 90,24 %
12.07.2017 22:26 18,1 C 25,6 C 90 % 1012,2 hPa 0,0 l/m 10,7 km/h (2 Bft) S-SW 201 0 min 0,000 mm 0,0 UV-I 0 W/m 16,4 C 16,3 C 17,7 km/h (3 Bft) 94,64 %
12.07.2017 22:28 18,1 C 25,6 C 90 % 1012,3 hPa 0,0 l/m 8,4 km/h (2 Bft) S-SW 202 0 min 0,000 mm 0,0 UV-I 0 W/m 16,4 C 17,2 C 12,9 km/h (3 Bft) 94,74 %
12.07.2017 22:30 18,2 C 25,6 C 90 % 1012,4 hPa 0,0 l/m 7,7 km/h (2 Bft) S 174 0 min 0,000 mm 0,0 UV-I 0 W/m 16,5 C 17,6 C 14,5 km/h (3 Bft) 94,00 %
12.07.2017 22:32 18,2 C 25,6 C 90 % 1012,4 hPa 0,0 l/m 7,1 km/h (2 Bft) SW 229 0 min 0,000 mm 0,0 UV-I 0 W/m 16,5 C 17,9 C 12,9 km/h (3 Bft) 94,00 %
12.07.2017 22:34 18,2 C 25,6 C 90 % 1012,4 hPa 0,0 l/m 10,4 km/h (2 Bft) S 190 0 min 0,000 mm 0,0 UV-I 0 W/m 16,5 C 16,5 C 20,9 km/h (4 Bft) 93,18 %
12.07.2017 22:36 18,2 C 25,6 C 90 % 1012,5 hPa 0,0 l/m 10,4 km/h (2 Bft) SW 218 0 min 0,000 mm 0,0 UV-I 0 W/m 16,5 C 16,5 C 16,1 km/h (3 Bft) 94,34 %
12.07.2017 22:38 18,2 C 25,6 C 90 % 1012,5 hPa 0,0 l/m 11,7 km/h (2 Bft) SW 227 0 min 0,000 mm 0,0 UV-I 0 W/m 16,5 C 16,1 C 22,5 km/h (4 Bft) 92,68 %
12.07.2017 22:40 18,3 C 25,6 C 90 % 1012,5 hPa 0,0 l/m 13,6 km/h (3 Bft) S-SW 196 0 min 0,000 mm 0,0 UV-I 0 W/m 16,6 C 15,6 C 24,1 km/h (4 Bft) 94,64 %
12.07.2017 22:42 18,3 C 25,6 C 89 % 1012,6 hPa 0,0 l/m 11,9 km/h (2 Bft) S-SW 203 0 min 0,000 mm 0,0 UV-I 0 W/m 16,5 C 16,1 C 19,3 km/h (3 Bft) 95,12 %
12.07.2017 22:44 18,4 C 25,6 C 89 % 1012,4 hPa 0,0 l/m 12,6 km/h (3 Bft) S-SW 197 0 min 0,000 mm 0,0 UV-I 0 W/m 16,6 C 16,0 C 24,1 km/h (4 Bft) 91,49 %
12.07.2017 22:46 18,4 C 25,6 C 88 % 1012,6 hPa 0,0 l/m 12,0 km/h (2 Bft) W 263 0 min 0,000 mm 0,0 UV-I 0 W/m 16,4 C 16,2 C 22,5 km/h (4 Bft) 96,00 %
12.07.2017 22:48 18,5 C 25,6 C 88 % 1012,5 hPa 0,0 l/m 14,7 km/h (3 Bft) S-SW 211 0 min 0,000 mm 0,0 UV-I 0 W/m 16,5 C 15,5 C 20,9 km/h (4 Bft) 95,12 %
12.07.2017 22:50 18,5 C 25,6 C 88 % 1012,6 hPa 0,0 l/m 18,3 km/h (3 Bft) SW 228 0 min 0,000 mm 0,0 UV-I 0 W/m 16,5 C 14,6 C 30,6 km/h (5 Bft) 96,43 %
12.07.2017 22:52 18,6 C 25,6 C 88 % 1012,7 hPa 0,0 l/m 18,3 km/h (3 Bft) W-SW 241 0 min 0,000 mm 0,0 UV-I 0 W/m 16,6 C 14,8 C 24,1 km/h (4 Bft) 97,56 %
12.07.2017 22:54 18,6 C 25,6 C 87 % 1012,7 hPa 0,0 l/m 15,6 km/h (3 Bft) S-SW 204 0 min 0,000 mm 0,0 UV-I 0 W/m 16,4 C 15,4 C 27,4 km/h (4 Bft) 92,31 %
12.07.2017 22:56 18,6 C 25,6 C 87 % 1012,6 hPa 0,0 l/m 14,3 km/h (3 Bft) S-SW 199 0 min 0,000 mm 0,0 UV-I 0 W/m 16,4 C 15,7 C 20,9 km/h (4 Bft) 92,45 %
12.07.2017 22:58 18,6 C 25,6 C 87 % 1012,6 hPa 0,0 l/m 14,7 km/h (3 Bft) W 264 0 min 0,000 mm 0,0 UV-I 0 W/m 16,4 C 15,6 C 27,4 km/h (4 Bft) 98,00 %
12.07.2017 23:00 18,6 C 25,6 C 87 % 1012,6 hPa 0,0 l/m 17,4 km/h (3 Bft) W-SW 241 0 min 0,000 mm 0,0 UV-I 0 W/m 16,4 C 15,0 C 25,7 km/h (4 Bft) 98,00 %
12.07.2017 23:03 18,7 C 25,6 C 87 % 1012,6 hPa 0,0 l/m 15,7 km/h (3 Bft) SW 224 0 min 0,026 mm 0,0 UV-I 0 W/m 16,5 C 15,5 C 25,7 km/h (4 Bft) 98,63 %
12.07.2017 23:04 18,7 C 25,6 C 87 % 1012,6 hPa 0,0 l/m 20,1 km/h (4 Bft) SW 231 0 min 0,000 mm 0,0 UV-I 0 W/m 16,5 C 14,5 C 24,1 km/h (4 Bft) 100,00 %
12.07.2017 23:06 18,7 C 25,6 C 86 % 1012,6 hPa 0,0 l/m 18,1 km/h (3 Bft) W-SW 241 0 min 0,000 mm 0,0 UV-I 0 W/m 16,3 C 14,9 C 27,4 km/h (4 Bft) 96,23 %
12.07.2017 23:08 18,7 C 25,6 C 86 % 1012,4 hPa 0,0 l/m 15,5 km/h (3 Bft) W-SW 241 0 min 0,000 mm 0,0 UV-I 0 W/m 16,3 C 15,5 C 22,5 km/h (4 Bft) 100,00 %
12.07.2017 23:10 18,7 C 25,6 C 86 % 1012,4 hPa 0,0 l/m 13,4 km/h (3 Bft) S-SW 202 0 min 0,000 mm 0,0 UV-I 0 W/m 16,3 C 16,1 C 27,4 km/h (4 Bft) 97,87 %
12.07.2017 23:12 18,7 C 25,6 C 85 % 1012,5 hPa 0,0 l/m 17,4 km/h (3 Bft) W-SW 246 0 min 0,000 mm 0,0 UV-I 0 W/m 16,1 C 15,1 C 29,0 km/h (5 Bft) 95,74 %
12.07.2017 23:14 18,7 C 25,6 C 84 % 1012,5 hPa 0,0 l/m 15,2 km/h (3 Bft) W-SW 248 0 min 0,000 mm 0,0 UV-I 0 W/m 15,9 C 15,6 C 25,7 km/h (4 Bft) 97,56 %
12.07.2017 23:16 18,7 C 25,6 C 84 % 1012,4 hPa 0,0 l/m 11,5 km/h (2 Bft) W-SW 241 0 min 0,000 mm 0,0 UV-I 0 W/m 15,9 C 16,7 C 16,1 km/h (3 Bft) 98,00 %
12.07.2017 23:18 18,7 C 25,6 C 84 % 1012,4 hPa 0,0 l/m 12,5 km/h (3 Bft) SW 215 0 min 0,000 mm 0,0 UV-I 0 W/m 15,9 C 16,4 C 19,3 km/h (3 Bft) 100,00 %
12.07.2017 23:20 18,7 C 25,6 C 84 % 1012,4 hPa 0,0 l/m 21,8 km/h (4 Bft) SW 219 0 min 0,000 mm 0,0 UV-I 0 W/m 15,9 C 14,2 C 32,2 km/h (5 Bft) 98,11 %
12.07.2017 23:22 18,7 C 25,6 C 84 % 1012,6 hPa 0,0 l/m 18,5 km/h (3 Bft) W-SW 255 0 min 0,000 mm 0,0 UV-I 0 W/m 15,9 C 14,8 C 30,6 km/h (5 Bft) 97,56 %
12.07.2017 23:24 18,7 C 25,6 C 84 % 1012,6 hPa 0,0 l/m 14,5 km/h (3 Bft) W 279 0 min 0,000 mm 0,0 UV-I 0 W/m 15,9 C 15,8 C 25,7 km/h (4 Bft) 95,45 %
12.07.2017 23:26 18,7 C 25,6 C 84 % 1012,6 hPa 0,0 l/m 12,7 km/h (3 Bft) W-SW 238 0 min 0,000 mm 0,0 UV-I 0 W/m 15,9 C 16,3 C 19,3 km/h (3 Bft) 95,56 %
12.07.2017 23:28 18,7 C 25,6 C 85 % 1012,7 hPa 0,0 l/m 16,1 km/h (3 Bft) W 271 0 min 0,000 mm 0,0 UV-I 0 W/m 16,1 C 15,4 C 25,7 km/h (4 Bft) 100,00 %
12.07.2017 23:30 18,7 C 25,6 C 85 % 1012,7 hPa 0,0 l/m 10,5 km/h (2 Bft) W-SW 257 0 min 0,000 mm 0,0 UV-I 0 W/m 16,1 C 17,0 C 17,7 km/h (3 Bft) 97,56 %
12.07.2017 23:32 18,7 C 25,6 C 85 % 1012,8 hPa 0,0 l/m 13,2 km/h (3 Bft) SW 233 0 min 0,000 mm 0,0 UV-I 0 W/m 16,1 C 16,2 C 19,3 km/h (3 Bft) 96,43 %
12.07.2017 23:34 18,7 C 25,6 C 85 % 1012,7 hPa 0,0 l/m 12,0 km/h (2 Bft) W-SW 255 0 min 0,000 mm 0,0 UV-I 0 W/m 16,1 C 16,5 C 17,7 km/h (3 Bft) 94,87 %
12.07.2017 23:36 18,6 C 25,6 C 85 % 1012,8 hPa 0,0 l/m 10,7 km/h (2 Bft) W-SW 257 0 min 0,000 mm 0,0 UV-I 0 W/m 16,0 C 16,8 C 16,1 km/h (3 Bft) 98,11 %
12.07.2017 23:38 18,6 C 25,6 C 86 % 1012,8 hPa 0,0 l/m 9,1 km/h (2 Bft) W 265 0 min 0,000 mm 0,0 UV-I 0 W/m 16,2 C 17,4 C 14,5 km/h (3 Bft) 97,73 %
12.07.2017 23:40 18,5 C 25,6 C 86 % 1012,9 hPa 0,0 l/m 8,6 km/h (2 Bft) W-SW 257 0 min 0,000 mm 0,0 UV-I 0 W/m 16,1 C 17,5 C 14,5 km/h (3 Bft) 93,62 %
12.07.2017 23:42 18,5 C 25,6 C 86 % 1013,0 hPa 0,0 l/m 9,0 km/h (2 Bft) W 260 0 min 0,000 mm 0,0 UV-I 0 W/m 16,1 C 17,4 C 14,5 km/h (3 Bft) 97,87 %
12.07.2017 23:44 18,4 C 25,6 C 87 % 1012,9 hPa 0,0 l/m 8,1 km/h (2 Bft) SW 229 0 min 0,000 mm 0,0 UV-I 0 W/m 16,2 C 17,6 C 14,5 km/h (3 Bft) 100,00 %
12.07.2017 23:46 18,4 C 25,6 C 87 % 1013,1 hPa 0,0 l/m 13,3 km/h (3 Bft) SW 230 0 min 0,000 mm 0,0 UV-I 0 W/m 16,2 C 15,8 C 20,9 km/h (4 Bft) 97,56 %
12.07.2017 23:48 18,4 C 25,6 C 87 % 1012,9 hPa 0,0 l/m 14,1 km/h (3 Bft) W-SW 238 0 min 0,000 mm 0,0 UV-I 0 W/m 16,2 C 15,6 C 20,9 km/h (4 Bft) 97,56 %
12.07.2017 23:50 18,4 C 25,6 C 87 % 1013,0 hPa 0,0 l/m 18,7 km/h (3 Bft) SW 219 0 min 0,000 mm 0,0 UV-I 0 W/m 16,2 C 14,4 C 25,7 km/h (4 Bft) 98,21 %
12.07.2017 23:52 18,4 C 25,6 C 87 % 1013,1 hPa 0,0 l/m 14,1 km/h (3 Bft) SW 223 0 min 0,000 mm 0,0 UV-I 0 W/m 16,2 C 15,6 C 20,9 km/h (4 Bft) 98,11 %
12.07.2017 23:54 18,4 C 25,6 C 87 % 1013,1 hPa 0,0 l/m 14,2 km/h (3 Bft) S-SW 207 0 min 0,000 mm 0,0 UV-I 0 W/m 16,2 C 15,5 C 20,9 km/h (4 Bft) 97,37 %
12.07.2017 23:56 18,4 C 25,6 C 87 % 1013,2 hPa 0,0 l/m 13,7 km/h (3 Bft) W-SW 247 0 min 0,000 mm 0,0 UV-I 0 W/m 16,2 C 15,7 C 19,3 km/h (3 Bft) 96,00 %
12.07.2017 23:58 18,3 C 25,6 C 87 % 1013,2 hPa 0,0 l/m 13,5 km/h (3 Bft) SW 217 0 min 0,000 mm 0,0 UV-I 0 W/m 16,1 C 15,6 C 19,3 km/h (3 Bft) 100,00 %
_ Min-Zeit 05:52 04:16 12:32 18:50 - 06:04 - - - - - - 12:38 23:20 06:04 18:40
Minimum _ 15,7 C 25,0 C 47 % 1008,1 hPa - 0,0 km/h (0 Bft) - - - - - - 13,3 C 14,2 C 0,0 km/h (0 Bft) 84,21 %
_ Max-Zeit 16:10 00:00 05:58 00:16 21:16 23:20 - - 17:13 14:02 13:34 13:54 19:14 16:10 23:20 00:08
Maximum _ 27,2 C 26,1 C 92 % 1013,4 hPa 0,4 l/m 21,8 km/h
SW (4 Bft)
- - 3 min 0,533 mm 7,5 UV-I 1195 W/m 17,3 C 27,2 C 32,2 km/h
W-SW (5 Bft)
100,00 %
Durchschnitt _ 21,7 C 25,6 C 69 % 1011,3 hPa #1,2 l/m 5,4 km/h (1 Bft) SW - #7:44 h #4,039 mm 2,8 UV-I 334 W/m 15,4 C 21,4 C 9,9 km/h (2 Bft) 96,15 %